[[{"header":{"parameterUnit":"m.s-1","parameterCategory":1,"la1":31.0,"la2":29.5877,"lo1":-88.7671,"lo2":-86.6584,"dy":0.0162,"dx":0.0185,"nx":115,"ny":88,"refTime":"2024-04-28T06:00:00:Z","depth":0,"parameterNumber":2,"parameterNumberName":"U-component_of_WINDS"},"data":[0.0,0.0,0.0,0.0,0.0,0.0,0.0,0.0,0.0,0.0,0.0,0.0,0.0,0.0,0.0,0.0,0.0,0.0,0.0,0.0,0.0,0.0,0.0,0.0,0.0,0.0,0.0,0.0,0.0,0.0,0.0,0.0,0.0,0.0,0.0,0.0,0.0,0.0,0.0,0.0,0.0,0.0,0.0,0.0,0.0,0.0,0.0,0.0,0.0,0.0,0.0,0.0,0.0,0.0,0.0,0.0,0.0,0.0,0.0,0.0,0.0,0.0,0.0,0.0,0.0,0.0,0.0,0.0,0.0,0.0,0.0,0.0,0.0,0.0,0.0,0.0,0.0,0.0,0.0,0.0,0.0,0.0,0.0,0.0,0.0,0.0,0.0,0.0,0.0,0.0,0.0,0.0,0.0,0.0,0.0,0.0,0.0,0.0,0.0,0.0,0.0,0.0,0.0,0.0,0.0,0.0,0.0,0.0,0.0,0.0,0.0,0.0,0.0,0.0,0.0,0.0,0.0,0.0,0.0,0.0,0.0,0.0,0.0,0.0,0.0,0.0,0.0,0.0,0.0,0.0,0.0,0.0,0.0,0.0,0.0,0.0,0.0,0.0,0.0,0.0,0.0,0.0,0.0,0.0,0.0,0.0,0.0,0.0,0.0,0.0,0.0,0.0,0.0,0.0,0.0,0.0,0.0,0.0,0.0,0.0,0.0,0.0,0.0,0.0,0.0,0.0,0.0,0.0,0.0,0.0,0.0,0.0,0.0,0.0,0.0,0.0,0.0,0.0,0.0,0.0,0.0,0.0,0.0,0.0,0.0,0.0,0.0,0.0,0.0,0.0,0.0,0.0,0.0,0.0,0.0,0.0,0.0,0.0,0.0,0.0,0.0,0.0,0.0,0.0,0.0,0.0,0.0,0.0,0.0,0.0,0.0,0.0,0.0,0.0,0.0,0.0,0.0,0.0,0.0,0.0,0.0,0.0,0.0,0.0,0.0,0.0,0.0,0.0,0.0,0.0,0.0,0.0,0.0,0.0,0.0,0.0,0.0,0.0,0.0,0.0,0.0,0.0,0.0,0.0,0.0,0.0,0.0,0.0,0.0,0.0,0.0,0.0,0.0,0.0,0.0,0.0,0.0,0.0,0.0,0.0,0.0,0.0,0.0,0.0,0.0,0.0,0.0,0.0,0.0,0.0,0.0,0.0,0.0,0.0,0.0,0.0,0.0,0.0,0.0,0.0,0.0,0.0,0.0,0.0,0.0,0.0,0.0,0.0,0.0,0.0,0.0,0.0,0.0,0.0,0.0,0.0,0.0,0.0,0.0,0.0,0.0,0.0,0.0,0.0,0.0,0.0,0.0,0.0,0.0,0.0,0.0,0.0,0.0,0.0,0.0,0.0,0.0,0.0,0.0,0.0,0.0,0.0,0.0,0.0,0.0,0.0,0.0,0.0,0.0,0.0,0.0,0.0,0.0,0.0,0.0,0.0,0.0,0.0,0.0,0.0,0.0,0.0,0.0,0.0,0.0,0.0,0.0,0.0,0.0,0.0,0.0,0.0,0.0,0.0,0.0,0.0,0.0,0.0,0.0,0.0,0.0,0.0,0.0,0.0,0.0,0.0,0.0,0.0,0.0,0.0,0.0,0.0,0.0,0.0,0.0,0.0,0.0,0.0,0.0,0.0,0.0,0.0,0.0,0.0,0.0,0.0,0.0,0.0,0.0,0.0,0.0,0.0,0.0,0.0,0.0,0.0,0.0,0.0,0.0,0.0,0.0,0.0,0.0,0.0,0.0,0.0,0.0,0.0,0.0,0.0,0.0,0.0,0.0,0.0,0.0,0.0,0.0,0.0,0.0,0.0,0.0,0.0,0.0,0.0,0.0,0.0,0.0,0.0,0.0,0.0,0.0,0.0,0.0,0.0,0.0,0.0,0.0,0.0,0.0,0.0,0.0,0.0,0.0,0.0,0.0,0.0,0.0,0.0,0.0,0.0,0.0,0.0,0.0,0.0,0.0,0.0,0.0,0.0,0.0,0.0,0.0,0.0,0.0,0.0,0.0,0.0,0.0,0.0,0.0,0.0,0.0,0.0,0.0,0.0,0.0,0.0,0.0,0.0,0.0,0.0,0.0,0.0,0.0,0.0,0.0,0.0,0.0,0.0,0.0,0.0,0.0,0.0,0.0,0.0,0.0,0.0,0.0,0.0,0.0,0.0,0.0,0.0,0.0,0.0,0.0,0.0,0.0,0.0,0.0,0.0,0.0,0.0,0.0,0.0,0.0,0.0,0.0,0.0,0.0,0.0,0.0,0.0,0.0,0.0,0.0,0.0,0.0,0.0,0.0,0.0,0.0,0.0,0.0,0.0,0.0,0.0,0.0,0.0,0.0,0.0,0.0,0.0,0.0,0.0,0.0,0.0,0.0,0.0,0.0,0.0,0.0,0.0,0.0,0.0,0.0,0.0,0.0,0.0,0.0,0.0,0.0,0.0,0.0,0.0,0.0,0.0,0.0,0.0,0.0,0.0,0.0,0.0,0.0,0.0,0.0,0.0,0.0,0.0,0.0,0.0,0.0,0.0,0.0,0.0,0.0,0.0,0.0,0.0,0.0,0.0,0.0,0.0,0.0,0.0,0.0,0.0,0.0,0.0,0.0,0.0,0.0,0.0,0.0,0.0,0.0,0.0,0.0,0.0,0.0,0.0,0.0,0.0,0.0,0.0,0.0,0.0,0.0,0.0,0.0,0.0,0.0,0.0,0.0,0.0,0.0,0.0,0.0,0.0,0.0,0.0,0.0,0.0,0.0,0.0,0.0,0.0,0.0,0.0,0.0,0.0,0.0,0.0,0.0,0.0,0.0,0.0,0.0,0.0,0.0,0.0,0.0,0.0,0.0,0.0,0.0,0.0,0.0,0.0,0.0,0.0,0.0,0.0,0.0,0.0,0.0,0.0,0.0,0.0,0.0,0.0,0.0,0.0,0.0,0.0,0.0,0.0,0.0,0.0,0.0,0.0,0.0,0.0,0.0,0.0,0.0,0.0,0.0,0.0,0.0,0.0,0.0,0.0,0.0,0.0,0.0,0.0,0.0,0.0,0.0,0.0,0.0,0.0,0.0,0.0,0.0,0.0,0.0,0.0,0.0,0.0,0.0,0.0,0.0,0.0,0.0,0.0,0.0,0.0,0.0,0.0,0.0,0.0,0.0,0.0,0.0,0.0,0.0,0.0,0.0,0.0,0.0,0.0,0.0,0.0,0.0,0.0,0.0,0.0,0.0,0.0,0.0,0.0,0.0,0.0,0.0,0.0,0.0,0.0,0.0,0.0,0.0,0.0,0.0,0.0,0.0,0.0,0.0,0.0,0.0,0.0,0.0,0.0,0.0,0.0,0.0,0.0,0.0,0.0,0.0,0.0,0.0,0.0,0.0,0.0,0.0,0.0,0.0,0.0,0.0,0.0,0.0,0.0,0.0,0.0,0.0,0.0,0.0,0.0,0.0,0.0,0.0,0.0,0.0,0.0,0.0,0.0,0.0,0.0,0.0,0.0,0.0,0.0,0.0,0.0,0.0,0.0,0.0,0.0,0.0,0.0,0.0,0.0,0.0,0.0,0.0,0.0,0.0,0.0,0.0,0.0,0.0,0.0,0.0,0.0,0.0,0.0,0.0,0.0,0.0,0.0,0.0,0.0,0.0,0.0,0.0,0.0,0.0,0.0,0.0,0.0,0.0,0.0,0.0,0.0,0.0,0.0,0.0,0.0,0.0,0.0,0.0,0.0,0.0,0.0,0.0,0.0,0.0,0.0,0.0,0.0,0.0,0.0,0.0,0.0,0.0,0.0,0.0,0.0,0.0,0.0,0.0,0.0,0.0,0.0,0.0,0.0,0.0,0.0,0.0,0.0,0.0,0.0,0.0,0.0,0.0,0.0,0.0,0.0,0.0,0.0,0.0,0.0,0.0,0.0,0.0,0.0,0.0,0.0,0.0,0.0,0.0,0.0,0.0,0.0,0.0,0.0,0.0,0.0,0.0,0.0,0.0,0.0,0.0,0.0,0.0,0.0,0.0,0.0,0.0,0.0,0.0,0.0,0.0,0.0,0.0,0.0,0.0,0.0,0.0,0.0,0.0,0.0,0.0,0.0,0.0,0.0,0.0,0.0,0.0,0.0,0.0,0.0,0.0,0.0,0.0,0.0,0.0,0.0,0.0,0.0,0.0,0.0,0.0,0.0,0.0,0.0,0.0,0.0,0.0,0.0,0.0,0.0,-5.543,0.0,0.0,0.0,-5.2167,0.0,0.0,0.0,0.0,0.0,0.0,0.0,0.0,0.0,0.0,0.0,0.0,0.0,0.0,0.0,0.0,0.0,0.0,0.0,0.0,0.0,0.0,0.0,0.0,0.0,0.0,0.0,0.0,0.0,0.0,0.0,0.0,0.0,0.0,0.0,0.0,0.0,0.0,0.0,0.0,0.0,0.0,0.0,0.0,0.0,0.0,0.0,0.0,0.0,0.0,0.0,0.0,0.0,0.0,0.0,0.0,0.0,0.0,0.0,0.0,0.0,0.0,0.0,0.0,0.0,0.0,0.0,0.0,0.0,0.0,0.0,0.0,0.0,0.0,0.0,0.0,0.0,0.0,0.0,0.0,0.0,0.0,0.0,0.0,0.0,0.0,0.0,0.0,0.0,0.0,0.0,0.0,0.0,0.0,0.0,0.0,0.0,0.0,0.0,0.0,0.0,0.0,0.0,0.0,0.0,0.0,0.0,0.0,0.0,0.0,-5.5628,-5.6029,-5.4076,-5.3104,-5.3233,0.0,0.0,0.0,0.0,0.0,0.0,0.0,0.0,0.0,0.0,0.0,0.0,0.0,0.0,0.0,0.0,0.0,0.0,0.0,0.0,0.0,0.0,0.0,0.0,0.0,0.0,0.0,0.0,0.0,0.0,0.0,0.0,0.0,0.0,0.0,0.0,0.0,0.0,0.0,0.0,0.0,0.0,0.0,0.0,0.0,0.0,0.0,0.0,0.0,0.0,0.0,0.0,0.0,0.0,0.0,0.0,0.0,0.0,0.0,0.0,0.0,0.0,0.0,0.0,0.0,0.0,0.0,0.0,0.0,0.0,0.0,0.0,0.0,0.0,0.0,0.0,0.0,0.0,0.0,0.0,0.0,0.0,0.0,0.0,0.0,0.0,0.0,0.0,0.0,0.0,0.0,0.0,0.0,0.0,0.0,0.0,0.0,0.0,0.0,0.0,0.0,0.0,0.0,0.0,0.0,0.0,0.0,0.0,0.0,0.0,0.0,0.0,-5.4333,-5.3375,-5.3616,0.0,0.0,0.0,0.0,0.0,0.0,0.0,0.0,0.0,0.0,0.0,0.0,0.0,0.0,0.0,0.0,0.0,0.0,0.0,0.0,0.0,0.0,0.0,0.0,0.0,0.0,0.0,0.0,0.0,0.0,0.0,0.0,0.0,0.0,0.0,0.0,0.0,0.0,0.0,0.0,0.0,0.0,0.0,0.0,0.0,0.0,0.0,0.0,0.0,0.0,0.0,0.0,0.0,0.0,0.0,0.0,0.0,0.0,0.0,0.0,0.0,0.0,0.0,0.0,0.0,0.0,0.0,0.0,0.0,0.0,0.0,0.0,0.0,0.0,0.0,0.0,0.0,0.0,0.0,0.0,0.0,0.0,0.0,0.0,0.0,0.0,0.0,0.0,0.0,0.0,0.0,0.0,0.0,0.0,0.0,0.0,0.0,0.0,0.0,0.0,0.0,0.0,0.0,0.0,0.0,0.0,0.0,0.0,0.0,0.0,-5.5921,-5.5888,-5.4783,0.0,-5.1936,0.0,0.0,0.0,0.0,0.0,0.0,0.0,0.0,0.0,0.0,0.0,0.0,0.0,0.0,0.0,0.0,0.0,0.0,0.0,0.0,0.0,0.0,0.0,0.0,0.0,0.0,0.0,0.0,0.0,0.0,0.0,0.0,0.0,0.0,0.0,0.0,0.0,0.0,0.0,0.0,0.0,0.0,0.0,0.0,0.0,0.0,0.0,0.0,0.0,0.0,0.0,0.0,0.0,0.0,0.0,0.0,0.0,0.0,0.0,0.0,0.0,0.0,0.0,0.0,0.0,0.0,0.0,0.0,0.0,0.0,0.0,0.0,0.0,0.0,0.0,0.0,0.0,0.0,0.0,0.0,0.0,0.0,0.0,0.0,0.0,0.0,0.0,0.0,0.0,0.0,0.0,0.0,0.0,0.0,0.0,0.0,0.0,0.0,0.0,0.0,0.0,0.0,0.0,0.0,0.0,0.0,0.0,0.0,0.0,0.0,-5.6278,-5.5985,-5.4928,-5.3389,0.0,0.0,0.0,0.0,0.0,0.0,0.0,0.0,0.0,0.0,0.0,0.0,0.0,0.0,0.0,0.0,0.0,0.0,0.0,0.0,0.0,0.0,0.0,0.0,0.0,0.0,0.0,0.0,0.0,0.0,0.0,0.0,0.0,0.0,0.0,0.0,0.0,0.0,0.0,0.0,0.0,0.0,0.0,0.0,0.0,0.0,0.0,0.0,0.0,0.0,0.0,0.0,0.0,0.0,0.0,0.0,0.0,0.0,0.0,0.0,0.0,0.0,0.0,0.0,0.0,0.0,0.0,0.0,0.0,0.0,0.0,0.0,0.0,0.0,0.0,0.0,0.0,0.0,0.0,0.0,0.0,0.0,0.0,0.0,0.0,0.0,0.0,0.0,0.0,0.0,0.0,0.0,0.0,0.0,0.0,0.0,0.0,0.0,0.0,0.0,0.0,0.0,0.0,0.0,0.0,0.0,0.0,0.0,0.0,0.0,-5.6201,-5.5953,-5.5602,-5.4806,-5.3427,-5.137,0.0,0.0,0.0,0.0,0.0,0.0,0.0,0.0,0.0,0.0,0.0,0.0,0.0,0.0,0.0,0.0,0.0,0.0,0.0,0.0,0.0,0.0,0.0,0.0,0.0,0.0,0.0,0.0,0.0,0.0,0.0,0.0,0.0,0.0,0.0,0.0,0.0,0.0,0.0,0.0,0.0,0.0,0.0,0.0,0.0,0.0,0.0,0.0,0.0,0.0,0.0,0.0,0.0,0.0,0.0,0.0,0.0,0.0,0.0,0.0,0.0,0.0,0.0,0.0,0.0,0.0,0.0,0.0,0.0,0.0,0.0,0.0,0.0,0.0,0.0,0.0,0.0,0.0,0.0,0.0,0.0,0.0,0.0,0.0,0.0,0.0,0.0,0.0,0.0,0.0,0.0,0.0,0.0,0.0,0.0,0.0,0.0,0.0,0.0,0.0,0.0,0.0,0.0,0.0,0.0,0.0,0.0,0.0,-5.5682,-5.5147,-5.4687,-5.442,-5.4407,-5.364,0.0,0.0,0.0,0.0,0.0,0.0,0.0,0.0,0.0,0.0,0.0,0.0,0.0,0.0,0.0,0.0,0.0,0.0,0.0,0.0,0.0,0.0,0.0,0.0,0.0,0.0,0.0,0.0,0.0,0.0,0.0,0.0,0.0,0.0,0.0,0.0,0.0,0.0,0.0,0.0,0.0,0.0,0.0,0.0,0.0,0.0,0.0,0.0,0.0,0.0,0.0,0.0,0.0,0.0,0.0,0.0,0.0,0.0,0.0,0.0,0.0,0.0,0.0,0.0,0.0,0.0,0.0,0.0,0.0,0.0,0.0,0.0,0.0,0.0,0.0,0.0,0.0,0.0,0.0,0.0,0.0,0.0,0.0,0.0,0.0,0.0,0.0,0.0,0.0,0.0,0.0,0.0,0.0,0.0,0.0,0.0,0.0,0.0,0.0,0.0,0.0,0.0,0.0,0.0,0.0,0.0,0.0,0.0,0.0,-5.4822,-5.4066,-5.4055,-5.4727,-5.3565,-5.2676,0.0,0.0,0.0,0.0,0.0,0.0,0.0,0.0,0.0,0.0,0.0,0.0,0.0,0.0,0.0,0.0,0.0,0.0,0.0,0.0,0.0,0.0,0.0,0.0,0.0,0.0,0.0,0.0,0.0,0.0,0.0,0.0,0.0,0.0,0.0,0.0,0.0,0.0,0.0,0.0,0.0,0.0,0.0,0.0,0.0,0.0,0.0,0.0,0.0,0.0,0.0,0.0,0.0,0.0,0.0,0.0,0.0,0.0,0.0,0.0,0.0,0.0,0.0,0.0,0.0,0.0,0.0,0.0,0.0,0.0,0.0,0.0,0.0,0.0,0.0,0.0,0.0,0.0,0.0,0.0,0.0,0.0,0.0,0.0,0.0,0.0,0.0,0.0,0.0,0.0,0.0,0.0,0.0,0.0,0.0,0.0,0.0,0.0,0.0,0.0,0.0,0.0,0.0,0.0,0.0,0.0,0.0,0.0,0.0,-5.4735,0.0,-5.4262,-5.4357,-5.3308,-5.2317,0.0,0.0,0.0,0.0,0.0,0.0,0.0,0.0,0.0,0.0,0.0,0.0,0.0,0.0,0.0,0.0,0.0,0.0,0.0,0.0,0.0,0.0,0.0,0.0,0.0,0.0,0.0,0.0,0.0,0.0,0.0,0.0,0.0,0.0,0.0,0.0,0.0,0.0,0.0,0.0,0.0,0.0,0.0,0.0,0.0,0.0,0.0,0.0,0.0,0.0,0.0,0.0,0.0,0.0,0.0,0.0,0.0,0.0,0.0,0.0,0.0,0.0,0.0,0.0,0.0,0.0,0.0,0.0,0.0,0.0,0.0,0.0,0.0,0.0,0.0,0.0,0.0,0.0,0.0,0.0,0.0,0.0,0.0,0.0,0.0,0.0,0.0,0.0,0.0,0.0,0.0,0.0,0.0,0.0,0.0,0.0,0.0,0.0,0.0,0.0,0.0,0.0,0.0,0.0,0.0,0.0,0.0,0.0,-5.4719,-5.5343,-5.5875,-5.5146,-5.3148,-5.3596,-5.2608,0.0,0.0,0.0,0.0,0.0,0.0,0.0,0.0,0.0,0.0,0.0,0.0,0.0,0.0,0.0,0.0,0.0,0.0,0.0,0.0,0.0,0.0,0.0,0.0,0.0,0.0,0.0,0.0,0.0,0.0,0.0,0.0,0.0,0.0,0.0,0.0,0.0,0.0,0.0,0.0,0.0,0.0,0.0,0.0,0.0,0.0,0.0,0.0,0.0,0.0,0.0,0.0,0.0,0.0,0.0,0.0,0.0,0.0,0.0,0.0,0.0,0.0,0.0,0.0,0.0,0.0,0.0,0.0,0.0,0.0,0.0,0.0,0.0,0.0,0.0,0.0,0.0,0.0,0.0,0.0,0.0,0.0,0.0,0.0,0.0,0.0,0.0,0.0,0.0,0.0,0.0,0.0,0.0,0.0,0.0,0.0,0.0,0.0,0.0,0.0,0.0,0.0,0.0,0.0,0.0,0.0,0.0,0.0,0.0,-5.4064,-5.3637,-5.3797,-5.4465,-5.2348,-5.1528,0.0,0.0,0.0,0.0,0.0,0.0,0.0,0.0,0.0,0.0,0.0,0.0,0.0,0.0,0.0,0.0,0.0,0.0,0.0,0.0,0.0,0.0,0.0,0.0,0.0,0.0,0.0,0.0,0.0,0.0,0.0,0.0,0.0,0.0,0.0,0.0,0.0,0.0,0.0,0.0,0.0,0.0,0.0,0.0,0.0,0.0,0.0,0.0,0.0,0.0,0.0,0.0,0.0,0.0,0.0,0.0,0.0,0.0,0.0,0.0,0.0,0.0,0.0,0.0,0.0,0.0,0.0,0.0,0.0,0.0,0.0,0.0,0.0,0.0,0.0,0.0,0.0,0.0,0.0,0.0,0.0,0.0,0.0,0.0,0.0,0.0,0.0,0.0,0.0,0.0,0.0,0.0,0.0,0.0,0.0,0.0,0.0,0.0,0.0,0.0,0.0,0.0,0.0,0.0,0.0,0.0,0.0,0.0,0.0,-5.3835,-5.3634,-5.3803,-5.4379,-5.2097,-5.1296,-5.2139,0.0,0.0,0.0,0.0,0.0,0.0,0.0,0.0,0.0,0.0,0.0,0.0,0.0,0.0,0.0,0.0,0.0,0.0,0.0,0.0,0.0,0.0,0.0,0.0,0.0,0.0,0.0,0.0,0.0,0.0,0.0,0.0,0.0,0.0,0.0,0.0,0.0,0.0,0.0,0.0,0.0,0.0,0.0,0.0,0.0,0.0,0.0,0.0,0.0,0.0,0.0,0.0,0.0,0.0,0.0,0.0,0.0,0.0,0.0,0.0,0.0,0.0,0.0,0.0,0.0,0.0,0.0,0.0,0.0,0.0,0.0,0.0,0.0,0.0,0.0,0.0,0.0,0.0,0.0,0.0,0.0,0.0,0.0,0.0,0.0,0.0,0.0,0.0,0.0,0.0,0.0,0.0,0.0,0.0,0.0,0.0,0.0,0.0,0.0,0.0,0.0,0.0,0.0,0.0,0.0,0.0,0.0,0.0,-5.4406,-5.5426,-5.5012,-5.3195,-5.269,-5.1736,0.0,0.0,0.0,0.0,0.0,0.0,0.0,0.0,0.0,0.0,0.0,0.0,0.0,0.0,0.0,0.0,0.0,0.0,0.0,0.0,0.0,0.0,0.0,0.0,0.0,0.0,0.0,0.0,0.0,0.0,0.0,0.0,0.0,0.0,0.0,0.0,0.0,0.0,0.0,0.0,0.0,0.0,0.0,0.0,0.0,0.0,0.0,0.0,0.0,0.0,0.0,0.0,0.0,0.0,0.0,0.0,0.0,0.0,0.0,0.0,0.0,0.0,0.0,0.0,0.0,0.0,0.0,0.0,0.0,0.0,0.0,0.0,0.0,0.0,0.0,0.0,0.0,0.0,0.0,0.0,0.0,0.0,0.0,0.0,0.0,0.0,0.0,0.0,0.0,0.0,0.0,0.0,0.0,0.0,0.0,0.0,0.0,0.0,0.0,0.0,0.0,0.0,0.0,0.0,0.0,0.0,0.0,0.0,0.0,-5.4644,-5.5212,-5.5364,-5.4864,-5.2434,-5.1517,0.0,0.0,0.0,0.0,0.0,0.0,0.0,0.0,0.0,0.0,0.0,0.0,0.0,0.0,0.0,0.0,0.0,0.0,0.0,0.0,0.0,0.0,0.0,0.0,0.0,0.0,0.0,0.0,0.0,0.0,0.0,0.0,0.0,0.0,0.0,0.0,0.0,0.0,0.0,0.0,0.0,0.0,0.0,0.0,0.0,0.0,0.0,0.0,0.0,0.0,0.0,0.0,0.0,0.0,0.0,0.0,0.0,0.0,0.0,0.0,0.0,0.0,0.0,0.0,0.0,0.0,0.0,0.0,0.0,0.0,0.0,0.0,0.0,0.0,0.0,0.0,0.0,0.0,0.0,0.0,0.0,0.0,0.0,0.0,0.0,0.0,0.0,0.0,0.0,0.0,0.0,0.0,0.0,0.0,0.0,0.0,0.0,0.0,0.0,0.0,0.0,0.0,0.0,0.0,0.0,0.0,0.0,0.0,-5.4826,-5.5499,-5.5463,-5.5543,-5.588,-5.3121,-5.1904,0.0,0.0,0.0,0.0,0.0,0.0,0.0,0.0,0.0,0.0,0.0,0.0,0.0,0.0,0.0,0.0,0.0,0.0,0.0,0.0,0.0,0.0,0.0,0.0,0.0,0.0,0.0,0.0,0.0,0.0,0.0,0.0,0.0,0.0,0.0,0.0,0.0,0.0,0.0,0.0,0.0,0.0,0.0,0.0,0.0,0.0,0.0,0.0,0.0,0.0,0.0,0.0,0.0,0.0,0.0,0.0,0.0,0.0,0.0,0.0,0.0,0.0,0.0,0.0,0.0,0.0,0.0,0.0,0.0,0.0,0.0,0.0,0.0,0.0,0.0,0.0,0.0,0.0,0.0,0.0,0.0,0.0,0.0,0.0,0.0,0.0,0.0,0.0,0.0,0.0,0.0,0.0,0.0,0.0,0.0,0.0,0.0,0.0,0.0,0.0,0.0,0.0,0.0,0.0,0.0,0.0,0.0,0.0,-5.5785,-5.6665,-5.5881,-5.5672,-5.6052,-5.4063,-5.2537,0.0,0.0,0.0,0.0,0.0,0.0,0.0,0.0,0.0,0.0,0.0,0.0,0.0,0.0,0.0,0.0,0.0,0.0,0.0,0.0,0.0,0.0,0.0,0.0,0.0,0.0,0.0,0.0,0.0,0.0,0.0,0.0,0.0,0.0,0.0,0.0,0.0,0.0,0.0,0.0,0.0,0.0,0.0,0.0,0.0,0.0,0.0,0.0,0.0,0.0,0.0,0.0,0.0,0.0,0.0,0.0,0.0,0.0,0.0,0.0,0.0,0.0,0.0,0.0,0.0,0.0,0.0,0.0,0.0,0.0,0.0,0.0,0.0,0.0,0.0,0.0,0.0,0.0,0.0,0.0,0.0,0.0,0.0,0.0,0.0,0.0,0.0,0.0,0.0,0.0,0.0,0.0,0.0,0.0,0.0,0.0,0.0,0.0,0.0,0.0,0.0,0.0,0.0,0.0,0.0,0.0,0.0,0.0,-5.5478,-5.6753,-5.608,-5.5545,-5.5195,-5.3163,-5.2067,0.0,0.0,0.0,0.0,0.0,0.0,0.0,0.0,0.0,0.0,0.0,0.0,0.0,0.0,0.0,0.0,0.0,0.0,0.0,0.0,0.0,0.0,0.0,0.0,0.0,0.0,0.0,0.0,0.0,0.0,0.0,0.0,0.0,0.0,0.0,0.0,0.0,0.0,0.0,0.0,0.0,0.0,0.0,0.0,0.0,0.0,0.0,0.0,-5.9055,0.0,0.0,0.0,0.0,0.0,0.0,0.0,0.0,0.0,0.0,0.0,0.0,0.0,0.0,0.0,0.0,0.0,0.0,0.0,0.0,0.0,0.0,0.0,0.0,0.0,0.0,0.0,0.0,0.0,0.0,0.0,0.0,0.0,0.0,0.0,0.0,0.0,0.0,0.0,0.0,0.0,0.0,0.0,0.0,0.0,0.0,0.0,0.0,0.0,0.0,0.0,0.0,0.0,0.0,0.0,0.0,0.0,0.0,0.0,-5.6508,-5.739,-5.6667,-5.6063,-5.5687,-5.3823,-5.244,0.0,0.0,0.0,0.0,0.0,0.0,0.0,0.0,0.0,0.0,0.0,0.0,0.0,0.0,0.0,0.0,0.0,0.0,0.0,0.0,0.0,0.0,0.0,0.0,0.0,0.0,0.0,0.0,0.0,0.0,0.0,0.0,0.0,0.0,0.0,0.0,0.0,0.0,0.0,0.0,0.0,0.0,0.0,0.0,0.0,0.0,0.0,0.0,0.0,0.0,0.0,0.0,0.0,0.0,0.0,0.0,0.0,0.0,0.0,0.0,0.0,0.0,0.0,0.0,0.0,0.0,0.0,0.0,0.0,0.0,0.0,0.0,0.0,0.0,0.0,0.0,0.0,0.0,0.0,0.0,0.0,0.0,0.0,0.0,0.0,0.0,0.0,0.0,0.0,0.0,0.0,0.0,0.0,0.0,0.0,0.0,0.0,0.0,0.0,0.0,0.0,0.0,0.0,0.0,0.0,0.0,0.0,-5.7512,-5.7664,-5.8289,-5.7295,-5.6697,-5.659,-5.4899,-5.3065,-5.1296,0.0,0.0,0.0,0.0,0.0,0.0,0.0,0.0,0.0,0.0,0.0,0.0,0.0,0.0,0.0,0.0,0.0,0.0,0.0,0.0,0.0,0.0,0.0,0.0,0.0,0.0,0.0,0.0,0.0,0.0,0.0,0.0,0.0,0.0,0.0,0.0,0.0,0.0,-5.6388,-5.6769,0.0,0.0,0.0,0.0,0.0,0.0,0.0,0.0,-5.7445,0.0,0.0,0.0,0.0,0.0,0.0,0.0,0.0,0.0,0.0,0.0,0.0,0.0,0.0,0.0,0.0,0.0,0.0,0.0,0.0,0.0,0.0,0.0,0.0,0.0,0.0,0.0,0.0,0.0,0.0,0.0,0.0,0.0,0.0,0.0,0.0,0.0,0.0,0.0,0.0,0.0,0.0,0.0,0.0,0.0,0.0,0.0,0.0,0.0,0.0,0.0,0.0,0.0,0.0,0.0,0.0,-5.8754,-5.7253,-5.7259,-5.8879,-5.7656,-5.6677,-5.6197,-5.4879,-5.3217,-5.1262,0.0,0.0,0.0,0.0,0.0,0.0,0.0,0.0,0.0,0.0,0.0,0.0,0.0,0.0,0.0,0.0,0.0,0.0,0.0,0.0,0.0,0.0,0.0,0.0,0.0,0.0,0.0,0.0,0.0,0.0,0.0,0.0,0.0,0.0,0.0,0.0,0.0,0.0,0.0,-5.6921,-5.6675,0.0,0.0,0.0,0.0,0.0,0.0,0.0,0.0,-5.6937,0.0,0.0,0.0,0.0,0.0,0.0,0.0,0.0,0.0,0.0,0.0,0.0,0.0,0.0,0.0,0.0,0.0,0.0,0.0,0.0,0.0,0.0,0.0,0.0,0.0,0.0,0.0,0.0,0.0,0.0,0.0,0.0,0.0,0.0,0.0,0.0,0.0,0.0,0.0,0.0,0.0,0.0,0.0,0.0,0.0,0.0,0.0,0.0,0.0,0.0,0.0,0.0,0.0,0.0,0.0,-5.8233,-5.8081,-5.8463,-5.9524,-5.8199,-5.7171,-5.6584,-5.4853,-5.3114,0.0,0.0,0.0,0.0,0.0,0.0,0.0,0.0,0.0,0.0,0.0,0.0,0.0,0.0,0.0,0.0,0.0,0.0,0.0,0.0,0.0,0.0,0.0,0.0,0.0,0.0,0.0,0.0,0.0,0.0,0.0,0.0,0.0,0.0,0.0,0.0,0.0,0.0,0.0,0.0,-5.6123,-5.5879,-5.6251,0.0,0.0,0.0,0.0,0.0,0.0,-5.575,-5.5468,0.0,0.0,0.0,0.0,0.0,0.0,0.0,0.0,0.0,0.0,0.0,0.0,0.0,0.0,0.0,0.0,0.0,0.0,0.0,0.0,0.0,0.0,0.0,0.0,0.0,0.0,0.0,0.0,0.0,0.0,0.0,0.0,0.0,0.0,0.0,0.0,0.0,0.0,0.0,0.0,0.0,0.0,0.0,0.0,0.0,0.0,0.0,0.0,0.0,0.0,0.0,0.0,0.0,0.0,0.0,-5.7389,-5.8369,-5.9154,-5.9671,-5.8591,-5.7595,-5.6877,-5.4956,-5.3153,0.0,0.0,0.0,0.0,0.0,0.0,0.0,0.0,0.0,0.0,0.0,0.0,0.0,0.0,0.0,0.0,0.0,0.0,0.0,0.0,0.0,0.0,0.0,0.0,0.0,0.0,0.0,0.0,0.0,0.0,0.0,0.0,0.0,0.0,0.0,0.0,0.0,0.0,0.0,0.0,0.0,-5.5246,-5.5976,-5.4707,0.0,0.0,0.0,0.0,-5.483,-5.4751,0.0,0.0,0.0,0.0,0.0,0.0,0.0,0.0,0.0,0.0,0.0,0.0,0.0,0.0,0.0,0.0,0.0,0.0,0.0,0.0,0.0,0.0,0.0,0.0,0.0,0.0,0.0,0.0,0.0,0.0,0.0,0.0,0.0,0.0,0.0,0.0,0.0,0.0,0.0,0.0,0.0,0.0,0.0,0.0,0.0,0.0,0.0,0.0,0.0,0.0,0.0,0.0,0.0,0.0,0.0,0.0,-5.6182,-5.6612,-5.7517,-5.8761,-5.843,-5.7652,-5.6569,-5.5241,-5.3569,0.0,0.0,0.0,0.0,0.0,0.0,0.0,0.0,0.0,0.0,0.0,0.0,0.0,0.0,0.0,0.0,0.0,0.0,0.0,0.0,0.0,0.0,0.0,0.0,0.0,0.0,0.0,0.0,0.0,0.0,0.0,0.0,0.0,0.0,0.0,0.0,0.0,0.0,0.0,0.0,0.0,-5.5222,-5.4051,-5.4272,-5.4437,0.0,0.0,-5.5929,-5.6202,-5.6367,0.0,0.0,0.0,0.0,0.0,0.0,0.0,0.0,0.0,0.0,0.0,0.0,0.0,0.0,0.0,0.0,0.0,0.0,0.0,0.0,0.0,0.0,0.0,0.0,0.0,0.0,0.0,0.0,0.0,0.0,0.0,0.0,0.0,0.0,0.0,0.0,0.0,0.0,0.0,0.0,0.0,0.0,0.0,0.0,0.0,0.0,0.0,0.0,0.0,0.0,0.0,0.0,0.0,0.0,0.0,-5.4609,-5.5881,-5.7114,-5.8191,-5.9153,-5.8901,-5.8164,-5.7003,-5.4961,-5.2942,0.0,0.0,0.0,0.0,0.0,0.0,0.0,0.0,0.0,0.0,0.0,0.0,0.0,0.0,0.0,0.0,0.0,0.0,0.0,0.0,0.0,0.0,0.0,0.0,0.0,0.0,0.0,0.0,0.0,0.0,0.0,0.0,0.0,0.0,0.0,0.0,0.0,0.0,0.0,0.0,0.0,0.0,-5.3355,-5.3227,0.0,0.0,0.0,-5.4235,-5.4036,0.0,0.0,0.0,0.0,0.0,0.0,0.0,0.0,0.0,0.0,0.0,0.0,0.0,0.0,0.0,0.0,0.0,0.0,0.0,0.0,0.0,0.0,0.0,0.0,0.0,0.0,0.0,0.0,0.0,0.0,0.0,0.0,0.0,0.0,0.0,0.0,0.0,0.0,0.0,0.0,0.0,0.0,0.0,0.0,0.0,0.0,0.0,0.0,0.0,0.0,0.0,0.0,0.0,0.0,0.0,0.0,0.0,-5.5069,-5.709,-5.8481,-5.8991,-5.8806,-5.8193,-5.7171,-5.466,0.0,0.0,0.0,0.0,0.0,0.0,0.0,0.0,0.0,0.0,0.0,0.0,0.0,0.0,0.0,0.0,0.0,0.0,0.0,0.0,0.0,0.0,0.0,0.0,0.0,0.0,0.0,-4.2637,0.0,0.0,0.0,0.0,0.0,0.0,0.0,0.0,0.0,0.0,0.0,0.0,0.0,0.0,-5.265,-5.281,-5.2483,-5.2302,0.0,0.0,-5.2807,-5.243,-5.2745,-5.2479,0.0,0.0,0.0,0.0,0.0,0.0,0.0,0.0,0.0,0.0,0.0,0.0,0.0,0.0,0.0,0.0,0.0,0.0,0.0,0.0,0.0,0.0,0.0,0.0,0.0,0.0,0.0,0.0,-5.001,-5.001,0.0,0.0,0.0,0.0,0.0,0.0,0.0,0.0,0.0,0.0,0.0,0.0,0.0,0.0,0.0,0.0,0.0,0.0,0.0,0.0,0.0,0.0,0.0,0.0,-5.3102,-5.3438,-5.5555,-5.6932,-5.7498,-5.7523,-5.7241,-5.6502,-5.4567,-5.2573,0.0,0.0,0.0,0.0,0.0,0.0,0.0,0.0,0.0,0.0,0.0,0.0,0.0,0.0,0.0,0.0,0.0,0.0,0.0,0.0,0.0,0.0,0.0,0.0,0.0,0.0,0.0,0.0,0.0,0.0,0.0,0.0,0.0,0.0,0.0,0.0,0.0,0.0,0.0,0.0,0.0,-5.1425,-5.1883,-5.235,-5.2495,0.0,-5.2606,-5.29,-5.301,-5.3699,-5.3198,-5.0101,0.0,0.0,0.0,0.0,0.0,0.0,0.0,0.0,0.0,0.0,0.0,0.0,0.0,0.0,0.0,0.0,0.0,0.0,0.0,0.0,0.0,0.0,0.0,0.0,0.0,-4.9572,-5.001,0.0,-5.001,0.0,0.0,0.0,0.0,0.0,0.0,0.0,0.0,0.0,0.0,0.0,0.0,0.0,0.0,0.0,0.0,0.0,0.0,0.0,0.0,0.0,0.0,0.0,0.0,-5.2347,-5.2568,-5.4284,-5.5757,-5.6775,-5.7098,-5.7041,-5.6687,-5.5037,-5.2929,0.0,0.0,0.0,0.0,0.0,0.0,0.0,0.0,0.0,0.0,0.0,0.0,0.0,0.0,0.0,0.0,0.0,0.0,0.0,0.0,0.0,0.0,0.0,0.0,0.0,0.0,0.0,0.0,-4.0832,-4.0898,-4.2066,0.0,0.0,0.0,0.0,0.0,0.0,0.0,0.0,0.0,0.0,-4.9431,-4.999,-5.0998,0.0,0.0,-5.1895,-5.2285,-5.1627,-5.1675,-5.0961,-4.8458,-4.7894,0.0,0.0,0.0,0.0,0.0,0.0,0.0,0.0,0.0,0.0,0.0,0.0,0.0,0.0,0.0,0.0,0.0,0.0,0.0,0.0,0.0,0.0,0.0,0.0,0.0,0.0,-4.971,-4.971,0.0,0.0,0.0,0.0,0.0,0.0,0.0,0.0,0.0,0.0,0.0,0.0,0.0,0.0,0.0,0.0,0.0,0.0,0.0,0.0,0.0,0.0,0.0,0.0,-5.1556,-5.1501,-5.3179,-5.4631,-5.5723,-5.603,-5.6045,-5.5906,-5.4473,-5.2416,0.0,0.0,0.0,0.0,0.0,0.0,0.0,0.0,0.0,0.0,0.0,0.0,0.0,0.0,0.0,0.0,0.0,0.0,0.0,0.0,0.0,0.0,0.0,0.0,0.0,0.0,0.0,0.0,-4.0326,-4.0569,-4.1649,0.0,0.0,0.0,0.0,0.0,0.0,0.0,0.0,0.0,0.0,-4.7898,-4.878,-4.9966,-5.0689,-5.0272,-5.0922,-5.1136,-5.0194,-5.0243,-4.9713,-4.7658,0.0,0.0,0.0,0.0,0.0,0.0,0.0,0.0,0.0,0.0,0.0,0.0,0.0,0.0,0.0,0.0,0.0,0.0,0.0,0.0,0.0,0.0,0.0,0.0,0.0,0.0,0.0,-4.9035,0.0,0.0,-5.1091,0.0,0.0,0.0,0.0,0.0,0.0,0.0,0.0,0.0,0.0,0.0,0.0,0.0,0.0,0.0,0.0,0.0,0.0,0.0,0.0,0.0,0.0,-5.0616,-5.0177,-5.2139,-5.3521,-5.4038,-5.4038,-5.4116,-5.4046,-5.2489,-5.0727,-4.8606,0.0,0.0,0.0,0.0,0.0,0.0,0.0,0.0,0.0,0.0,0.0,0.0,0.0,0.0,0.0,0.0,0.0,0.0,0.0,0.0,0.0,0.0,0.0,0.0,0.0,0.0,-4.2005,-4.1049,-4.0123,0.0,0.0,0.0,0.0,0.0,0.0,0.0,0.0,0.0,-4.3014,-4.4887,-4.6914,-4.8591,-4.9582,-5.0001,-4.9859,-4.9756,-4.949,-4.8937,-4.9948,-5.0168,0.0,0.0,0.0,0.0,0.0,0.0,0.0,0.0,0.0,0.0,0.0,0.0,0.0,0.0,0.0,0.0,0.0,0.0,0.0,0.0,0.0,0.0,0.0,0.0,0.0,0.0,0.0,-4.7798,-4.7543,0.0,0.0,0.0,0.0,0.0,0.0,0.0,0.0,0.0,0.0,0.0,-4.5205,-4.4784,0.0,0.0,0.0,0.0,0.0,0.0,0.0,0.0,0.0,0.0,0.0,0.0,-4.9056,-4.9455,-5.0119,-5.1087,-5.2436,-5.2786,-5.3034,-5.3177,-5.2408,-5.0181,-4.6585,0.0,0.0,0.0,0.0,0.0,0.0,0.0,0.0,0.0,0.0,0.0,0.0,0.0,0.0,0.0,0.0,0.0,0.0,0.0,0.0,0.0,0.0,0.0,0.0,0.0,-3.9636,0.0,0.0,0.0,0.0,0.0,0.0,0.0,0.0,0.0,0.0,-4.1604,-4.2002,-4.2609,-4.3759,-4.5002,-4.6234,-4.7538,-4.8404,0.0,0.0,0.0,0.0,0.0,0.0,0.0,0.0,0.0,0.0,0.0,0.0,0.0,-5.1005,-5.1736,-5.0032,-4.9583,-4.9747,-5.0601,0.0,0.0,0.0,0.0,0.0,0.0,0.0,0.0,0.0,0.0,0.0,0.0,0.0,0.0,-4.7302,-4.7138,-4.6814,0.0,0.0,0.0,0.0,0.0,0.0,0.0,0.0,-4.5476,-4.4923,-4.52,-4.5147,-4.4723,-4.4082,-4.4411,-4.4567,0.0,0.0,0.0,0.0,0.0,0.0,0.0,0.0,-4.8157,-4.8673,-4.9003,-4.9884,-5.1179,-5.1558,-5.1822,-5.1966,-5.1013,-4.8903,-4.5502,-4.3458,-4.1422,0.0,0.0,0.0,0.0,0.0,0.0,0.0,0.0,0.0,0.0,0.0,0.0,0.0,0.0,0.0,0.0,0.0,0.0,0.0,0.0,0.0,0.0,0.0,-3.7816,0.0,0.0,0.0,0.0,0.0,0.0,0.0,0.0,0.0,-4.0568,-4.0911,-4.155,-4.2357,-4.339,-4.4316,-4.5218,0.0,0.0,0.0,0.0,0.0,0.0,0.0,-4.7569,-4.6753,-4.6689,-4.6843,-4.7068,-4.8631,-5.0017,-5.0518,0.0,0.0,-5.0018,-4.9696,-4.9809,-5.0421,-5.0773,-5.0978,-5.0951,-5.142,-5.1813,0.0,0.0,0.0,0.0,-4.6977,0.0,0.0,0.0,-4.705,-4.7286,0.0,-4.6815,0.0,0.0,0.0,0.0,-4.6011,-4.6334,0.0,0.0,-4.6003,-4.6309,-4.6329,-4.6646,-4.6626,-4.6329,-4.6249,-4.5546,-4.4401,-4.4044,0.0,0.0,0.0,0.0,0.0,0.0,-4.7878,-4.7838,-4.9016,-4.9848,-5.0379,-5.04,-5.04,-5.0336,-4.8595,-4.7002,-4.5579,-4.3807,-4.1917,-3.9674,-3.9421,0.0,0.0,0.0,0.0,0.0,0.0,0.0,0.0,0.0,0.0,0.0,0.0,0.0,0.0,0.0,0.0,0.0,0.0,0.0,0.0,-3.7234,0.0,0.0,0.0,0.0,0.0,0.0,0.0,0.0,0.0,-3.8885,-3.9199,-4.0392,-4.1418,-4.209,0.0,0.0,0.0,0.0,-4.6725,-4.6601,-4.6932,-4.7051,-4.6565,-4.7935,-4.8469,-4.6981,0.0,0.0,-4.7633,-4.8324,-4.916,-4.9133,-5.0116,-5.1114,-5.2425,-5.1632,-5.0926,-5.1207,-5.1122,-5.0871,-5.0957,-5.1796,-5.2318,-4.8961,0.0,0.0,0.0,0.0,-4.8146,-4.8174,-4.9025,-4.7571,-4.6694,-4.6173,-4.5657,0.0,0.0,0.0,0.0,0.0,0.0,-4.589,-4.6349,-4.6041,-4.6161,-4.6803,-4.6892,-4.6872,-4.6803,-4.6141,-4.5639,-4.5205,-4.4479,-4.428,-4.4551,0.0,0.0,0.0,0.0,-4.7444,-4.7942,-4.854,-4.9027,-4.9465,-4.9486,-4.9486,-4.9486,-4.8336,-4.701,-4.5649,-4.4177,-4.2546,-4.0726,-3.9658,0.0,0.0,0.0,0.0,0.0,0.0,0.0,0.0,0.0,0.0,0.0,0.0,0.0,0.0,0.0,0.0,0.0,0.0,0.0,-3.6534,-3.5689,-3.555,0.0,0.0,0.0,0.0,0.0,0.0,0.0,0.0,0.0,-4.0,-4.0606,-4.1162,0.0,0.0,-4.2761,-4.3594,-4.4156,-4.4663,-4.5227,-4.5933,0.0,-4.6016,-4.6382,-4.674,-4.6883,-4.7976,-4.8776,-4.8827,-4.9555,-5.035,-5.0862,-5.1725,-5.237,-5.2521,-5.2464,-5.2232,-5.2282,-5.2145,-5.2003,-5.2003,-5.2164,-5.2227,-5.1099,-4.9741,-4.8831,-4.9064,-4.9934,-4.841,-4.8338,-4.9259,-4.7772,-4.6992,-4.6631,-4.6041,-4.5694,-4.5548,-4.4496,0.0,0.0,0.0,-4.6084,-4.6841,-4.6528,-4.6836,-4.7425,-4.759,-4.764,-4.7406,-4.6973,-4.6492,-4.614,-4.5639,-4.5145,-4.4795,0.0,-4.5427,-4.598,-4.6927,-4.7618,-4.8085,-4.8463,-4.879,-4.9059,-4.8887,-4.8716,-4.8544,-4.7793,-4.6831,-4.5779,-4.4683,-4.3253,-4.1406,-4.0218,-3.9174,0.0,0.0,0.0,0.0,0.0,0.0,0.0,0.0,0.0,0.0,0.0,-3.8169,-3.8335,0.0,0.0,0.0,-3.7647,-3.6865,-3.5639,-3.5303,0.0,0.0,0.0,0.0,0.0,0.0,0.0,-3.7383,-3.8635,-3.9746,-4.0417,-4.0793,-4.1283,-4.2072,-4.2112,-4.2365,-4.2858,0.0,-4.3736,-4.4235,-4.488,-4.5298,-4.5388,-4.5618,-4.6184,-4.7151,-4.7736,-4.8377,-4.8957,-4.9437,-5.0056,-5.1071,-5.1702,-5.2159,-5.2614,-5.2935,-5.2924,-5.2645,-5.2608,-5.2658,-5.2632,-5.2627,-5.2592,-5.2723,-5.1771,-4.9615,-4.8942,-4.9138,-4.8209,-4.8056,-4.8337,-4.7902,-4.7929,-4.825,-4.7392,-4.6761,-4.6352,-4.5559,0.0,-4.5281,-4.6016,-4.6607,-4.6992,-4.7422,-4.7832,-4.8203,-4.8613,-4.8594,-4.8203,-4.8183,-4.7754,-4.6973,-4.7021,-4.6583,-4.5732,-4.5595,-4.5774,-4.6087,-4.7367,-4.8061,-4.8275,-4.8709,-4.8973,-4.8973,-4.8544,-4.8113,-4.7641,-4.7153,-4.653,-4.5667,-4.5165,-4.396,-4.1895,-4.0946,-3.9668,-3.8184,0.0,0.0,0.0,0.0,0.0,0.0,0.0,0.0,0.0,0.0,0.0,0.0,0.0,0.0,-3.5656,-3.5792,0.0,-3.546,-3.575,0.0,0.0,0.0,-3.6337,-3.6803,-3.722,-3.7769,-3.856,0.0,0.0,-4.049,-4.0976,-4.1697,-4.2758,-4.2871,-4.2871,-4.2927,-4.3213,-4.3462,-4.3539,-4.3919,-4.4298,-4.4762,-4.5415,-4.6285,-4.7287,-4.7721,-4.7941,-4.8305,-4.8523,-4.9101,-5.0269,-5.0553,-5.1047,-5.256,-5.306,-5.3148,-5.2491,-5.2605,-5.2815,-5.2777,-5.2958,-5.3046,-5.3364,-5.2785,-5.1907,-5.0984,-5.008,-4.9478,-4.9232,-4.9241,-4.8788,-4.8468,-4.8232,-4.773,-4.7209,-4.6828,-4.7061,-4.7115,-4.7117,-4.7304,-4.7376,-4.7441,-4.7871,-4.8105,-4.8223,-4.832,-4.8301,-4.8183,-4.7891,-4.7617,-4.7422,-4.7413,-4.717,-4.664,-4.6922,-4.6595,-4.5778,-4.6756,-4.7433,-4.7809,-4.7935,-4.8047,-4.8047,-4.7961,-4.7606,-4.7178,-4.6735,-4.6106,-4.5231,-4.4474,-4.3417,-4.2309,-4.0791,-3.979,-3.9414,-3.7778,0.0,0.0,0.0,0.0,0.0,0.0,0.0,0.0,0.0,-3.6426,-3.601,0.0,-3.5782,0.0,-3.5239,-3.5429,-3.6271,-3.6169,0.0,0.0,-3.7005,-3.7378,-3.807,-3.7963,-3.8173,-3.8969,-3.9565,-4.0183,-4.0917,-4.1425,-4.1719,-4.2033,-4.1835,-4.1715,-4.2005,-4.2159,-4.2467,-4.3004,-4.3462,-4.3919,-4.4277,-4.5031,-4.5779,-4.6299,-4.6891,-4.7479,-4.7868,-4.8644,-4.9365,-4.9723,-5.0269,-5.0906,-5.1911,-5.2119,-5.2347,-5.2689,-5.2919,-5.2991,-5.2841,-5.2582,-5.2244,-5.2915,-5.2486,-5.2036,-5.1148,-5.0045,-4.9975,-4.9933,-4.9879,-4.934,-4.8906,-4.8457,-4.8047,-4.7867,-4.7879,-4.7749,-4.7908,-4.8236,-4.8057,-4.8005,-4.8144,-4.8379,-4.8496,-4.8496,-4.8496,-4.8496,-4.8476,-4.8262,-4.8047,-4.7871,-4.7871,-4.7656,-4.7226,-4.7494,-4.7267,-4.6531,-4.7221,-4.7707,-4.7966,-4.7768,-4.7615,-4.7354,-4.7354,-4.7048,-4.6438,-4.6161,-4.5582,-4.4517,-4.3847,-4.3035,-4.2148,-4.0625,-3.9749,-3.9542,-3.8108,-3.7086,0.0,0.0,0.0,0.0,0.0,0.0,0.0,0.0,0.0,0.0,0.0,-3.636,-3.6232,-3.6413,-3.661,-3.6967,-3.7275,-3.7577,-3.7671,-3.784,-3.8255,-3.9087,-3.8804,-3.888,-3.9683,-3.9874,-4.0257,-4.1048,-4.1401,-4.156,-4.1797,-4.1601,-4.1465,-4.1502,-4.1695,-4.2005,-4.239,-4.2927,-4.3539,-4.4125,-4.4579,-4.5106,-4.5853,-4.6374,-4.6891,-4.7648,-4.8282,-4.8861,-4.9437,-4.9866,-5.034,-5.1117,-5.1632,-5.198,-5.2302,-5.2747,-5.2953,-5.2766,-5.2013,-5.1459,-5.2127,-5.1665,-5.1262,-5.0523,-4.9696,-5.0062,-5.0154,-4.9991,-4.9556,-4.9126,-4.8736,-4.8516,-4.8724,-4.9029,-4.8362,-4.8401,-4.912,-4.8724,-4.8738,-4.894,-4.9018,-4.8926,-4.8848,-4.8848,-4.8848,-4.8848,-4.8848,-4.8672,-4.8301,-4.8281,-4.8066,-4.7676,-4.7656,-4.7656,-4.7727,-4.8087,-4.8202,-4.8082,-4.7869,-4.7494,-4.6999,-4.6999,-4.6588,-4.5789,-4.5566,-4.4922,-4.3609,-4.3141,-4.2576,-4.1755,-4.051,-3.9759,-3.9357,-3.8481,-3.7801,0.0,-3.7312,0.0,0.0,0.0,0.0,0.0,0.0,0.0,0.0,-3.6485,-3.6899,-3.7442,-3.8123,-3.831,-3.7725,-3.8539,-3.9007,-3.8415,-3.8735,-3.9271,-3.999,-3.9699,-3.9774,-4.0391,-4.0135,-4.0227,-4.1024,-4.1183,-4.1382,-4.1718,-4.1777,-4.1621,-4.1328,-4.1463,-4.1793,-4.191,-4.2625,-4.353,-4.4023,-4.4188,-4.4504,-4.548,-4.5853,-4.6299,-4.7332,-4.7648,-4.8064,-4.8933,-4.9221,-4.9509,-5.0269,-5.0976,-5.1467,-5.1607,-5.209,-5.2459,-5.2421,-5.166,-5.1242,-5.2409,-5.1685,-5.1584,-5.0988,-5.0154,-4.9879,-4.9236,-4.8517,-4.8409,-4.8316,-4.8331,-4.9326,-4.971,-4.9576,-5.0116,-5.0297,-5.0054,-5.0323,-5.0138,-4.942,-4.9404,-4.9199,-4.8867,-4.8848,-4.8848,-4.8848,-4.8848,-4.8808,-4.873,-4.873,-4.8516,-4.8105,-4.8086,-4.8086,-4.8086,0.0,0.0,0.0,-4.783,-4.779,-4.7013,-4.6905,-4.6533,-4.5703,-4.5,0.0,-4.277,-4.2307,-4.1756,-4.1242,-4.0382,0.0,0.0,0.0,0.0,0.0,0.0,0.0,0.0,0.0,0.0,0.0,-3.7564,-3.7625,-3.6793,-3.6738,-3.7221,-3.8236,-3.8247,-3.8328,-3.884,-3.9025,-3.932,-3.951,-4.0226,-4.0721,-4.0832,-4.0804,-4.0697,-4.0493,-4.0175,-4.0165,-4.0948,-4.1116,-4.1303,-4.1698,-4.1797,-4.1621,-4.123,-4.125,-4.1678,-4.2677,-4.3396,-4.3999,-4.4251,-4.3919,-4.3919,-4.4504,-4.5106,-4.5704,-4.6299,-4.6891,-4.7281,-4.7699,-4.7918,-4.8354,-4.9126,-4.9628,-5.0198,-5.0694,-5.0871,-5.1097,-5.1766,-5.1768,-5.1569,-5.1507,-5.0912,-5.0694,-5.0218,0.0,-4.9328,-4.8892,-4.8454,-4.8734,-4.8827,-4.8827,-4.9365,-4.9618,-4.9604,-4.9584,-4.9604,-4.9604,-4.938,-4.9082,-4.8887,-4.8823,-4.8803,-4.8848,-4.8848,-4.8848,-4.8848,-4.8848,-4.8848,-4.8848,-4.8848,-4.875,-4.8535,-4.8535,-4.8535,-4.8516,-4.832,-4.7891,-4.7266,-4.7533,-4.7317,-4.6641,-4.6621,-4.6221,-4.5338,-4.4698,0.0,0.0,0.0,0.0,0.0,0.0,0.0,0.0,-3.9463,0.0,-3.8998,-3.855,-3.8158,-3.7741,-3.8089,-3.8236,-3.8053,-3.8768,-3.8884,-3.801,-3.78,-3.8135,-3.9119,-3.9043,-3.9086,-3.9468,-3.9693,-3.9921,-4.0161,-4.0347,-4.0594,-4.0724,-4.0428,-4.0114,-3.9945,-3.951,-3.9523,-4.009,-4.0626,-4.089,-4.113,-4.1522,-4.1641,-4.1269,-4.1172,-4.1581,-4.2304,-4.2712,-4.3197,-4.3562,-4.3495,-4.3539,-4.4146,-4.4525,-4.5106,-4.5853,-4.6299,-4.6743,-4.7112,-4.7355,-4.7653,-4.7912,-4.8604,-4.9201,-4.9391,-4.9977,-5.0343,-5.0573,-5.0888,-5.1371,-5.072,-5.044,-4.9973,-4.9429,-4.9052,-4.911,-4.9087,-4.8969,-4.9328,0.0,0.0,-4.9141,-4.9203,-4.94,-4.8682,-4.859,-4.8959,-4.828,-4.8187,-4.8331,-4.8486,-4.8633,-4.8867,-4.8848,-4.8848,-4.8848,-4.8848,-4.8848,-4.8848,-4.8848,-4.8848,-4.8848,-4.8848,-4.8848,-4.8828,-4.8496,-4.8105,-4.7605,-4.7176,-4.6747,-4.6338,-4.6338,-4.5861,-4.5,-4.4482,-4.3613,-4.2451,-4.1688,-4.121,-4.1053,-4.0409,-4.0173,-4.0432,-4.0132,-3.9913,-3.9913,-3.9913,-3.9766,-3.9373,-3.941,-3.9483,-3.9538,-3.9795,-3.9858,-3.9373,-3.9043,-3.9171,-3.9887,-4.0042,-4.006,-4.0134,-4.0363,-4.0603,-4.0581,-4.0272,-4.0253,-4.0382,-3.994,-3.9613,-3.9403,-3.9025,-3.8909,-3.944,-4.0005,-4.0439,-4.0566,-4.121,-4.1582,-4.1367,-4.1406,-4.164,-4.1971,-4.2244,-4.2396,-4.2819,-4.2912,-4.3177,-4.3843,-4.405,-4.4504,-4.533,-4.5779,-4.6077,-4.6522,-4.6773,-4.6866,-4.6911,-4.7607,-4.8185,-4.7889,-4.8944,-4.9768,-4.9307,-4.9752,-5.061,-5.1359,-5.1497,-5.0927,-5.0244,-4.9532,-4.9908,-4.9826,-4.9363,-4.943,-4.9202,-4.8949,-4.9266,-4.9219,-4.9032,-4.9216,-4.942,-4.9552,-5.0097,-5.0038,-4.9367,-4.9742,-4.9496,-4.8867,-4.8848,-4.8848,-4.8848,-4.8848,-4.8848,-4.8848,-4.8848,-4.8848,-4.8848,-4.8848,-4.8848,-4.8848,-4.8789,-4.8371,-4.7578,-4.7515,-4.7106,-4.6234,-4.6215,-4.5757,-4.4983,-4.4117,-4.3235,-4.2358,-4.2227,-4.1835,-4.1165,-4.1008,-4.0759,-4.0483,-4.0152,-3.9913,-3.9913,-3.9913,-3.9895,-3.9777,-4.0088,-4.0437,-4.0749,-4.0547,-4.0198,-3.9877,-3.9785,-3.995,-4.0345,-4.0363,-4.0529,-4.0924,-4.0932,-4.1016,-4.1008,-4.0925,-4.0801,-4.0528,-4.0316,-4.0111,-3.9714,-3.9394,-3.9295,-3.964,-3.9851,-4.0154,-4.047,-4.0938,-4.125,-4.1328,-4.1876,-4.2308,-4.2426,-4.2719,-4.2953,-4.291,-4.2668,-4.2718,-4.3081,-4.3462,-4.3919,-4.4504,-4.4762,-4.5063,-4.5181,-4.5496,-4.5713,-4.6014,-4.6134,-4.6514,-4.6897,-4.7394,-4.7819,-4.8404,-4.9103,-4.9631,-5.1583,-5.1685,-5.1123,-5.057,-4.9991,-5.0152,-5.0097,-4.9883,-4.9889,-4.9408,-4.892,-4.9067,-4.9043,-4.8867,-4.8775,-4.8775,-4.8794,-4.8904,-4.8959,-4.8814,-4.8998,-4.8978,-4.8887,-4.8848,-4.8848,-4.8848,-4.8848,-4.8848,-4.8848,-4.859,-4.859,-4.8848,-4.8848,-4.859,-4.8107,-4.808,-4.766,-4.6782,-4.7044,-4.6735,-4.5865,-4.5636,-4.518,-4.4548,-4.3928,-4.3273,-4.2673,-4.2451,-4.2162,-4.1806,-4.1806,-4.1537,-4.1152,-4.095,-4.0832,-4.0612,-4.0593,-4.051,-4.0593,-4.0675,-4.0877,-4.1126,-4.0895,-4.0712,-4.0612,-4.0391,-4.0363,-4.073,-4.0602,-4.0639,-4.1024,-4.106,-4.106,-4.106,-4.0944,-4.062,-4.0232,-3.9955,-3.9597,-3.9246,-3.8995,-3.8995,-3.9172,-3.964,-3.9921,-4.0216,-4.0763,-4.1172,-4.1172,-4.1484,-4.1778,-4.1778,-4.1934,-4.2148,-4.2381,-4.2222,-4.2333,-4.2927,-4.3157,-4.3539,-4.4029,-4.4205,-4.4271,-4.4645,-4.472,-4.4789,-4.5157,-4.5442,-4.5523,-4.5492,-4.6184,-4.6721,-4.7073,-4.7632,-4.8463,-5.2023,-5.2161,-5.1529,-5.0993,-5.0426,-5.0099,-5.0141,-5.0156,-5.0078,-4.9707,-4.9199,-4.9062,-4.9004,-4.9004,-4.8463,-4.8312,-4.8239,-4.7963,-4.8037,-4.8239,-4.8335,-4.8594,-4.8867,-4.8848,-4.8848,-4.8848,-4.8848,-4.8848,-4.8848,-4.8312,-4.8312,-4.8682,-4.8848,-4.8405,-4.7569,-4.7615,-4.714,-4.6193,-4.6352,-4.6157,-4.5215,-4.4876,-4.4548,-4.4086,-4.37,-4.3357,-4.3074,-4.2711,-4.2509,-4.2417,-4.2417,-4.2234,-4.1849,-4.1739,-4.1537,-4.1225,-4.1115,-4.106,-4.106,-4.106,-4.106,-4.106,-4.106,-4.1145,-4.1042,-4.0869,-4.073,-4.0969,-4.0785,-4.0749,-4.1005,-4.106,-4.106,-4.1126,-4.0712,-4.0373,-3.9968,-3.9483,-3.908,-3.8652,-3.864,-3.8658,-3.8719,-3.9351,-3.9981,-4.0294,-4.0782,-4.1172,-4.1172,-4.1172,-4.1172,-4.1172,-4.1172,-4.1347,-4.1618,-4.1638,-4.2005,-4.2697,-4.2851,-4.3233,-4.3705,-4.3736,-4.3665,-4.4196,-4.4134,-4.4049,-4.4133,-4.4373,-4.4495,-4.4457,-4.4942,-4.547,-4.5777,-4.6473,-4.7371,-5.3129,-5.3382,-5.2609,-5.1715,-5.0868,-4.9979,-4.986,-5.0098,-4.9766,-4.9785,-5.0,-4.9629,-4.9473,-4.9414,-4.9043,-4.8775,-4.8794,-4.9184,-4.9052,-4.8833,-4.9184,-4.9258,-4.8867,-4.8848,-4.8848,-4.8848,-4.8848,-4.8848,-4.8867,-4.8312,-4.8146,-4.8219,-4.8682,-4.859,-4.8034,-4.7995,-4.7395,-4.6075,-4.5682,-4.5122,-4.4394,-4.43,-4.4015,-4.3589,-4.3552,-4.3515,-4.3408,-4.3408,-4.3206,-4.2858,-4.2821,-4.2637,-4.2252,-4.1886,-4.1684,-4.161,-4.1262,-4.106,-4.106,-4.106,-4.106,-4.106,-4.106,-4.106,-4.106,-4.1024,-4.1005,-4.1126,-4.1024,-4.1005,-4.1145,-4.106,-4.106,-4.1126,-4.073,-4.0308,-4.0005,-3.9483,-3.908,-3.8695,-3.8579,-3.864,-3.8719,-3.9351,-4.0156,-4.0782,-4.1016,-4.1172,-4.1172,-4.1172,-4.1172,-4.1172,-4.1172,-4.1152,-4.121,-4.125,-4.1578,-4.2253,-4.2427,-4.281,-4.3304,-4.3608,-4.3546,-4.3523,-4.338,-4.3426,-4.3257,-4.3022,-4.3271,-4.3763,-4.3921,-4.3911,-4.5155,-4.5914,-4.661,-5.3296,-5.3746,-5.3071,-5.1905,-5.0577,-5.0072,-4.989,-4.9785,-4.9883,-5.0156,-5.0508,-5.0351,-5.0019,-4.9531,-4.9336,-4.9121,-4.8887,-4.9043,-4.9043,-4.8887,-4.9062,-4.9023,-4.8867,-4.8848,-4.8848,-4.8848,-4.8848,-4.8755,-4.8405,-4.7941,-4.7401,-4.6916,-4.7569,-4.7569,-4.6897,-4.6877,-4.6353,-4.5298,-4.48,-4.432,-4.3822,-4.3767,-4.3678,-4.3499,-4.3481,-4.3481,-4.3481,-4.3481,-4.3408,-4.3243,-4.3243,-4.3041,-4.2637,-4.2472,-4.2179,-4.1721,-4.1299,-4.106,-4.106,-4.106,-4.106,-4.106,-4.106,-4.106,-4.106,-4.106,-4.106,-4.106,-4.106,-4.106,-4.106,-4.106,-4.106,-4.1042,-4.0914,-4.0657,-4.0253,-3.9932,-3.9428,-3.9043,-3.8707,-3.864,-3.8719,-3.9351,-4.0137,-4.0685,-4.0997,-4.1172,-4.1172,-4.1172,-4.1172,-4.1172,-4.1172,-4.1055,-4.0879,-4.0781,-4.1089,-4.1453,-4.1815,-4.2236,-4.2978,-4.3194,-4.318,-4.3263,-4.3081,-4.3076,-4.3278,-4.2952,-4.2928,-4.3421,-4.3781,-4.3916,-4.4754,-4.4852,-4.5169,-5.322,-5.348,-5.2958,-5.1691,-5.0238,-5.0052,-4.9792,-4.9531,-4.9746,-5.0176,-5.0762,-5.0683,-5.0293,-4.9746,-4.959,-4.9277,-4.8887,-4.8848,-4.8848,-4.8848,-4.8848,-4.8848,-4.8848,-4.8848,-4.8848,-4.8867,-4.8775,-4.8312,-4.7755,-4.7588,-4.6916,-4.6353,-4.6896,-4.6747,-4.6056,-4.5872,-4.5371,-4.4618,-4.4215,-4.3884,-4.3554,-4.3481,-4.3481,-4.3481,-4.3481,-4.3481,-4.3481,-4.3481,-4.3481,-4.3481,-4.3481,-4.3353,-4.3059,-4.2931,-4.2527,-4.1757,-4.1299,-4.106,-4.106,-4.106,-4.106,-4.106,-4.106,-4.106,-4.106,-4.106,-4.106,-4.106,-4.106,-4.106,-4.106,-4.106,-4.106,-4.106,-4.106,-4.0895,-4.051,-4.0262,-3.9813,-3.9318,-3.8988,-3.875,-3.8914,-3.943,-4.0059,-4.0509,-4.0919,-4.1172,-4.1172,-4.1172,-4.1172,-4.1172,-4.1172,-4.1055,-4.0762,-4.0625,-4.07,-4.1042,-4.1443,-4.1867,-4.2647,-4.2782,-4.2939,-4.3105,-4.2787,-4.2633,-4.2856,-4.2742,-4.2889,-4.3172,-4.3495,-4.3859,-4.4279,-4.404,-4.4124,-5.2987,-5.2912,-5.2032,-5.1165,-5.0145,-4.9718,-4.9531,-4.9453,-4.9141,-4.9648,-5.0644,-5.041,-5.0195,-5.0137,-4.9766,-4.9297,-4.8887,-4.8887,-4.8867,-4.8867,-4.8867,-4.8848,-4.8848,-4.8848,-4.8867,-4.8848,-4.8405,-4.7662,-4.6822,-4.7102,-4.7102,-4.6616,-4.6707,-4.6519,-4.5909,-4.5555,-4.4964,-4.4269,-4.4068,-4.3884,-4.3554,-4.3481,-4.3481,-4.3481,-4.3481,-4.3481,-4.3481,-4.3481,-4.3481,-4.3481,-4.3481,-4.3481,-4.3426,-4.3059,-4.2491,-4.1794,-4.1383,-4.1079,-4.1079,-4.1079,-4.106,-4.106,-4.106,-4.106,-4.106,-4.106,-4.106,-4.106,-4.106,-4.106,-4.106,-4.106,-4.106,-4.106,-4.106,-4.0877,-4.0529,-4.04,-4.0052,-3.9447,-3.9171,-3.9031,-3.9231,-3.9666,-3.9981,-4.0431,-4.0841,-4.1172,-4.1172,-4.1172,-4.1172,-4.1172,-4.1172,-4.1152,-4.1094,-4.0762,-4.07,-4.0907,-4.1095,-4.1423,-4.2115,-4.2692,-4.2823,-4.305,-4.3105,-4.2973,-4.2654,-4.2624,-4.2844,-4.312,-4.331,-4.3635,-4.3983,-4.3945,-4.3961,-5.2457,-5.2471,-5.2119,-5.1277,-5.0244,-5.0036,-4.9629,-4.9121,-4.9238,-4.9687,-5.0351,-5.0527,-5.0586,-5.0566,-5.041,-4.9805,-4.8945,-4.9141,-4.9141,-4.8887,-4.859,-4.859,-4.8867,-4.8312,-4.8312,-4.8682,-4.8034,-4.7289,-4.6635,-4.6541,-4.6224,-4.5815,-4.5835,-4.5631,-4.5151,-4.4763,-4.4396,-4.4068,-4.3848,-4.3628,-4.3518,-4.3481,-4.3481,-4.3481,-4.3481,-4.3481,-4.3481,-4.3481,-4.3481,-4.3481,-4.3481,-4.3481,-4.3426,-4.2858,-4.2509,-4.2362,-4.1574,-4.117,-4.139,-4.1207,-4.106,-4.106,-4.106,-4.106,-4.106,-4.106,-4.106,-4.106,-4.106,-4.106,-4.106,-4.106,-4.106,-4.106,-4.106,-4.1005,-4.0869,-4.0483,-4.0024,-3.9612,-3.9226,-3.8866,-3.8933,-3.9272,-3.9666,-4.0059,-4.0529,-4.0841,-4.1172,-4.1172,-4.1172,-4.1172,-4.1172,-4.1172,-4.1172,-4.0801,-4.0565,-4.0541,-4.0709,-4.1039,-4.1675,-4.251,-4.28,-4.2911,-4.3125,-4.3249,-4.289,-4.3035,-4.3268,-4.3268,-4.3518,-4.3509,-4.3718,-4.3584,-4.3605,-5.1911,-5.1911,-5.1911,-5.1226,-5.0215,-5.0176,-4.9766,-4.9141,-4.9394,-4.9844,-5.0371,-5.0683,-5.0801,-5.084,-5.0957,-5.0391,-4.9355,-4.9473,-4.9355,-4.9082,-4.8389,-4.8405,-4.8682,-4.8034,-4.7941,-4.8405,-4.7662,-4.6916,-4.6335,-4.5943,-4.5553,-4.5315,-4.5058,-4.4765,-4.4453,-4.4086,-4.3884,-4.3848,-4.3628,-4.3499,-4.3481,-4.3481,-4.3481,-4.3481,-4.3481,-4.3481,-4.3481,-4.3481,-4.3481,-4.3481,-4.3481,-4.3481,-4.3426,-4.2839,-4.2527,-4.2564,-4.1794,-4.1299,-4.1427,-4.1225,-4.106,-4.106,-4.106,-4.106,-4.106,-4.106,-4.106,-4.106,-4.106,-4.106,-4.106,-4.106,-4.106,-4.106,-4.106,-4.106,-4.1126,-4.0667,-4.0262,-3.9877,-3.9135,-3.8713,-3.864,-3.9035,-3.943,-3.9666,-4.004,-4.0451,-4.0841,-4.0997,-4.1094,-4.1172,-4.1172,-4.1172,-4.1172,-4.0957,-4.0644,-4.0526,-4.0504,-4.087,-4.1274,-4.2072,-4.2657,-4.2769,-4.2958,-4.318,-4.3373,-4.3573,-4.3615,-4.3615,-4.3566,-4.3572,-4.3455,-4.3235,-4.3356,-5.1426,-5.1387,-5.1426,-5.0957,-5.0234,-5.0176,-4.9922,-4.9473,-4.9453,-4.9883,-5.0508,-5.0742,-5.0762,-5.0783,-5.1036,-5.0802,-5.0081,-4.9519,-4.9324,-4.9247,-4.8505,-4.8312,-4.8775,-4.8127,-4.7848,-4.7941,-4.7102,-4.6353,-4.5959,-4.5572,-4.537,-4.515,-4.4563,-4.4233,-4.4086,-4.3738,-4.3518,-4.3536,-4.3499,-4.3481,-4.3481,-4.3481,-4.3481,-4.3481,-4.3481,-4.3481,-4.3481,-4.3481,-4.3481,-4.3481,-4.3481,-4.3481,-4.3444,-4.3059,-4.2692,-4.2417,-4.1922,-4.15,-4.1189,-4.1115,-4.106,-4.106,-4.106,-4.106,-4.106,-4.106,-4.106,-4.106,-4.106,-4.106,-4.106,-4.106,-4.106,-4.106,-4.106,-4.106,-4.106,-4.1042,-4.0712,-3.9987,-3.9135,-3.8615,-3.864,-3.8956,-3.9291,-3.9505,-3.9704,-4.0097,-4.0508,-4.0645,-4.0763,-4.1016,-4.1172,-4.1172,-4.1172,-4.1133,-4.0879,-4.0664,-4.0625,-4.0778,-4.1028,-4.1705,-4.2176,-4.235,-4.2657,-4.2902,-4.3283,-4.3462,-4.3539,-4.3539,-4.3539,-4.3615,-4.3491,-4.3366,-4.3346,-5.1269,-5.1055,-5.1328,-5.0937,-5.0215,-5.0176,-4.9766,-4.9101,-4.9062,-4.9394,-4.9902,-5.0234,-5.0336,-5.0281,-5.0475,-5.0185,-4.9589,-4.8842,-4.8667,-4.8798,-4.8058,-4.7941,-4.8146,-4.7476,-4.7102,-4.7009,-4.6728,-4.6353,-4.5959,-4.5755,-4.5462,-4.4911,-4.4618,-4.4196,-4.3719,-4.3554,-4.3481,-4.3481,-4.3481,-4.3481,-4.3481,-4.3481,-4.3481,-4.3481,-4.3481,-4.3481,-4.3481,-4.3481,-4.3481,-4.3481,-4.3481,-4.3481,-4.3426,-4.3096,-4.2949,-4.3004,-4.2197,-4.1794,-4.1831,-4.1457,-4.1079,-4.106,-4.106,-4.106,-4.106,-4.106,-4.106,-4.106,-4.106,-4.106,-4.106,-4.106,-4.106,-4.106,-4.106,-4.106,-4.1024,-4.0822,-4.029,-3.9593,-3.919,-3.8951,-3.8713,-3.8798,-3.9049,-3.9491,-3.9598,-3.9723,-4.0265,-4.0409,-4.0509,-4.0666,-4.0919,-4.1172,-4.1172,-4.1172,-4.1035,-4.0898,-4.0859,-4.0781,-4.1012,-4.1225,-4.1674,-4.2062,-4.239,-4.2697,-4.3004,-4.3233,-4.331,-4.3462,-4.3539,-4.3518,-4.3594,-4.3435,-4.3332,-5.1094,-5.0625,-5.1035,-5.0703,-4.9961,-4.9941,-4.9629,-4.916,-4.9101,-4.9355,-4.9785,-5.0058,-5.0124,-5.005,-5.0031,-4.9722,-4.9259,-4.8519,-4.8348,-4.8347,-4.7778,-4.785,-4.8338,-4.761,-4.7141,-4.7009,-4.6615,-4.6166,-4.5883,-4.5718,-4.5333,-4.4765,-4.4526,-4.4141,-4.3554,-4.3481,-4.3481,-4.3481,-4.3481,-4.3481,-4.3481,-4.3481,-4.3481,-4.3481,-4.3481,-4.3481,-4.3481,-4.3481,-4.3481,-4.3481,-4.3481,-4.3481,-4.3463,-4.3243,-4.3151,-4.3059,-4.2619,-4.2142,-4.2032,-4.1555,-4.1207,-4.1115,-4.106,-4.106,-4.106,-4.106,-4.106,-4.106,-4.106,-4.106,-4.106,-4.106,-4.106,-4.106,-4.106,-4.106,-4.1005,-4.0712,-4.0235,-3.9648,-3.9237,-3.9061,-3.8768,-3.8658,-3.8811,-3.9252,-3.9202,-3.9231,-3.9851,-4.0054,-4.0175,-4.0353,-4.0666,-4.0919,-4.1172,-4.1172,-4.1172,-4.1133,-4.1113,-4.0996,-4.1015,-4.1248,-4.154,-4.1773,-4.2082,-4.2313,-4.2621,-4.2774,-4.2851,-4.3081,-4.331,-4.3289,-4.3269,-4.3043,-4.296,-5.0918,-5.0273,-5.0605,-5.0312,-4.9609,-4.9551,-4.9492,-4.9453,-4.9433,-4.9609,-4.9961,-5.0117,-5.0085,-4.9915,-4.9877,-4.9625,-4.9163,-4.8592,-4.8253,-4.7988,-4.7667,-4.8003,-4.8756,-4.827,-4.7894,-4.763,-4.6596,-4.5996,-4.5865,-4.5535,-4.5095,-4.4691,-4.4306,-4.3903,-4.3554,-4.3481,-4.3481,-4.3481,-4.3481,-4.3481,-4.3481,-4.3481,-4.3481,-4.3481,-4.3481,-4.3481,-4.3481,-4.3481,-4.3481,-4.3481,-4.3481,-4.3481,-4.3481,-4.3481,-4.3298,-4.3023,-4.2894,-4.2367,-4.1873,-4.1531,-4.1227,-4.0766,-4.0844,-4.106,-4.0892,-4.0976,-4.1097,-4.1152,-4.1097,-4.1163,-4.12,-4.1079,-4.1163,-4.106,-4.106,-4.106,-4.1024,-4.073,-4.0363,-3.9923,-3.952,-3.9135,-3.8786,-3.8695,-3.8676,-3.875,-3.8713,-3.8933,-3.9244,-3.9561,-3.9764,-4.004,-4.0353,-4.0685,-4.0919,-4.1172,-4.1172,-4.1172,-4.1172,-4.1133,-4.1055,-4.121,-4.1327,-4.154,-4.1773,-4.2005,-4.2236,-4.2313,-4.2544,-4.2851,-4.2927,-4.2907,-4.2902,-4.2739,-4.2698,-5.0664,-5.0215,-5.0293,-5.0019,-4.9551,-4.9531,-4.9336,-4.9062,-4.9043,-4.9141,-4.9336,-4.9902,-4.9701,-4.9091,-4.9376,-4.8947,-4.8215,-4.7743,-4.7737,-4.7856,-4.7422,-4.7498,-4.8041,-4.8439,-4.8232,-4.7516,-4.6822,-4.6259,-4.5865,-4.5498,-4.5095,-4.4673,-4.4288,-4.3884,-4.3554,-4.3481,-4.3481,-4.3481,-4.3481,-4.3481,-4.3481,-4.3481,-4.3481,-4.3481,-4.3481,-4.3481,-4.3481,-4.3481,-4.3481,-4.3481,-4.3481,-4.3481,-4.3481,-4.3481,-4.3426,-4.3298,-4.3023,-4.2433,-4.1599,-4.094,-4.0324,-3.9581,-3.9898,-4.0046,-4.0113,-4.0723,-4.1122,-4.1354,-4.128,-4.1189,-4.1372,-4.1244,-4.1097,-4.106,-4.106,-4.106,-4.1042,-4.0969,-4.0749,-4.0345,-3.9923,-3.9502,-3.9116,-3.878,-3.8707,-3.8853,-3.8896,-3.8805,-3.9209,-3.9374,-3.9617,-3.9704,-3.9981,-4.0353,-4.0763,-4.1016,-4.1172,-4.1172,-4.1172,-4.1191,-4.1152,-4.123,-4.125,-4.1327,-4.1483,-4.1618,-4.1773,-4.1927,-4.2236,-4.2467,-4.2467,-4.2467,-4.2524,-4.2499,-4.2499,-5.0449,-4.9902,-4.9902,-4.9648,-4.9258,-4.9238,-4.9082,-4.8887,-4.8848,-4.8848,-4.8984,-4.9375,-4.9237,-4.8653,-4.89,-4.842,-4.7535,-4.7236,-4.738,-4.7743,-4.7818,-4.795,-4.8175,-4.8744,-4.8536,-4.7667,-4.6897,-4.6353,-4.5904,-4.5498,-4.5077,-4.4673,-4.4288,-4.3884,-4.3518,-4.3481,-4.3481,-4.3481,-4.3481,-4.3481,-4.3481,-4.3481,-4.3481,-4.3481,-4.3481,-4.3481,-4.3481,-4.3481,-4.3481,-4.3481,-4.3481,-4.3481,-4.3481,-4.3481,-4.3481,-4.3481,-4.2887,-4.2101,-4.1266,-4.0386,-3.9496,-3.8856,-3.8941,-3.9042,-3.9263,-3.9961,-4.0717,-4.0939,-4.1026,-4.1317,-4.1519,-4.1317,-4.1097,-4.106,-4.106,-4.106,-4.106,-4.106,-4.0877,-4.051,-4.0189,-3.9685,-3.93,-3.9025,-3.9043,-3.9073,-3.9245,-3.93,-3.9491,-3.9529,-3.9523,-3.9729,-3.9794,-4.0129,-4.039,-4.0665,-4.0802,-4.086,-4.1289,-4.1269,-4.1211,-4.1191,-4.1191,-4.1269,-4.1172,-4.125,-4.1483,-4.1618,-4.1773,-4.1927,-4.1927,-4.2082,-4.2216,-4.2139,-4.2139,-5.0293,-4.959,-4.9512,-4.9219,-4.8906,-4.8867,-4.8887,-4.8848,-4.8848,-4.8848,-4.8887,-4.8906,-4.8998,-4.8667,-4.8803,-4.8216,-4.7266,-4.7359,-4.7233,-4.7573,-4.8025,-4.8403,-4.8232,-4.8689,-4.8443,-4.7649,-4.6953,-4.639,-4.5886,-4.5498,-4.5132,-4.4783,-4.438,-4.3958,-4.3701,-4.3591,-4.3536,-4.3499,-4.3481,-4.3481,-4.3481,-4.3481,-4.3481,-4.3481,-4.3481,-4.3426,-4.3408,-4.3389,-4.3371,-4.3353,-4.3408,-4.3426,-4.3444,-4.3481,-4.3374,-4.3087,-4.2443,-4.1586,-4.0632,-3.9612,-3.8831,-3.8148,-3.8065,-3.8152,-3.8323,-3.9178,-4.0054,-4.0553,-4.0844,-4.1342,-4.1666,-4.1427,-4.1262,-4.1244,-4.117,-4.1134,-4.1145,-4.1145,-4.0998,-4.0565,-4.0162,-3.9758,-3.9483,-3.9318,-3.93,-3.9428,-3.9502,-3.9593,-3.9667,-3.9737,-3.9751,-3.982,-3.9869,-3.9954,-4.0145,-4.0252,-4.0351,-4.0508,-4.1209,-4.1346,-4.1113,-4.1133,-4.1211,-4.1211,-4.1191,-4.1172,-4.125,-4.1405,-4.1463,-4.1463,-4.1618,-4.1773,-4.2005,-4.1773,-4.1773,-5.0195,-4.998,-4.9297,-4.8945,-4.8867,-4.8848,-4.8848,-4.8848,-4.8848,-4.8848,-4.8926,-4.9199,-4.9114,-4.8761,-4.8917,-4.8691,-4.7718,-4.7508,-4.732,-4.6891,-4.7743,-4.7705,-4.7404,-4.7856,-4.7799,-4.7028,-4.6691,-4.6353,-4.5886,-4.5517,-4.526,-4.5113,-4.4691,-4.4343,-4.3995,-4.3903,-4.3774,-4.3554,-4.3481,-4.3481,-4.3481,-4.3481,-4.3481,-4.3481,-4.3481,-4.3316,-4.3059,-4.3004,-4.2858,-4.2692,-4.2839,-4.3044,-4.3245,-4.3169,-4.2796,-4.2317,-4.18,-4.0839,-3.9367,-3.8451,-3.7557,-3.6834,-3.6991,-3.7188,-3.7361,-3.8751,-3.9854,-4.066,-4.1279,-4.1721,-4.2014,-4.2069,-4.1812,-4.1592,-4.15,-4.139,-4.1134,-4.106,-4.1089,-4.0859,-4.0565,-4.029,-4.018,-3.9832,-3.9758,-3.974,-3.9777,-3.9832,-3.9887,-4.0042,-4.0013,-4.0103,-4.0091,-4.0142,-4.0005,-4.0216,-4.0398,-4.0636,-4.1221,-4.1401,-4.119,-4.1269,-4.1504,-4.1367,-4.1172,-4.1172,-4.1172,-4.125,-4.1327,-4.1327,-4.125,-4.1483,-4.154,-4.1405,-4.1405,-5.0058,-4.9805,-4.9141,-4.8848,-4.8848,-4.8848,-4.8848,-4.8848,-4.8848,-4.8848,-4.8906,-4.9141,-4.9013,-4.8753,-4.8778,-4.831,-4.7667,-4.7287,-4.6891,-4.6479,-4.6933,-4.6934,-4.6446,-4.6727,-4.6821,-4.656,-4.6635,-4.6353,-4.5886,-4.5535,-4.5297,-4.526,-4.4893,-4.4453,-4.4141,-4.4086,-4.3866,-4.3573,-4.3481,-4.3481,-4.3481,-4.3481,-4.3481,-4.3481,-4.3481,-4.3298,-4.2931,-4.2876,-4.2393,-4.1894,-4.1861,-4.2062,-4.251,-4.2557,-4.2116,-4.1247,-4.0681,-3.9836,-3.8341,-3.7296,-3.6563,-3.5979,-3.6192,-3.6199,-3.6687,-3.798,-3.9287,-4.0192,-4.1096,-4.1831,-4.2216,-4.2271,-4.2087,-4.1794,-4.1702,-4.1519,-4.117,-4.106,-4.106,-4.0987,-4.0694,-4.051,-4.0363,-4.0318,-4.0281,-4.0143,-4.0437,-4.0492,-4.0529,-4.063,-4.0428,-4.04,-4.0427,-4.0325,-4.0073,-4.0229,-4.0513,-4.0929,-4.156,-4.1471,-4.1166,-4.1461,-4.1875,-4.1562,-4.1172,-4.1172,-4.1172,-4.1172,-4.1172,-4.125,-4.125,-4.1172,-4.1308,-4.1445,-4.1464,-4.9922,-4.9492,-4.9043,-4.8848,-4.8848,-4.8848,-4.8848,-4.8848,-4.8848,-4.8848,-4.8848,-4.8848,-4.8926,-4.8794,-4.837,-4.7886,-4.7234,-4.6784,-4.6258,-4.6051,-4.6315,-4.6296,-4.609,-4.6108,-4.6221,-4.6447,-4.6447,-4.6259,-4.5979,-4.559,-4.5573,-4.5445,-4.5095,-4.471,-4.4325,-4.416,-4.3976,-4.3573,-4.3481,-4.3481,-4.3481,-4.3481,-4.3481,-4.3481,-4.3481,-4.3224,-4.2858,-4.259,-4.2042,-4.0911,-4.0596,-4.0649,-4.0949,-4.1459,-4.13,-3.9878,-3.9515,-3.8624,-3.766,-3.6757,-3.617,-3.5748,-3.5852,-3.5852,-3.6218,-3.733,-3.8695,-3.9949,-4.0998,-4.2252,-4.2436,-4.2564,-4.2307,-4.1941,-4.1794,-4.1555,-4.1189,-4.106,-4.106,-4.1024,-4.0859,-4.0712,-4.0657,-4.0565,-4.0565,-4.0685,-4.0961,-4.106,-4.106,-4.1108,-4.0851,-4.0657,-4.075,-4.0547,-4.0298,-4.0251,-4.054,-4.0765,-4.1499,-4.1414,-4.1174,-4.1513,-4.1793,-4.1465,-4.1172,-4.1172,-4.1172,-4.1172,-4.1172,-4.1172,-4.1289,-4.1406,-4.1504,-4.1601,-4.1523,-4.9922,-4.9492,-4.9043,-4.8848,-4.8848,-4.8848,-4.8848,-4.8848,-4.8848,-4.8848,-4.8848,-4.8848,-4.8848,-4.8775,-4.8312,-4.7569,-4.6822,-4.6353,-4.5978,-4.5883,-4.6072,-4.5978,-4.5902,-4.5978,-4.5978,-4.5978,-4.6072,-4.6166,-4.6259,-4.6092,-4.5999,-4.6205,-4.5907,-4.5334,-4.4691,-4.4508,-4.4123,-4.3609,-4.3625,-4.3644,-4.3499,-4.3481,-4.3481,-4.3481,-4.3481,-4.3133,-4.2481,-4.1954,-4.1195,-4.0382,-3.96,-3.9192,-3.9333,-3.9747,-3.9604,-3.9026,-3.8574,-3.797,-3.6998,-3.6658,-3.6479,-3.6431,-3.6368,-3.6368,-3.6651,-3.7467,-3.8662,-4.0188,-4.1782,-4.3169,-4.3279,-4.3169,-4.2858,-4.2436,-4.2087,-4.1831,-4.128,-4.106,-4.106,-4.1042,-4.0969,-4.0914,-4.0859,-4.0822,-4.0822,-4.0887,-4.1034,-4.106,-4.106,-4.106,-4.1071,-4.095,-4.1053,-4.0814,-4.052,-4.0446,-4.0556,-4.0536,-4.0957,-4.1367,-4.1328,-4.1618,-4.159,-4.1305,-4.1191,-4.123,-4.123,-4.1211,-4.1191,-4.1211,-4.1406,-4.166,-4.1641,-4.1641,-4.1914,-4.959,-4.916,-4.8945,-4.8848,-4.8848,-4.8848,-4.8848,-4.8848,-4.8848,-4.8848,-4.8848,-4.8848,-4.8848,-4.8775,-4.8312,-4.7569,-4.6728,-4.6072,-4.5883,-4.5883,-4.6072,-4.6072,-4.5978,-4.6166,-4.6259,-4.6166,-4.6072,-4.6166,-4.6541,-4.6335,-4.6353,-4.6392,-4.6168,-4.5538,-4.4838,-4.4416,-4.4068,-4.3628,-4.3825,-4.3933,-4.3518,-4.3481,-4.3481,-4.3481,-4.3463,-4.3169,-4.2678,-4.236,-4.1337,-4.0228,-4.0071,-3.9375,-3.8864,-3.8824,-3.892,-3.8121,-3.7965,-3.7663,-3.677,-3.659,-3.6574,-3.6574,-3.6606,-3.659,-3.677,-3.7501,-3.8769,-4.0609,-4.2139,-4.3481,-4.3463,-4.3481,-4.3078,-4.2491,-4.2271,-4.1886,-4.1317,-4.1115,-4.106,-4.106,-4.1024,-4.1005,-4.1024,-4.1024,-4.1126,-4.106,-4.106,-4.106,-4.106,-4.106,-4.106,-4.106,-4.106,-4.095,-4.0814,-4.0694,-4.0657,-4.0676,-4.0731,-4.1062,-4.1335,-4.1612,-4.1471,-4.1231,-4.1243,-4.1405,-4.1328,-4.1328,-4.1289,-4.1289,-4.1503,-4.1698,-4.168,-4.1738,-4.201,-4.9258,-4.8848,-4.8848,-4.8848,-4.8848,-4.8848,-4.8848,-4.8848,-4.8848,-4.8848,-4.8848,-4.8848,-4.8848,-4.8775,-4.8219,-4.7382,-4.6447,-4.5978,-4.5883,-4.5978,-4.6166,-4.6166,-4.6166,-4.6353,-4.6541,-4.6447,-4.6259,-4.6259,-4.6635,-4.6447,-4.6447,-4.6448,-4.6132,-4.5538,-4.4783,-4.4325,-4.3884,-4.3809,-4.4115,-4.4115,-4.3662,-4.3481,-4.3481,-4.3481,-4.3481,-4.3279,-4.2876,-4.2615,-4.1745,-4.0719,-4.04,-4.0287,-3.8934,-3.8991,-3.8761,-3.7883,-3.7876,-3.7428,-3.6958,-3.6897,-3.6945,-3.6765,-3.6813,-3.6829,-3.7115,-3.7859,-3.906,-4.0999,-4.2353,-4.3303,-4.341,-4.3481,-4.3078,-4.2509,-4.2234,-4.1996,-4.1372,-4.106,-4.106,-4.106,-4.106,-4.106,-4.106,-4.106,-4.106,-4.106,-4.106,-4.106,-4.106,-4.106,-4.106,-4.106,-4.106,-4.106,-4.1071,-4.1053,-4.0914,-4.0924,-4.1036,-4.1268,-4.1424,-4.156,-4.1405,-4.1266,-4.1499,-4.159,-4.15,-4.123,-4.0936,-4.1013,-4.1461,-4.1636,-4.1496,-4.1808,-4.2236,-4.9277,-4.8848,-4.8848,-4.8848,-4.8848,-4.8848,-4.8848,-4.8848,-4.8848,-4.8848,-4.8848,-4.8848,-4.8867,-4.8682,-4.7848,-4.6916,-4.6259,-4.5978,-4.5883,-4.5883,-4.6072,-4.6072,-4.5978,-4.6353,-4.6635,-4.6728,-4.6635,-4.6822,-4.6916,-4.6447,-4.6259,-4.6354,-4.5853,-4.5206,-4.4857,-4.438,-4.3884,-4.3591,-4.368,-4.377,-4.3644,-4.3625,-4.357,-4.3481,-4.3463,-4.3334,-4.2953,-4.2619,-4.18,-4.1249,-4.0502,-4.0352,-4.0124,-3.9542,-3.9334,-3.8841,-3.8429,-3.7654,-3.7079,-3.724,-3.7366,-3.7233,-3.7274,-3.748,-3.7707,-3.8331,-3.9365,-4.0498,-4.1652,-4.2658,-4.3303,-4.3481,-4.3041,-4.2637,-4.2289,-4.1886,-4.1317,-4.106,-4.106,-4.106,-4.106,-4.106,-4.106,-4.106,-4.106,-4.106,-4.106,-4.106,-4.106,-4.106,-4.106,-4.106,-4.106,-4.106,-4.106,-4.106,-4.106,-4.106,-4.121,-4.136,-4.1333,-4.1453,-4.1545,-4.153,-4.1688,-4.1485,-4.1086,-4.0762,-4.0515,-4.0728,-4.135,-4.1342,-4.1176,-4.1704,-4.2298,-4.9043,-4.8848,-4.8848,-4.8848,-4.8848,-4.8848,-4.8848,-4.8848,-4.8848,-4.8848,-4.8867,-4.859,-4.8405,-4.8312,-4.7382,-4.6916,-4.6635,-4.6166,-4.5883,-4.5978,-4.6072,-4.6072,-4.6166,-4.6635,-4.7028,-4.7009,-4.7121,-4.7121,-4.7121,-4.6728,-4.6447,-4.6392,-4.5964,-4.552,-4.504,-4.4618,-4.4562,-4.4612,-4.4625,-4.4767,-4.4786,-4.4294,-4.3767,-4.3499,-4.3481,-4.3371,-4.3227,-4.3067,-4.2425,-4.2049,-4.1692,-4.1566,-4.1221,-4.0846,-4.0725,-4.0091,-3.9524,-3.863,-3.7775,-3.7778,-3.7685,-3.7574,-3.7616,-3.7623,-3.7855,-3.8483,-3.9491,-4.0493,-4.1489,-4.2389,-4.3213,-4.3481,-4.3169,-4.2766,-4.2362,-4.1941,-4.1482,-4.1207,-4.106,-4.106,-4.106,-4.106,-4.106,-4.106,-4.106,-4.106,-4.106,-4.106,-4.106,-4.106,-4.106,-4.106,-4.106,-4.106,-4.106,-4.106,-4.106,-4.106,-4.1145,-4.121,-4.121,-4.1304,-4.1379,-4.1268,-4.1128,-4.083,-4.0596,-4.0728,-4.0858,-4.1033,-4.1165,-4.1141,-4.1135,-4.1449,-4.2042,-4.8848,-4.8848,-4.8848,-4.8848,-4.8848,-4.8848,-4.8848,-4.8848,-4.8848,-4.8848,-4.8755,-4.8497,-4.8312,-4.7941,-4.7289,-4.6916,-4.7009,-4.6259,-4.5978,-4.6072,-4.6166,-4.6166,-4.6166,-4.6728,-4.7196,-4.7401,-4.7308,-4.7401,-4.7215,-4.6916,-4.6541,-4.6429,-4.5946,-4.5594,-4.5279,-4.4856,-4.4727,-4.4978,-4.5224,-4.5456,-4.5475,-4.4632,-4.409,-4.3767,-4.357,-4.3481,-4.3481,-4.3481,-4.2927,-4.2748,-4.2909,-4.273,-4.1922,-4.1706,-4.1333,-4.0731,-4.0056,-3.9439,-3.8664,-3.8333,-3.808,-3.7879,-3.7707,-3.7671,-3.7763,-3.8483,-3.9125,-4.0038,-4.1037,-4.1939,-4.2855,-4.3213,-4.3151,-4.2784,-4.2399,-4.2014,-4.1647,-4.1317,-4.1097,-4.106,-4.106,-4.106,-4.106,-4.106,-4.106,-4.106,-4.106,-4.106,-4.106,-4.106,-4.106,-4.106,-4.106,-4.106,-4.106,-4.106,-4.106,-4.106,-4.106,-4.1145,-4.1145,-4.1145,-4.1173,-4.0961,-4.0749,-4.0759,-4.0805,-4.108,-4.1253,-4.1002,-4.0808,-4.1039,-4.1152,-4.1448,-4.1763,-4.8848,-4.8848,-4.8848,-4.8848,-4.8848,-4.8848,-4.8848,-4.8848,-4.8848,-4.8867,-4.8755,-4.8775,-4.8405,-4.8034,-4.7569,-4.7009,-4.6728,-4.6166,-4.5978,-4.5978,-4.5978,-4.5978,-4.6166,-4.6447,-4.6916,-4.7308,-4.7495,-4.7495,-4.7308,-4.7009,-4.6447,-4.5922,-4.574,-4.5463,-4.5334,-4.5243,-4.5131,-4.5362,-4.5569,-4.5464,-4.5242,-4.4642,-4.43,-4.4034,-4.3767,-4.3499,-4.3481,-4.3444,-4.3408,-4.314,-4.33,-4.3211,-4.255,-4.2264,-4.1727,-4.1014,-4.048,-3.9967,-3.9473,-3.9043,-3.8654,-3.8152,-3.7799,-3.7763,-3.7855,-3.7763,-3.83,-3.9217,-4.022,-4.1127,-4.2119,-4.2694,-4.2619,-4.2788,-4.244,-4.1951,-4.1653,-4.1372,-4.117,-4.1097,-4.106,-4.106,-4.106,-4.106,-4.106,-4.106,-4.106,-4.106,-4.106,-4.106,-4.106,-4.106,-4.106,-4.106,-4.106,-4.106,-4.106,-4.106,-4.106,-4.106,-4.1145,-4.106,-4.106,-4.1042,-4.0932,-4.0969,-4.1053,-4.1101,-4.0944,-4.0501,-4.0382,-4.0888,-4.1119,-4.1295,-4.1657,-4.8848,-4.8848,-4.8848,-4.8848,-4.8848,-4.8848,-4.8848,-4.8848,-4.8848,-4.8682,-4.8405,-4.8405,-4.8312,-4.8034,-4.7681,-4.7308,-4.7102,-4.6934,-4.6447,-4.6166,-4.6166,-4.6166,-4.6166,-4.6335,-4.6728,-4.699,-4.7364,-4.7662,-4.7401,-4.7196,-4.6822,-4.6373,-4.5869,-4.57,-4.5665,-4.5983,-4.6055,-4.6064,-4.6343,-4.6485,-4.5744,-4.5262,-4.4813,-4.4193,-4.4104,-4.3767,-4.3552,-4.3224,-4.3151,-4.3133,-4.3133,-4.3062,-4.2851,-4.255,-4.2085,-4.1423,-4.0974,-4.0528,-4.0104,-3.9638,-3.9115,-3.8728,-3.8327,-3.8132,-3.8132,-3.7947,-3.8208,-3.8942,-3.9491,-4.0311,-4.1759,-4.1939,-4.1708,-4.2422,-4.2411,-4.1923,-4.1664,-4.1403,-4.1299,-4.1244,-4.1134,-4.106,-4.106,-4.106,-4.106,-4.106,-4.106,-4.106,-4.106,-4.106,-4.106,-4.106,-4.106,-4.106,-4.106,-4.106,-4.106,-4.106,-4.106,-4.106,-4.106,-4.106,-4.106,-4.106,-4.106,-4.1042,-4.0987,-4.0914,-4.0851,-4.0685,-4.0759,-4.0961,-4.1137,-4.1118,-4.1407,-4.873,-4.8828,-4.8711,-4.875,-4.8848,-4.8848,-4.8848,-4.8848,-4.8848,-4.8682,-4.8312,-4.8312,-4.8312,-4.8219,-4.7867,-4.7681,-4.7569,-4.7401,-4.6934,-4.6728,-4.6635,-4.6467,-4.6224,-4.6131,-4.6318,-4.6523,-4.7174,-4.7452,-4.7155,-4.7512,-4.7102,-4.6635,-4.6259,-4.6053,-4.6147,-4.6803,-4.7117,-4.6972,-4.7211,-4.7157,-4.6246,-4.5761,-4.5431,-4.4636,-4.437,-4.4015,-4.3712,-4.3457,-4.3169,-4.3096,-4.3023,-4.2879,-4.2794,-4.2655,-4.2353,-4.1994,-4.1597,-4.1127,-4.0696,-4.005,-3.9587,-3.9515,-3.9092,-3.8942,-3.8667,-3.8408,-3.8575,-3.8667,-3.9034,-3.9748,-4.12,-4.0946,-4.0988,-4.1515,-4.1817,-4.1565,-4.1626,-4.1578,-4.1458,-4.1409,-4.1317,-4.1244,-4.1079,-4.1079,-4.1079,-4.1079,-4.106,-4.106,-4.106,-4.106,-4.106,-4.106,-4.106,-4.106,-4.106,-4.106,-4.106,-4.106,-4.106,-4.106,-4.106,-4.106,-4.106,-4.106,-4.106,-4.106,-4.1042,-4.0987,-4.1005,-4.1108,-4.1145,-4.1126,-4.1126,-4.1089,-4.1108,-4.8476,-4.8789,-4.8418,-4.8476,-4.8848,-4.8848,-4.8848,-4.8848,-4.8848,-4.8848,-4.8755,-4.8736,-4.8755,-4.8643,-4.8162,-4.7976,-4.796,-4.7681,-4.7364,-4.712,-4.7157,-4.6727,-4.6243,-4.5909,-4.5908,-4.572,-4.6347,-4.6941,-4.6849,-4.7373,-4.7286,-4.6971,-4.6672,-4.6447,-4.6072,-4.6916,-4.7151,-4.6992,-4.7328,-4.704,-4.6367,-4.589,-4.5607,-4.5255,-4.4813,-4.437,-4.4156,-4.3671,-4.3383,-4.3365,-4.3074,-4.2916,-4.278,-4.2565,-4.2299,-4.2102,-4.1579,-4.1325,-4.1218,-4.0402,-4.0203,-4.0311,-3.9947,-3.9657,-3.964,-3.9291,-3.885,-3.885,-3.8942,-3.9125,-3.9673,-4.0021,-4.0288,-4.0905,-4.1319,-4.1409,-4.1477,-4.1717,-4.1705,-4.1531,-4.1543,-4.1537,-4.1262,-4.1079,-4.1097,-4.1097,-4.1079,-4.106,-4.106,-4.106,-4.106,-4.106,-4.106,-4.106,-4.106,-4.106,-4.106,-4.106,-4.106,-4.106,-4.106,-4.106,-4.106,-4.106,-4.106,-4.106,-4.106,-4.106,-4.106,-4.106,-4.106,-4.1145,-4.1145,-4.106,-4.106,-4.8457,-4.8808,-4.8379,-4.8457,-4.8828,-4.8848,-4.8848,-4.8848,-4.8848,-4.8848,-4.8789,-4.8574,-4.8613,-4.8599,-4.8429,-4.8173,-4.8088,-4.8478,-4.8142,-4.7077,-4.7335,-4.659,-4.5997,-4.5682,-4.5608,-4.5643,-4.6029,-4.6595,-4.6868,-4.7319,-4.74,-4.7186,-4.6969,-4.6822,-4.6728,-4.7232,-4.7519,-4.7011,-4.723,-4.7187,-4.6406,-4.6133,-4.587,-4.5607,-4.5255,-4.4902,-4.4617,-4.4007,-4.363,-4.3523,-4.3195,-4.2898,-4.2903,-4.2794,-4.2764,-4.2551,-4.2029,-4.1579,-4.1416,-4.0963,-4.0873,-4.0873,-4.0674,-4.0385,-4.0294,-3.9565,-3.9125,-3.8942,-3.9034,-3.9399,-4.0129,-3.9673,-3.9937,-4.1113,-4.1548,-4.13,-4.1338,-4.1762,-4.1985,-4.1673,-4.156,-4.169,-4.1452,-4.1372,-4.1354,-4.128,-4.1262,-4.1115,-4.1079,-4.106,-4.106,-4.106,-4.106,-4.106,-4.106,-4.106,-4.106,-4.106,-4.106,-4.106,-4.106,-4.106,-4.106,-4.106,-4.106,-4.106,-4.106,-4.106,-4.106,-4.106,-4.106,-4.106,-4.106,-4.106,-4.106,-4.8379,-4.8594,-4.834,-4.8359,-4.8633,-4.8789,-4.8848,-4.8828,-4.8711,-4.8633,-4.8555,-4.832,-4.834,-4.8516,-4.8535,-4.8287,-4.8211,-4.8449,-4.8307,-4.7136,-4.7352,-4.672,-4.6109,-4.5615,-4.5502,-4.5521,-4.5867,-4.6356,-4.6645,-4.696,-4.7102,-4.7189,-4.7255,-4.6925,-4.7039,-4.7373,-4.7815,-4.736,-4.741,-4.7168,-4.6562,-4.6221,-4.6133,-4.587,-4.5607,-4.5412,-4.4983,-4.4392,-4.3764,-4.3658,-4.332,-4.3056,-4.3096,-4.3169,-4.3193,-4.2872,-4.2568,-4.2029,-4.1687,-4.1867,-4.1849,-4.1849,-4.1398,-4.1037,-4.0765,-4.0129,-3.9673,-3.9399,-3.9308,-3.9491,-3.9856,-3.9308,-3.9748,-4.0929,-4.1148,-4.0884,-4.1119,-4.1532,-4.2012,-4.181,-4.1749,-4.1742,-4.1714,-4.1653,-4.1562,-4.147,-4.136,-4.1262,-4.1097,-4.1079,-4.106,-4.106,-4.106,-4.106,-4.106,-4.106,-4.106,-4.106,-4.106,-4.106,-4.106,-4.106,-4.106,-4.106,-4.106,-4.106,-4.106,-4.106,-4.106,-4.106,-4.106,-4.106,-4.106,-4.106,-4.106,-4.8183,-4.8203,-4.8164,-4.8164,-4.8281,-4.8594,-4.875,-4.8769,-4.8379,-4.8203,-4.8164,-4.8164,-4.8164,-4.8262,-4.8574,-4.8496,-4.8151,-4.8203,-4.7819,-4.7566,-4.7379,-4.6799,-4.6318,-4.6006,-4.5624,-4.549,-4.5617,-4.6114,-4.6331,-4.6888,-4.7121,-4.7018,-4.7082,-4.6959,-4.7261,-4.7545,-4.7689,-4.7456,-4.7293,-4.6992,-4.6445,-4.6308,-4.6221,-4.6133,-4.5958,-4.5783,-4.5304,-4.4807,-4.4384,-4.3937,-4.3486,-4.3313,-4.3224,-4.3096,-4.3224,-4.3175,-4.2927,-4.2497,-4.2209,-4.2389,-4.2568,-4.2479,-4.2209,-4.1759,-4.1398,-4.0946,-4.0493,-4.0129,-3.9856,-3.9491,-3.9308,-3.9291,-3.9383,-4.0021,-4.0402,-4.0532,-4.0804,-4.1259,-4.1853,-4.1906,-4.1992,-4.197,-4.1717,-4.1641,-4.1787,-4.1536,-4.1391,-4.1335,-4.117,-4.1079,-4.106,-4.106,-4.106,-4.106,-4.1145,-4.1079,-4.106,-4.106,-4.106,-4.106,-4.106,-4.106,-4.106,-4.106,-4.106,-4.106,-4.106,-4.106,-4.106,-4.106,-4.106,-4.106,-4.106,-4.106,-4.106,-4.7656,-4.8125,-4.7558,-4.7637,-4.8144,-4.8027,-4.8105,-4.8301,-4.7949,-4.7754,-4.7754,-4.7754,-4.7773,-4.7773,-4.7891,-4.7871,-4.7812,-4.7715,-4.7461,-4.7266,-4.7109,-4.6481,-4.6111,-4.5799,-4.5596,-4.5596,-4.5722,-4.6014,-4.6318,-4.6914,-4.7109,-4.6951,-4.7056,-4.7172,-4.7328,-4.7541,-4.743,-4.7215,-4.7148,-4.6816,-4.6465,-4.6308,-4.6308,-4.6221,-4.6133,-4.6046,-4.5783,-4.5166,-4.4725,-4.4473,-4.3815,-4.3426,-4.3408,-4.3371,-4.3337,-4.298,-4.2837,-4.2766,-4.2676,-4.2748,-4.2837,-4.2837,-4.2658,-4.2568,-4.2209,-4.1849,-4.1308,-4.0834,-4.0436,-4.0146,-3.9882,-3.9807,-3.9916,-4.0132,-4.0464,-4.0504,-4.076,-4.1037,-4.1636,-4.2103,-4.2102,-4.2225,-4.199,-4.1879,-4.1942,-4.1568,-4.1437,-4.1488,-4.1317,-4.1244,-4.1079,-4.1079,-4.1244,-4.1299,-4.1134,-4.1097,-4.1079,-4.106,-4.106,-4.106,-4.106,-4.106,-4.106,-4.1097,-4.1134,-4.1115,-4.106,-4.106,-4.106,-4.106,-4.106,-4.106,-4.106,-4.106,-4.106,-4.7539,-4.7656,-4.7519,-4.7656,-4.7832,-4.75,-4.748,-4.7637,-4.7441,-4.7324,-4.7324,-4.7324,-4.7324,-4.7363,-4.75,-4.7519,-4.7324,-4.7305,-4.709,-4.6777,-4.6699,-4.6367,-4.6016,-4.5851,-4.587,-4.587,-4.587,-4.6085,-4.6279,-4.6484,-4.668,-4.6699,-4.6992,-4.7051,-4.707,-4.6942,-4.6933,-4.6855,-4.6777,-4.6641,-4.6465,-4.6308,-4.6308,-4.6308,-4.6308,-4.6308,-4.6221,-4.5431,-4.499,-4.4813,-4.4015,-4.3481,-4.3481,-4.3481,-4.3481,-4.3124,-4.3124,-4.3124,-4.3124,-4.3124,-4.3124,-4.3034,-4.3034,-4.3034,-4.2766,-4.2299,-4.1883,-4.1444,-4.1158,-4.0851,-4.0623,-4.0468,-4.0535,-4.0678,-4.0651,-4.0641,-4.0755,-4.0942,-4.1416,-4.1994,-4.2246,-4.2477,-4.2492,-4.2293,-4.2218,-4.2178,-4.2101,-4.2038,-4.1812,-4.1555,-4.128,-4.1097,-4.1372,-4.1574,-4.1372,-4.1225,-4.1225,-4.1189,-4.106,-4.106,-4.1079,-4.1181,-4.12,-4.117,-4.1244,-4.1225,-4.1225,-4.1097,-4.106,-4.1079,-4.1097,-4.106,-4.106,-4.106,-4.106,-4.7598,-4.7031,-4.7773,-4.7773,-4.7441,-4.7031,-4.6894,-4.6875,-4.6894,-4.6875,-4.6875,-4.6933,-4.6953,-4.6973,-4.7226,-4.7187,-4.6992,-4.6855,-4.6738,-4.6328,-4.6387,-4.624,-4.624,-4.6308,-4.6221,-4.6221,-4.6308,-4.6221,-4.6308,-4.6387,-4.6406,-4.6308,-4.6387,-4.6484,-4.6523,-4.6504,-4.6504,-4.6504,-4.6601,-4.6621,-4.6406,-4.6308,-4.6308,-4.6308,-4.6308,-4.6308,-4.6046,-4.5519,-4.4902,-4.4636,-4.4104,-4.357,-4.3481,-4.3481,-4.3499,-4.3499,-4.3392,-4.3392,-4.3392,-4.3392,-4.3392,-4.341,-4.3518,-4.3447,-4.3178,-4.2855,-4.2424,-4.1877,-4.1535,-4.1344,-4.1149,-4.1114,-4.1206,-4.1344,-4.1378,-4.1315,-4.1252,-4.1388,-4.1576,-4.2118,-4.273,-4.291,-4.2784,-4.2603,-4.251,-4.2685,-4.2729,-4.2527,-4.2307,-4.1959,-4.1721,-4.139,-4.161,-4.1849,-4.1684,-4.1537,-4.1464,-4.1372,-4.1262,-4.1207,-4.1299,-4.1262,-4.1255,-4.1299,-4.1427,-4.1427,-4.1409,-4.1262,-4.1236,-4.1292,-4.1273,-4.1181,-4.106,-4.0976,-4.0639,-4.6836,-4.6953,-4.7148,-4.6992,-4.6621,-4.6504,-4.6465,-4.6445,-4.6445,-4.6465,-4.6504,-4.6738,-4.6738,-4.6582,-4.6894,-4.6855,-4.6582,-4.6523,-4.6406,-4.6328,-4.6308,-4.6308,-4.6308,-4.6308,-4.6308,-4.6308,-4.6308,-4.6308,-4.6221,-4.6221,-4.6308,-4.6289,-4.6221,-4.6221,-4.6308,-4.6308,-4.6308,-4.6308,-4.6387,-4.6484,-4.6348,-4.6308,-4.6308,-4.6308,-4.6308,-4.6308,-4.5958,-4.5431,-4.499,-4.4725,-4.3926,-4.357,-4.3481,-4.3481,-4.3481,-4.3481,-4.3481,-4.3481,-4.3481,-4.3481,-4.3481,-4.3591,-4.3646,-4.3646,-4.352,-4.3268,-4.2856,-4.2313,-4.1944,-4.1804,-4.1735,-4.1833,-4.1891,-4.2082,-4.2203,-4.1995,-4.1787,-4.1835,-4.1971,-4.2512,-4.309,-4.3217,-4.3108,-4.3054,-4.2873,-4.2869,-4.2861,-4.2747,-4.2656,-4.2417,-4.2294,-4.2056,-4.2069,-4.2142,-4.1959,-4.1922,-4.1886,-4.1831,-4.1739,-4.1666,-4.1574,-4.1702,-4.1794,-4.1629,-4.161,-4.1721,-4.1666,-4.1335,-4.1365,-4.1354,-4.1141,-4.0928,-4.0639,-4.0469,-3.9943,-4.6777,-4.6641,-4.666,-4.6523,-4.6328,-4.6308,-4.6308,-4.6308,-4.6308,-4.6308,-4.6328,-4.6523,-4.6504,-4.6308,-4.6562,-4.6601,-4.6328,-4.6308,-4.6328,-4.6308,-4.6308,-4.6308,-4.6308,-4.6308,-4.6308,-4.6308,-4.6308,-4.6221,-4.6133,-4.5958,-4.5958,-4.6026,-4.6046,-4.6133,-4.6221,-4.6308,-4.6308,-4.6308,-4.6308,-4.6308,-4.6308,-4.6308,-4.6308,-4.6308,-4.6308,-4.6221,-4.5783,-4.5255,-4.4902,-4.4548,-4.3837,-4.357,-4.3481,-4.3481,-4.3481,-4.3481,-4.3481,-4.3481,-4.3481,-4.3481,-4.3481,-4.3591,-4.3646,-4.3591,-4.3554,-4.3339,-4.3397,-4.2926,-4.2417,-4.2246,-4.2463,-4.2491,-4.262,-4.2852,-4.2696,-4.2563,-4.2632,-4.2863,-4.2957,-4.3267,-4.3796,-4.3979,-4.396,-4.396,-4.3815,-4.3742,-4.3664,-4.3371,-4.3206,-4.2824,-4.27,-4.2645,-4.2605,-4.2436,-4.2179,-4.2234,-4.2344,-4.2289,-4.2197,-4.2087,-4.1996,-4.2289,-4.2436,-4.2142,-4.2032,-4.2179,-4.2032,-4.1666,-4.133,-4.1196,-4.0978,-4.0639,-4.0385,-3.9943,-3.9075,-4.7061,-4.6328,-4.6308,-4.6308,-4.6308,-4.6308,-4.6308,-4.6308,-4.6308,-4.6308,-4.6308,-4.6328,-4.6308,-4.6308,-4.6308,-4.6308,-4.6308,-4.6308,-4.6308,-4.6308,-4.6308,-4.6308,-4.6308,-4.6308,-4.6308,-4.6308,-4.6308,-4.6046,-4.587,-4.587,-4.587,-4.5695,-4.5675,-4.5763,-4.6133,-4.6221,-4.6221,-4.6308,-4.6308,-4.6308,-4.6308,-4.6308,-4.6308,-4.6308,-4.6308,-4.6046,-4.5695,-4.5255,-4.4813,-4.437,-4.3926,-4.3767,-4.3659,-4.3659,-4.3589,-4.3589,-4.3481,-4.3481,-4.3481,-4.3481,-4.3481,-4.3499,-4.3518,-4.3536,-4.3536,-4.3611,-4.3651,-4.3542,-4.3124,-4.2969,-4.3193,-4.3467,-4.3597,-4.3649,-4.3498,-4.3304,-4.3541,-4.379,-4.3864,-4.4066,-4.4379,-4.4655,-4.4746,-4.4746,-4.4691,-4.4636,-4.4471,-4.4251,-4.3976,-4.3502,-4.3104,-4.3013,-4.2974,-4.277,-4.2477,-4.2582,-4.2784,-4.2462,-4.2371,-4.2367,-4.2454,-4.2729,-4.2784,-4.2527,-4.2472,-4.2582,-4.2381,-4.2014,-4.1628,-4.1174,-4.0844,-4.0488,-3.9943,-3.9348,-3.8135,-4.6824,-4.6308,-4.6308,-4.6308,-4.6308,-4.6308,-4.6308,-4.6308,-4.6308,-4.6308,-4.6308,-4.6308,-4.6308,-4.6308,-4.6308,-4.6308,-4.6308,-4.6308,-4.6308,-4.6308,-4.6308,-4.6308,-4.6308,-4.6308,-4.6308,-4.6308,-4.6221,-4.6221,-4.587,-4.5958,-4.5958,-4.5607,-4.5607,-4.5607,-4.5675,-4.587,-4.5958,-4.6133,-4.6308,-4.6308,-4.6308,-4.6308,-4.6308,-4.6308,-4.6308,-4.6221,-4.6046,-4.5675,-4.5255,-4.4813,-4.437,-4.4123,-4.4034,-4.4015,-4.3856,-4.3678,-4.357,-4.3481,-4.3481,-4.3481,-4.3481,-4.3518,-4.3573,-4.3683,-4.3701,-4.3756,-4.3996,-4.4325,-4.4051,-4.3954,-4.4084,-4.4584,-4.4844,-4.4764,-4.4768,-4.4454,-4.4368,-4.4374,-4.4358,-4.467,-4.4983,-4.5168,-4.5168,-4.5132,-4.504,-4.493,-4.4746,-4.4526,-4.4306,-4.3887,-4.3559,-4.3414,-4.3286,-4.3124,-4.2817,-4.3044,-4.3188,-4.2758,-4.256,-4.27,-4.2843,-4.3151,-4.3133,-4.2788,-4.2751,-4.2824,-4.2568,-4.2101,-4.1746,-4.1287,-4.0728,-4.0251,-3.9724,-3.8889,-3.7823]},{"header":{"parameterUnit":"m.s-1","parameterCategory":1,"la1":31.0,"la2":29.5877,"lo1":-88.7671,"lo2":-86.6584,"dy":0.0162,"dx":0.0185,"nx":115,"ny":88,"refTime":"2024-04-28T06:00:00:Z","depth":0,"parameterNumber":3,"parameterNumberName":"V-component_of_WINDS"},"data":[0.0,0.0,0.0,0.0,0.0,0.0,0.0,0.0,0.0,0.0,0.0,0.0,0.0,0.0,0.0,0.0,0.0,0.0,0.0,0.0,0.0,0.0,0.0,0.0,0.0,0.0,0.0,0.0,0.0,0.0,0.0,0.0,0.0,0.0,0.0,0.0,0.0,0.0,0.0,0.0,0.0,0.0,0.0,0.0,0.0,0.0,0.0,0.0,0.0,0.0,0.0,0.0,0.0,0.0,0.0,0.0,0.0,0.0,0.0,0.0,0.0,0.0,0.0,0.0,0.0,0.0,0.0,0.0,0.0,0.0,0.0,0.0,0.0,0.0,0.0,0.0,0.0,0.0,0.0,0.0,0.0,0.0,0.0,0.0,0.0,0.0,0.0,0.0,0.0,0.0,0.0,0.0,0.0,0.0,0.0,0.0,0.0,0.0,0.0,0.0,0.0,0.0,0.0,0.0,0.0,0.0,0.0,0.0,0.0,0.0,0.0,0.0,0.0,0.0,0.0,0.0,0.0,0.0,0.0,0.0,0.0,0.0,0.0,0.0,0.0,0.0,0.0,0.0,0.0,0.0,0.0,0.0,0.0,0.0,0.0,0.0,0.0,0.0,0.0,0.0,0.0,0.0,0.0,0.0,0.0,0.0,0.0,0.0,0.0,0.0,0.0,0.0,0.0,0.0,0.0,0.0,0.0,0.0,0.0,0.0,0.0,0.0,0.0,0.0,0.0,0.0,0.0,0.0,0.0,0.0,0.0,0.0,0.0,0.0,0.0,0.0,0.0,0.0,0.0,0.0,0.0,0.0,0.0,0.0,0.0,0.0,0.0,0.0,0.0,0.0,0.0,0.0,0.0,0.0,0.0,0.0,0.0,0.0,0.0,0.0,0.0,0.0,0.0,0.0,0.0,0.0,0.0,0.0,0.0,0.0,0.0,0.0,0.0,0.0,0.0,0.0,0.0,0.0,0.0,0.0,0.0,0.0,0.0,0.0,0.0,0.0,0.0,0.0,0.0,0.0,0.0,0.0,0.0,0.0,0.0,0.0,0.0,0.0,0.0,0.0,0.0,0.0,0.0,0.0,0.0,0.0,0.0,0.0,0.0,0.0,0.0,0.0,0.0,0.0,0.0,0.0,0.0,0.0,0.0,0.0,0.0,0.0,0.0,0.0,0.0,0.0,0.0,0.0,0.0,0.0,0.0,0.0,0.0,0.0,0.0,0.0,0.0,0.0,0.0,0.0,0.0,0.0,0.0,0.0,0.0,0.0,0.0,0.0,0.0,0.0,0.0,0.0,0.0,0.0,0.0,0.0,0.0,0.0,0.0,0.0,0.0,0.0,0.0,0.0,0.0,0.0,0.0,0.0,0.0,0.0,0.0,0.0,0.0,0.0,0.0,0.0,0.0,0.0,0.0,0.0,0.0,0.0,0.0,0.0,0.0,0.0,0.0,0.0,0.0,0.0,0.0,0.0,0.0,0.0,0.0,0.0,0.0,0.0,0.0,0.0,0.0,0.0,0.0,0.0,0.0,0.0,0.0,0.0,0.0,0.0,0.0,0.0,0.0,0.0,0.0,0.0,0.0,0.0,0.0,0.0,0.0,0.0,0.0,0.0,0.0,0.0,0.0,0.0,0.0,0.0,0.0,0.0,0.0,0.0,0.0,0.0,0.0,0.0,0.0,0.0,0.0,0.0,0.0,0.0,0.0,0.0,0.0,0.0,0.0,0.0,0.0,0.0,0.0,0.0,0.0,0.0,0.0,0.0,0.0,0.0,0.0,0.0,0.0,0.0,0.0,0.0,0.0,0.0,0.0,0.0,0.0,0.0,0.0,0.0,0.0,0.0,0.0,0.0,0.0,0.0,0.0,0.0,0.0,0.0,0.0,0.0,0.0,0.0,0.0,0.0,0.0,0.0,0.0,0.0,0.0,0.0,0.0,0.0,0.0,0.0,0.0,0.0,0.0,0.0,0.0,0.0,0.0,0.0,0.0,0.0,0.0,0.0,0.0,0.0,0.0,0.0,0.0,0.0,0.0,0.0,0.0,0.0,0.0,0.0,0.0,0.0,0.0,0.0,0.0,0.0,0.0,0.0,0.0,0.0,0.0,0.0,0.0,0.0,0.0,0.0,0.0,0.0,0.0,0.0,0.0,0.0,0.0,0.0,0.0,0.0,0.0,0.0,0.0,0.0,0.0,0.0,0.0,0.0,0.0,0.0,0.0,0.0,0.0,0.0,0.0,0.0,0.0,0.0,0.0,0.0,0.0,0.0,0.0,0.0,0.0,0.0,0.0,0.0,0.0,0.0,0.0,0.0,0.0,0.0,0.0,0.0,0.0,0.0,0.0,0.0,0.0,0.0,0.0,0.0,0.0,0.0,0.0,0.0,0.0,0.0,0.0,0.0,0.0,0.0,0.0,0.0,0.0,0.0,0.0,0.0,0.0,0.0,0.0,0.0,0.0,0.0,0.0,0.0,0.0,0.0,0.0,0.0,0.0,0.0,0.0,0.0,0.0,0.0,0.0,0.0,0.0,0.0,0.0,0.0,0.0,0.0,0.0,0.0,0.0,0.0,0.0,0.0,0.0,0.0,0.0,0.0,0.0,0.0,0.0,0.0,0.0,0.0,0.0,0.0,0.0,0.0,0.0,0.0,0.0,0.0,0.0,0.0,0.0,0.0,0.0,0.0,0.0,0.0,0.0,0.0,0.0,0.0,0.0,0.0,0.0,0.0,0.0,0.0,0.0,0.0,0.0,0.0,0.0,0.0,0.0,0.0,0.0,0.0,0.0,0.0,0.0,0.0,0.0,0.0,0.0,0.0,0.0,0.0,0.0,0.0,0.0,0.0,0.0,0.0,0.0,0.0,0.0,0.0,0.0,0.0,0.0,0.0,0.0,0.0,0.0,0.0,0.0,0.0,0.0,0.0,0.0,0.0,0.0,0.0,0.0,0.0,0.0,0.0,0.0,0.0,0.0,0.0,0.0,0.0,0.0,0.0,0.0,0.0,0.0,0.0,0.0,0.0,0.0,0.0,0.0,0.0,0.0,0.0,0.0,0.0,0.0,0.0,0.0,0.0,0.0,0.0,0.0,0.0,0.0,0.0,0.0,0.0,0.0,0.0,0.0,0.0,0.0,0.0,0.0,0.0,0.0,0.0,0.0,0.0,0.0,0.0,0.0,0.0,0.0,0.0,0.0,0.0,0.0,0.0,0.0,0.0,0.0,0.0,0.0,0.0,0.0,0.0,0.0,0.0,0.0,0.0,0.0,0.0,0.0,0.0,0.0,0.0,0.0,0.0,0.0,0.0,0.0,0.0,0.0,0.0,0.0,0.0,0.0,0.0,0.0,0.0,0.0,0.0,0.0,0.0,0.0,0.0,0.0,0.0,0.0,0.0,0.0,0.0,0.0,0.0,0.0,0.0,0.0,0.0,0.0,0.0,0.0,0.0,0.0,0.0,0.0,0.0,0.0,0.0,0.0,0.0,0.0,0.0,0.0,0.0,0.0,0.0,0.0,0.0,0.0,0.0,0.0,0.0,0.0,0.0,0.0,0.0,0.0,0.0,0.0,0.0,0.0,0.0,0.0,0.0,0.0,0.0,0.0,0.0,0.0,0.0,0.0,0.0,0.0,0.0,0.0,0.0,0.0,0.0,0.0,0.0,0.0,0.0,0.0,0.0,0.0,0.0,0.0,0.0,0.0,0.0,0.0,0.0,0.0,0.0,0.0,0.0,0.0,0.0,0.0,0.0,0.0,0.0,0.0,0.0,0.0,0.0,0.0,0.0,0.0,0.0,0.0,0.0,0.0,0.0,0.0,0.0,0.0,0.0,0.0,0.0,0.0,0.0,0.0,0.0,0.0,0.0,0.0,0.0,0.0,0.0,0.0,0.0,0.0,0.0,0.0,0.0,0.0,0.0,0.0,0.0,0.0,0.0,0.0,0.0,0.0,0.0,0.0,0.0,0.0,0.0,0.0,0.0,0.0,0.0,0.0,0.0,0.0,0.0,0.0,0.0,0.0,0.0,0.0,0.0,0.0,0.0,0.0,0.0,0.0,0.0,0.0,0.0,0.0,0.0,0.0,0.0,0.0,0.0,0.0,0.0,0.0,0.0,0.0,0.0,0.0,0.0,0.0,0.0,0.0,0.0,0.0,0.0,0.0,0.0,0.0,0.0,0.0,0.0,0.0,0.0,0.0,0.0,0.0,0.0,0.0,0.0,0.0,0.0,0.0,0.0,0.0,0.0,0.0,0.0,0.0,0.0,3.4469,0.0,0.0,0.0,3.4775,0.0,0.0,0.0,0.0,0.0,0.0,0.0,0.0,0.0,0.0,0.0,0.0,0.0,0.0,0.0,0.0,0.0,0.0,0.0,0.0,0.0,0.0,0.0,0.0,0.0,0.0,0.0,0.0,0.0,0.0,0.0,0.0,0.0,0.0,0.0,0.0,0.0,0.0,0.0,0.0,0.0,0.0,0.0,0.0,0.0,0.0,0.0,0.0,0.0,0.0,0.0,0.0,0.0,0.0,0.0,0.0,0.0,0.0,0.0,0.0,0.0,0.0,0.0,0.0,0.0,0.0,0.0,0.0,0.0,0.0,0.0,0.0,0.0,0.0,0.0,0.0,0.0,0.0,0.0,0.0,0.0,0.0,0.0,0.0,0.0,0.0,0.0,0.0,0.0,0.0,0.0,0.0,0.0,0.0,0.0,0.0,0.0,0.0,0.0,0.0,0.0,0.0,0.0,0.0,0.0,0.0,0.0,0.0,0.0,0.0,3.5183,3.5352,3.5285,3.5483,3.5991,0.0,0.0,0.0,0.0,0.0,0.0,0.0,0.0,0.0,0.0,0.0,0.0,0.0,0.0,0.0,0.0,0.0,0.0,0.0,0.0,0.0,0.0,0.0,0.0,0.0,0.0,0.0,0.0,0.0,0.0,0.0,0.0,0.0,0.0,0.0,0.0,0.0,0.0,0.0,0.0,0.0,0.0,0.0,0.0,0.0,0.0,0.0,0.0,0.0,0.0,0.0,0.0,0.0,0.0,0.0,0.0,0.0,0.0,0.0,0.0,0.0,0.0,0.0,0.0,0.0,0.0,0.0,0.0,0.0,0.0,0.0,0.0,0.0,0.0,0.0,0.0,0.0,0.0,0.0,0.0,0.0,0.0,0.0,0.0,0.0,0.0,0.0,0.0,0.0,0.0,0.0,0.0,0.0,0.0,0.0,0.0,0.0,0.0,0.0,0.0,0.0,0.0,0.0,0.0,0.0,0.0,0.0,0.0,0.0,0.0,0.0,0.0,3.6734,3.7027,3.7022,0.0,0.0,0.0,0.0,0.0,0.0,0.0,0.0,0.0,0.0,0.0,0.0,0.0,0.0,0.0,0.0,0.0,0.0,0.0,0.0,0.0,0.0,0.0,0.0,0.0,0.0,0.0,0.0,0.0,0.0,0.0,0.0,0.0,0.0,0.0,0.0,0.0,0.0,0.0,0.0,0.0,0.0,0.0,0.0,0.0,0.0,0.0,0.0,0.0,0.0,0.0,0.0,0.0,0.0,0.0,0.0,0.0,0.0,0.0,0.0,0.0,0.0,0.0,0.0,0.0,0.0,0.0,0.0,0.0,0.0,0.0,0.0,0.0,0.0,0.0,0.0,0.0,0.0,0.0,0.0,0.0,0.0,0.0,0.0,0.0,0.0,0.0,0.0,0.0,0.0,0.0,0.0,0.0,0.0,0.0,0.0,0.0,0.0,0.0,0.0,0.0,0.0,0.0,0.0,0.0,0.0,0.0,0.0,0.0,0.0,3.7101,3.8681,3.8627,0.0,3.8168,0.0,0.0,0.0,0.0,0.0,0.0,0.0,0.0,0.0,0.0,0.0,0.0,0.0,0.0,0.0,0.0,0.0,0.0,0.0,0.0,0.0,0.0,0.0,0.0,0.0,0.0,0.0,0.0,0.0,0.0,0.0,0.0,0.0,0.0,0.0,0.0,0.0,0.0,0.0,0.0,0.0,0.0,0.0,0.0,0.0,0.0,0.0,0.0,0.0,0.0,0.0,0.0,0.0,0.0,0.0,0.0,0.0,0.0,0.0,0.0,0.0,0.0,0.0,0.0,0.0,0.0,0.0,0.0,0.0,0.0,0.0,0.0,0.0,0.0,0.0,0.0,0.0,0.0,0.0,0.0,0.0,0.0,0.0,0.0,0.0,0.0,0.0,0.0,0.0,0.0,0.0,0.0,0.0,0.0,0.0,0.0,0.0,0.0,0.0,0.0,0.0,0.0,0.0,0.0,0.0,0.0,0.0,0.0,0.0,0.0,3.7693,3.8748,3.9634,3.9686,0.0,0.0,0.0,0.0,0.0,0.0,0.0,0.0,0.0,0.0,0.0,0.0,0.0,0.0,0.0,0.0,0.0,0.0,0.0,0.0,0.0,0.0,0.0,0.0,0.0,0.0,0.0,0.0,0.0,0.0,0.0,0.0,0.0,0.0,0.0,0.0,0.0,0.0,0.0,0.0,0.0,0.0,0.0,0.0,0.0,0.0,0.0,0.0,0.0,0.0,0.0,0.0,0.0,0.0,0.0,0.0,0.0,0.0,0.0,0.0,0.0,0.0,0.0,0.0,0.0,0.0,0.0,0.0,0.0,0.0,0.0,0.0,0.0,0.0,0.0,0.0,0.0,0.0,0.0,0.0,0.0,0.0,0.0,0.0,0.0,0.0,0.0,0.0,0.0,0.0,0.0,0.0,0.0,0.0,0.0,0.0,0.0,0.0,0.0,0.0,0.0,0.0,0.0,0.0,0.0,0.0,0.0,0.0,0.0,0.0,3.8087,3.8725,3.9295,4.0002,3.9896,3.8798,0.0,0.0,0.0,0.0,0.0,0.0,0.0,0.0,0.0,0.0,0.0,0.0,0.0,0.0,0.0,0.0,0.0,0.0,0.0,0.0,0.0,0.0,0.0,0.0,0.0,0.0,0.0,0.0,0.0,0.0,0.0,0.0,0.0,0.0,0.0,0.0,0.0,0.0,0.0,0.0,0.0,0.0,0.0,0.0,0.0,0.0,0.0,0.0,0.0,0.0,0.0,0.0,0.0,0.0,0.0,0.0,0.0,0.0,0.0,0.0,0.0,0.0,0.0,0.0,0.0,0.0,0.0,0.0,0.0,0.0,0.0,0.0,0.0,0.0,0.0,0.0,0.0,0.0,0.0,0.0,0.0,0.0,0.0,0.0,0.0,0.0,0.0,0.0,0.0,0.0,0.0,0.0,0.0,0.0,0.0,0.0,0.0,0.0,0.0,0.0,0.0,0.0,0.0,0.0,0.0,0.0,0.0,0.0,4.0921,4.0528,4.0559,4.0916,3.962,3.8615,0.0,0.0,0.0,0.0,0.0,0.0,0.0,0.0,0.0,0.0,0.0,0.0,0.0,0.0,0.0,0.0,0.0,0.0,0.0,0.0,0.0,0.0,0.0,0.0,0.0,0.0,0.0,0.0,0.0,0.0,0.0,0.0,0.0,0.0,0.0,0.0,0.0,0.0,0.0,0.0,0.0,0.0,0.0,0.0,0.0,0.0,0.0,0.0,0.0,0.0,0.0,0.0,0.0,0.0,0.0,0.0,0.0,0.0,0.0,0.0,0.0,0.0,0.0,0.0,0.0,0.0,0.0,0.0,0.0,0.0,0.0,0.0,0.0,0.0,0.0,0.0,0.0,0.0,0.0,0.0,0.0,0.0,0.0,0.0,0.0,0.0,0.0,0.0,0.0,0.0,0.0,0.0,0.0,0.0,0.0,0.0,0.0,0.0,0.0,0.0,0.0,0.0,0.0,0.0,0.0,0.0,0.0,0.0,0.0,3.9648,4.0281,4.1011,4.1804,4.0364,3.9335,0.0,0.0,0.0,0.0,0.0,0.0,0.0,0.0,0.0,0.0,0.0,0.0,0.0,0.0,0.0,0.0,0.0,0.0,0.0,0.0,0.0,0.0,0.0,0.0,0.0,0.0,0.0,0.0,0.0,0.0,0.0,0.0,0.0,0.0,0.0,0.0,0.0,0.0,0.0,0.0,0.0,0.0,0.0,0.0,0.0,0.0,0.0,0.0,0.0,0.0,0.0,0.0,0.0,0.0,0.0,0.0,0.0,0.0,0.0,0.0,0.0,0.0,0.0,0.0,0.0,0.0,0.0,0.0,0.0,0.0,0.0,0.0,0.0,0.0,0.0,0.0,0.0,0.0,0.0,0.0,0.0,0.0,0.0,0.0,0.0,0.0,0.0,0.0,0.0,0.0,0.0,0.0,0.0,0.0,0.0,0.0,0.0,0.0,0.0,0.0,0.0,0.0,0.0,0.0,0.0,0.0,0.0,0.0,0.0,3.9767,0.0,4.1449,4.171,4.0444,3.9423,0.0,0.0,0.0,0.0,0.0,0.0,0.0,0.0,0.0,0.0,0.0,0.0,0.0,0.0,0.0,0.0,0.0,0.0,0.0,0.0,0.0,0.0,0.0,0.0,0.0,0.0,0.0,0.0,0.0,0.0,0.0,0.0,0.0,0.0,0.0,0.0,0.0,0.0,0.0,0.0,0.0,0.0,0.0,0.0,0.0,0.0,0.0,0.0,0.0,0.0,0.0,0.0,0.0,0.0,0.0,0.0,0.0,0.0,0.0,0.0,0.0,0.0,0.0,0.0,0.0,0.0,0.0,0.0,0.0,0.0,0.0,0.0,0.0,0.0,0.0,0.0,0.0,0.0,0.0,0.0,0.0,0.0,0.0,0.0,0.0,0.0,0.0,0.0,0.0,0.0,0.0,0.0,0.0,0.0,0.0,0.0,0.0,0.0,0.0,0.0,0.0,0.0,0.0,0.0,0.0,0.0,0.0,0.0,4.1234,4.1704,4.2296,4.2029,4.0782,3.9931,3.8574,0.0,0.0,0.0,0.0,0.0,0.0,0.0,0.0,0.0,0.0,0.0,0.0,0.0,0.0,0.0,0.0,0.0,0.0,0.0,0.0,0.0,0.0,0.0,0.0,0.0,0.0,0.0,0.0,0.0,0.0,0.0,0.0,0.0,0.0,0.0,0.0,0.0,0.0,0.0,0.0,0.0,0.0,0.0,0.0,0.0,0.0,0.0,0.0,0.0,0.0,0.0,0.0,0.0,0.0,0.0,0.0,0.0,0.0,0.0,0.0,0.0,0.0,0.0,0.0,0.0,0.0,0.0,0.0,0.0,0.0,0.0,0.0,0.0,0.0,0.0,0.0,0.0,0.0,0.0,0.0,0.0,0.0,0.0,0.0,0.0,0.0,0.0,0.0,0.0,0.0,0.0,0.0,0.0,0.0,0.0,0.0,0.0,0.0,0.0,0.0,0.0,0.0,0.0,0.0,0.0,0.0,0.0,0.0,0.0,4.074,4.2569,4.337,4.3033,4.1175,4.0258,0.0,0.0,0.0,0.0,0.0,0.0,0.0,0.0,0.0,0.0,0.0,0.0,0.0,0.0,0.0,0.0,0.0,0.0,0.0,0.0,0.0,0.0,0.0,0.0,0.0,0.0,0.0,0.0,0.0,0.0,0.0,0.0,0.0,0.0,0.0,0.0,0.0,0.0,0.0,0.0,0.0,0.0,0.0,0.0,0.0,0.0,0.0,0.0,0.0,0.0,0.0,0.0,0.0,0.0,0.0,0.0,0.0,0.0,0.0,0.0,0.0,0.0,0.0,0.0,0.0,0.0,0.0,0.0,0.0,0.0,0.0,0.0,0.0,0.0,0.0,0.0,0.0,0.0,0.0,0.0,0.0,0.0,0.0,0.0,0.0,0.0,0.0,0.0,0.0,0.0,0.0,0.0,0.0,0.0,0.0,0.0,0.0,0.0,0.0,0.0,0.0,0.0,0.0,0.0,0.0,0.0,0.0,0.0,0.0,4.2822,4.4311,4.5146,4.5126,4.3714,4.2662,4.2127,0.0,0.0,0.0,0.0,0.0,0.0,0.0,0.0,0.0,0.0,0.0,0.0,0.0,0.0,0.0,0.0,0.0,0.0,0.0,0.0,0.0,0.0,0.0,0.0,0.0,0.0,0.0,0.0,0.0,0.0,0.0,0.0,0.0,0.0,0.0,0.0,0.0,0.0,0.0,0.0,0.0,0.0,0.0,0.0,0.0,0.0,0.0,0.0,0.0,0.0,0.0,0.0,0.0,0.0,0.0,0.0,0.0,0.0,0.0,0.0,0.0,0.0,0.0,0.0,0.0,0.0,0.0,0.0,0.0,0.0,0.0,0.0,0.0,0.0,0.0,0.0,0.0,0.0,0.0,0.0,0.0,0.0,0.0,0.0,0.0,0.0,0.0,0.0,0.0,0.0,0.0,0.0,0.0,0.0,0.0,0.0,0.0,0.0,0.0,0.0,0.0,0.0,0.0,0.0,0.0,0.0,0.0,0.0,4.7087,4.7339,4.7401,4.7166,4.7028,4.5572,0.0,0.0,0.0,0.0,0.0,0.0,0.0,0.0,0.0,0.0,0.0,0.0,0.0,0.0,0.0,0.0,0.0,0.0,0.0,0.0,0.0,0.0,0.0,0.0,0.0,0.0,0.0,0.0,0.0,0.0,0.0,0.0,0.0,0.0,0.0,0.0,0.0,0.0,0.0,0.0,0.0,0.0,0.0,0.0,0.0,0.0,0.0,0.0,0.0,0.0,0.0,0.0,0.0,0.0,0.0,0.0,0.0,0.0,0.0,0.0,0.0,0.0,0.0,0.0,0.0,0.0,0.0,0.0,0.0,0.0,0.0,0.0,0.0,0.0,0.0,0.0,0.0,0.0,0.0,0.0,0.0,0.0,0.0,0.0,0.0,0.0,0.0,0.0,0.0,0.0,0.0,0.0,0.0,0.0,0.0,0.0,0.0,0.0,0.0,0.0,0.0,0.0,0.0,0.0,0.0,0.0,0.0,0.0,0.0,4.8239,5.0703,5.1402,5.0273,4.9217,4.7622,0.0,0.0,0.0,0.0,0.0,0.0,0.0,0.0,0.0,0.0,0.0,0.0,0.0,0.0,0.0,0.0,0.0,0.0,0.0,0.0,0.0,0.0,0.0,0.0,0.0,0.0,0.0,0.0,0.0,0.0,0.0,0.0,0.0,0.0,0.0,0.0,0.0,0.0,0.0,0.0,0.0,0.0,0.0,0.0,0.0,0.0,0.0,0.0,0.0,0.0,0.0,0.0,0.0,0.0,0.0,0.0,0.0,0.0,0.0,0.0,0.0,0.0,0.0,0.0,0.0,0.0,0.0,0.0,0.0,0.0,0.0,0.0,0.0,0.0,0.0,0.0,0.0,0.0,0.0,0.0,0.0,0.0,0.0,0.0,0.0,0.0,0.0,0.0,0.0,0.0,0.0,0.0,0.0,0.0,0.0,0.0,0.0,0.0,0.0,0.0,0.0,0.0,0.0,0.0,0.0,0.0,0.0,0.0,4.8506,5.0967,5.3794,5.494,5.4318,5.2889,5.0562,0.0,0.0,0.0,0.0,0.0,0.0,0.0,0.0,0.0,0.0,0.0,0.0,0.0,0.0,0.0,0.0,0.0,0.0,0.0,0.0,0.0,0.0,0.0,0.0,0.0,0.0,0.0,0.0,0.0,0.0,0.0,0.0,0.0,0.0,0.0,0.0,0.0,0.0,0.0,0.0,0.0,0.0,0.0,0.0,0.0,0.0,0.0,0.0,0.0,0.0,0.0,0.0,0.0,0.0,0.0,0.0,0.0,0.0,0.0,0.0,0.0,0.0,0.0,0.0,0.0,0.0,0.0,0.0,0.0,0.0,0.0,0.0,0.0,0.0,0.0,0.0,0.0,0.0,0.0,0.0,0.0,0.0,0.0,0.0,0.0,0.0,0.0,0.0,0.0,0.0,0.0,0.0,0.0,0.0,0.0,0.0,0.0,0.0,0.0,0.0,0.0,0.0,0.0,0.0,0.0,0.0,0.0,0.0,5.1118,5.4009,5.6371,5.7776,5.817,5.6722,5.3579,0.0,0.0,0.0,0.0,0.0,0.0,0.0,0.0,0.0,0.0,0.0,0.0,0.0,0.0,0.0,0.0,0.0,0.0,0.0,0.0,0.0,0.0,0.0,0.0,0.0,0.0,0.0,0.0,0.0,0.0,0.0,0.0,0.0,0.0,0.0,0.0,0.0,0.0,0.0,0.0,0.0,0.0,0.0,0.0,0.0,0.0,0.0,0.0,0.0,0.0,0.0,0.0,0.0,0.0,0.0,0.0,0.0,0.0,0.0,0.0,0.0,0.0,0.0,0.0,0.0,0.0,0.0,0.0,0.0,0.0,0.0,0.0,0.0,0.0,0.0,0.0,0.0,0.0,0.0,0.0,0.0,0.0,0.0,0.0,0.0,0.0,0.0,0.0,0.0,0.0,0.0,0.0,0.0,0.0,0.0,0.0,0.0,0.0,0.0,0.0,0.0,0.0,0.0,0.0,0.0,0.0,0.0,0.0,5.1508,5.3974,5.6943,5.8277,5.791,5.6391,5.4035,0.0,0.0,0.0,0.0,0.0,0.0,0.0,0.0,0.0,0.0,0.0,0.0,0.0,0.0,0.0,0.0,0.0,0.0,0.0,0.0,0.0,0.0,0.0,0.0,0.0,0.0,0.0,0.0,0.0,0.0,0.0,0.0,0.0,0.0,0.0,0.0,0.0,0.0,0.0,0.0,0.0,0.0,0.0,0.0,0.0,0.0,0.0,0.0,3.3412,0.0,0.0,0.0,0.0,0.0,0.0,0.0,0.0,0.0,0.0,0.0,0.0,0.0,0.0,0.0,0.0,0.0,0.0,0.0,0.0,0.0,0.0,0.0,0.0,0.0,0.0,0.0,0.0,0.0,0.0,0.0,0.0,0.0,0.0,0.0,0.0,0.0,0.0,0.0,0.0,0.0,0.0,0.0,0.0,0.0,0.0,0.0,0.0,0.0,0.0,0.0,0.0,0.0,0.0,0.0,0.0,0.0,0.0,0.0,5.281,5.5059,5.779,5.9078,5.8682,5.7592,5.5623,0.0,0.0,0.0,0.0,0.0,0.0,0.0,0.0,0.0,0.0,0.0,0.0,0.0,0.0,0.0,0.0,0.0,0.0,0.0,0.0,0.0,0.0,0.0,0.0,0.0,0.0,0.0,0.0,0.0,0.0,0.0,0.0,0.0,0.0,0.0,0.0,0.0,0.0,0.0,0.0,0.0,0.0,0.0,0.0,0.0,0.0,0.0,0.0,0.0,0.0,0.0,0.0,0.0,0.0,0.0,0.0,0.0,0.0,0.0,0.0,0.0,0.0,0.0,0.0,0.0,0.0,0.0,0.0,0.0,0.0,0.0,0.0,0.0,0.0,0.0,0.0,0.0,0.0,0.0,0.0,0.0,0.0,0.0,0.0,0.0,0.0,0.0,0.0,0.0,0.0,0.0,0.0,0.0,0.0,0.0,0.0,0.0,0.0,0.0,0.0,0.0,0.0,0.0,0.0,0.0,0.0,0.0,5.2355,5.4602,5.6659,5.8815,5.9877,5.9763,5.926,5.7657,5.4768,0.0,0.0,0.0,0.0,0.0,0.0,0.0,0.0,0.0,0.0,0.0,0.0,0.0,0.0,0.0,0.0,0.0,0.0,0.0,0.0,0.0,0.0,0.0,0.0,0.0,0.0,0.0,0.0,0.0,0.0,0.0,0.0,0.0,0.0,0.0,0.0,0.0,0.0,4.2976,4.3955,0.0,0.0,0.0,0.0,0.0,0.0,0.0,0.0,3.7842,0.0,0.0,0.0,0.0,0.0,0.0,0.0,0.0,0.0,0.0,0.0,0.0,0.0,0.0,0.0,0.0,0.0,0.0,0.0,0.0,0.0,0.0,0.0,0.0,0.0,0.0,0.0,0.0,0.0,0.0,0.0,0.0,0.0,0.0,0.0,0.0,0.0,0.0,0.0,0.0,0.0,0.0,0.0,0.0,0.0,0.0,0.0,0.0,0.0,0.0,0.0,0.0,0.0,0.0,0.0,0.0,5.2787,5.4808,5.6761,5.8622,6.0096,6.0646,6.0132,6.0021,5.9103,5.7183,0.0,0.0,0.0,0.0,0.0,0.0,0.0,0.0,0.0,0.0,0.0,0.0,0.0,0.0,0.0,0.0,0.0,0.0,0.0,0.0,0.0,0.0,0.0,0.0,0.0,0.0,0.0,0.0,0.0,0.0,0.0,0.0,0.0,0.0,0.0,0.0,0.0,0.0,0.0,4.7445,4.8942,0.0,0.0,0.0,0.0,0.0,0.0,0.0,0.0,3.9499,0.0,0.0,0.0,0.0,0.0,0.0,0.0,0.0,0.0,0.0,0.0,0.0,0.0,0.0,0.0,0.0,0.0,0.0,0.0,0.0,0.0,0.0,0.0,0.0,0.0,0.0,0.0,0.0,0.0,0.0,0.0,0.0,0.0,0.0,0.0,0.0,0.0,0.0,0.0,0.0,0.0,0.0,0.0,0.0,0.0,0.0,0.0,0.0,0.0,0.0,0.0,0.0,0.0,0.0,0.0,5.3361,5.6088,5.8209,5.9524,6.0928,6.1308,6.0679,6.0521,5.951,0.0,0.0,0.0,0.0,0.0,0.0,0.0,0.0,0.0,0.0,0.0,0.0,0.0,0.0,0.0,0.0,0.0,0.0,0.0,0.0,0.0,0.0,0.0,0.0,0.0,0.0,0.0,0.0,0.0,0.0,0.0,0.0,0.0,0.0,0.0,0.0,0.0,0.0,0.0,0.0,4.8146,4.9438,4.9548,0.0,0.0,0.0,0.0,0.0,0.0,4.3166,4.3337,0.0,0.0,0.0,0.0,0.0,0.0,0.0,0.0,0.0,0.0,0.0,0.0,0.0,0.0,0.0,0.0,0.0,0.0,0.0,0.0,0.0,0.0,0.0,0.0,0.0,0.0,0.0,0.0,0.0,0.0,0.0,0.0,0.0,0.0,0.0,0.0,0.0,0.0,0.0,0.0,0.0,0.0,0.0,0.0,0.0,0.0,0.0,0.0,0.0,0.0,0.0,0.0,0.0,0.0,0.0,5.3869,5.7359,5.9672,6.0589,6.1742,6.2034,6.1261,6.0901,5.9684,0.0,0.0,0.0,0.0,0.0,0.0,0.0,0.0,0.0,0.0,0.0,0.0,0.0,0.0,0.0,0.0,0.0,0.0,0.0,0.0,0.0,0.0,0.0,0.0,0.0,0.0,0.0,0.0,0.0,0.0,0.0,0.0,0.0,0.0,0.0,0.0,0.0,0.0,0.0,0.0,0.0,4.9853,5.0734,5.0904,0.0,0.0,0.0,0.0,4.6109,4.6866,0.0,0.0,0.0,0.0,0.0,0.0,0.0,0.0,0.0,0.0,0.0,0.0,0.0,0.0,0.0,0.0,0.0,0.0,0.0,0.0,0.0,0.0,0.0,0.0,0.0,0.0,0.0,0.0,0.0,0.0,0.0,0.0,0.0,0.0,0.0,0.0,0.0,0.0,0.0,0.0,0.0,0.0,0.0,0.0,0.0,0.0,0.0,0.0,0.0,0.0,0.0,0.0,0.0,0.0,0.0,0.0,5.6182,5.9527,6.1679,6.2601,6.3071,6.2778,6.1599,6.1486,6.0151,0.0,0.0,0.0,0.0,0.0,0.0,0.0,0.0,0.0,0.0,0.0,0.0,0.0,0.0,0.0,0.0,0.0,0.0,0.0,0.0,0.0,0.0,0.0,0.0,0.0,0.0,0.0,0.0,0.0,0.0,0.0,0.0,0.0,0.0,0.0,0.0,0.0,0.0,0.0,0.0,0.0,5.2749,5.3116,5.439,5.4556,0.0,0.0,5.125,4.8534,4.8999,0.0,0.0,0.0,0.0,0.0,0.0,0.0,0.0,0.0,0.0,0.0,0.0,0.0,0.0,0.0,0.0,0.0,0.0,0.0,0.0,0.0,0.0,0.0,0.0,0.0,0.0,0.0,0.0,0.0,0.0,0.0,0.0,0.0,0.0,0.0,0.0,0.0,0.0,0.0,0.0,0.0,0.0,0.0,0.0,0.0,0.0,0.0,0.0,0.0,0.0,0.0,0.0,0.0,0.0,0.0,5.5814,5.6865,6.045,6.2813,6.3572,6.3858,6.3475,6.2208,6.1579,6.0236,0.0,0.0,0.0,0.0,0.0,0.0,0.0,0.0,0.0,0.0,0.0,0.0,0.0,0.0,0.0,0.0,0.0,0.0,0.0,0.0,0.0,0.0,0.0,0.0,0.0,0.0,0.0,0.0,0.0,0.0,0.0,0.0,0.0,0.0,0.0,0.0,0.0,0.0,0.0,0.0,0.0,0.0,5.3705,5.5359,0.0,0.0,0.0,5.3764,5.1502,0.0,0.0,0.0,0.0,0.0,0.0,0.0,0.0,0.0,0.0,0.0,0.0,0.0,0.0,0.0,0.0,0.0,0.0,0.0,0.0,0.0,0.0,0.0,0.0,0.0,0.0,0.0,0.0,0.0,0.0,0.0,0.0,0.0,0.0,0.0,0.0,0.0,0.0,0.0,0.0,0.0,0.0,0.0,0.0,0.0,0.0,0.0,0.0,0.0,0.0,0.0,0.0,0.0,0.0,0.0,0.0,0.0,5.7652,6.149,6.382,6.4518,6.474,6.4347,6.3217,6.2054,0.0,0.0,0.0,0.0,0.0,0.0,0.0,0.0,0.0,0.0,0.0,0.0,0.0,0.0,0.0,0.0,0.0,0.0,0.0,0.0,0.0,0.0,0.0,0.0,0.0,0.0,0.0,5.0143,0.0,0.0,0.0,0.0,0.0,0.0,0.0,0.0,0.0,0.0,0.0,0.0,0.0,0.0,5.3577,5.4567,5.6652,5.7454,0.0,0.0,5.6136,5.4174,5.4739,5.4344,0.0,0.0,0.0,0.0,0.0,0.0,0.0,0.0,0.0,0.0,0.0,0.0,0.0,0.0,0.0,0.0,0.0,0.0,0.0,0.0,0.0,0.0,0.0,0.0,0.0,0.0,0.0,0.0,5.1787,5.1787,0.0,0.0,0.0,0.0,0.0,0.0,0.0,0.0,0.0,0.0,0.0,0.0,0.0,0.0,0.0,0.0,0.0,0.0,0.0,0.0,0.0,0.0,0.0,0.0,5.8205,5.9219,6.2932,6.5205,6.5853,6.5882,6.5558,6.4855,6.3328,6.2102,0.0,0.0,0.0,0.0,0.0,0.0,0.0,0.0,0.0,0.0,0.0,0.0,0.0,0.0,0.0,0.0,0.0,0.0,0.0,0.0,0.0,0.0,0.0,0.0,0.0,0.0,0.0,0.0,0.0,0.0,0.0,0.0,0.0,0.0,0.0,0.0,0.0,0.0,0.0,0.0,0.0,5.5875,5.662,5.9301,6.0522,0.0,5.8811,5.8494,5.6105,5.6959,5.6304,5.1318,0.0,0.0,0.0,0.0,0.0,0.0,0.0,0.0,0.0,0.0,0.0,0.0,0.0,0.0,0.0,0.0,0.0,0.0,0.0,0.0,0.0,0.0,0.0,0.0,0.0,5.1558,5.1787,0.0,5.1787,0.0,0.0,0.0,0.0,0.0,0.0,0.0,0.0,0.0,0.0,0.0,0.0,0.0,0.0,0.0,0.0,0.0,0.0,0.0,0.0,0.0,0.0,0.0,0.0,5.9822,6.0873,6.556,6.8092,6.8417,6.8198,6.7379,6.5934,6.4725,6.3079,0.0,0.0,0.0,0.0,0.0,0.0,0.0,0.0,0.0,0.0,0.0,0.0,0.0,0.0,0.0,0.0,0.0,0.0,0.0,0.0,0.0,0.0,0.0,0.0,0.0,0.0,0.0,0.0,5.2617,5.3059,5.4329,0.0,0.0,0.0,0.0,0.0,0.0,0.0,0.0,0.0,0.0,5.7749,5.8402,6.0108,0.0,0.0,5.9699,5.9358,5.759,5.739,5.635,5.3348,5.1585,0.0,0.0,0.0,0.0,0.0,0.0,0.0,0.0,0.0,0.0,0.0,0.0,0.0,0.0,0.0,0.0,0.0,0.0,0.0,0.0,0.0,0.0,0.0,0.0,0.0,0.0,5.2613,5.2613,0.0,0.0,0.0,0.0,0.0,0.0,0.0,0.0,0.0,0.0,0.0,0.0,0.0,0.0,0.0,0.0,0.0,0.0,0.0,0.0,0.0,0.0,0.0,0.0,6.1171,6.2337,6.7457,7.024,7.0526,7.0282,6.9519,6.8121,6.682,6.5018,0.0,0.0,0.0,0.0,0.0,0.0,0.0,0.0,0.0,0.0,0.0,0.0,0.0,0.0,0.0,0.0,0.0,0.0,0.0,0.0,0.0,0.0,0.0,0.0,0.0,0.0,0.0,0.0,5.4373,5.4825,5.4895,0.0,0.0,0.0,0.0,0.0,0.0,0.0,0.0,0.0,0.0,5.9679,6.0373,6.102,6.1082,6.0311,6.0019,5.9477,5.8381,5.7926,5.6937,5.4583,0.0,0.0,0.0,0.0,0.0,0.0,0.0,0.0,0.0,0.0,0.0,0.0,0.0,0.0,0.0,0.0,0.0,0.0,0.0,0.0,0.0,0.0,0.0,0.0,0.0,0.0,0.0,5.4458,0.0,0.0,5.5756,0.0,0.0,0.0,0.0,0.0,0.0,0.0,0.0,0.0,0.0,0.0,0.0,0.0,0.0,0.0,0.0,0.0,0.0,0.0,0.0,0.0,0.0,6.1951,6.3507,6.8412,7.1187,7.1874,7.1874,7.1815,7.1721,6.9813,6.8398,6.7674,0.0,0.0,0.0,0.0,0.0,0.0,0.0,0.0,0.0,0.0,0.0,0.0,0.0,0.0,0.0,0.0,0.0,0.0,0.0,0.0,0.0,0.0,0.0,0.0,0.0,0.0,5.7551,5.7949,5.7169,0.0,0.0,0.0,0.0,0.0,0.0,0.0,0.0,0.0,5.8798,6.0523,6.1835,6.2615,6.2333,6.1747,6.0754,5.9825,5.8979,5.8321,5.9001,5.8352,0.0,0.0,0.0,0.0,0.0,0.0,0.0,0.0,0.0,0.0,0.0,0.0,0.0,0.0,0.0,0.0,0.0,0.0,0.0,0.0,0.0,0.0,0.0,0.0,0.0,0.0,0.0,5.9158,5.8711,0.0,0.0,0.0,0.0,0.0,0.0,0.0,0.0,0.0,0.0,0.0,6.7654,6.8961,0.0,0.0,0.0,0.0,0.0,0.0,0.0,0.0,0.0,0.0,0.0,0.0,6.3787,6.6228,7.1246,7.4332,7.5061,7.4863,7.4351,7.3528,7.23,7.0677,6.842,0.0,0.0,0.0,0.0,0.0,0.0,0.0,0.0,0.0,0.0,0.0,0.0,0.0,0.0,0.0,0.0,0.0,0.0,0.0,0.0,0.0,0.0,0.0,0.0,0.0,5.5696,0.0,0.0,0.0,0.0,0.0,0.0,0.0,0.0,0.0,0.0,5.7263,5.8614,6.0291,6.1918,6.3383,6.452,6.4538,6.4234,0.0,0.0,0.0,0.0,0.0,0.0,0.0,0.0,0.0,0.0,0.0,0.0,0.0,5.6152,5.548,5.2036,5.0567,4.9855,5.0161,0.0,0.0,0.0,0.0,0.0,0.0,0.0,0.0,0.0,0.0,0.0,0.0,0.0,0.0,6.3058,6.2839,6.2692,0.0,0.0,0.0,0.0,0.0,0.0,0.0,0.0,7.07,7.2067,7.1985,7.3673,7.352,7.176,7.1419,6.9287,0.0,0.0,0.0,0.0,0.0,0.0,0.0,0.0,6.5828,6.8394,7.3338,7.6267,7.6958,7.6798,7.629,7.5434,7.4051,7.1992,6.9238,6.5814,6.3785,0.0,0.0,0.0,0.0,0.0,0.0,0.0,0.0,0.0,0.0,0.0,0.0,0.0,0.0,0.0,0.0,0.0,0.0,0.0,0.0,0.0,0.0,0.0,5.7134,0.0,0.0,0.0,0.0,0.0,0.0,0.0,0.0,0.0,5.8478,5.9665,6.1168,6.265,6.4026,6.5239,6.5947,0.0,0.0,0.0,0.0,0.0,0.0,0.0,6.0886,6.0383,5.9491,5.9022,5.984,6.0593,6.0675,5.9543,0.0,0.0,5.5307,5.3643,5.2949,5.3016,5.2462,5.1989,5.1961,5.2212,5.2153,0.0,0.0,0.0,0.0,6.4658,0.0,0.0,0.0,6.5809,6.66,0.0,6.655,0.0,0.0,0.0,0.0,6.6635,6.9343,0.0,0.0,7.5439,7.7262,7.7296,7.8017,7.7983,7.7296,7.7162,7.5989,7.3532,6.7018,0.0,0.0,0.0,0.0,0.0,0.0,6.7904,7.026,7.4407,7.6943,7.7577,7.761,7.761,7.7511,7.5009,7.255,7.0354,6.9262,6.7082,6.3647,6.4171,0.0,0.0,0.0,0.0,0.0,0.0,0.0,0.0,0.0,0.0,0.0,0.0,0.0,0.0,0.0,0.0,0.0,0.0,0.0,0.0,5.7887,0.0,0.0,0.0,0.0,0.0,0.0,0.0,0.0,0.0,6.1929,6.0942,6.2497,6.4392,6.591,0.0,0.0,0.0,0.0,6.5657,6.4882,6.4449,6.4023,6.3362,6.3756,6.3596,6.1783,0.0,0.0,6.1381,6.213,6.2219,6.0136,6.0795,6.1186,5.9911,5.7848,5.6435,5.6128,5.5304,5.4791,5.4764,5.5423,5.5738,7.5936,0.0,0.0,0.0,0.0,7.0381,7.1589,7.2853,7.4135,7.4184,7.3358,7.2713,0.0,0.0,0.0,0.0,0.0,0.0,7.2381,7.4354,7.7196,7.8758,7.906,8.0005,7.9971,7.906,7.8724,7.7479,7.542,7.312,6.9841,6.574,0.0,0.0,0.0,0.0,7.0338,7.2261,7.5463,7.7515,7.8209,7.8242,7.8242,7.8242,7.7166,7.5599,7.3409,7.1564,6.977,6.7948,6.5354,0.0,0.0,0.0,0.0,0.0,0.0,0.0,0.0,0.0,0.0,0.0,0.0,0.0,0.0,0.0,0.0,0.0,0.0,0.0,5.8608,5.8669,5.9165,0.0,0.0,0.0,0.0,0.0,0.0,0.0,0.0,0.0,6.6243,6.6102,6.6356,0.0,0.0,6.7936,6.8101,6.7832,6.7639,6.7687,6.7304,0.0,6.587,6.5326,6.4926,6.4678,6.5282,6.5468,6.4502,6.429,6.3868,6.2809,6.2608,6.2274,6.1223,5.9824,5.8779,5.8577,5.7913,5.7251,5.7251,5.7052,5.6623,8.0596,7.6594,7.5554,7.4657,7.403,7.5082,7.6241,7.7322,7.8341,7.8402,7.7798,7.7196,7.5673,7.3426,7.2789,0.0,0.0,0.0,7.5573,7.7763,7.9584,8.0716,8.1322,8.222,8.2101,8.1288,8.0952,7.9922,7.8136,7.7479,7.5319,7.1686,0.0,6.8633,6.8169,7.0731,7.2802,7.4222,7.6624,7.808,7.8511,7.8617,7.8724,7.883,7.8374,7.7176,7.5256,7.3636,7.1807,6.9771,6.7433,6.6009,0.0,0.0,0.0,0.0,0.0,0.0,0.0,0.0,0.0,0.0,0.0,6.0349,5.9455,0.0,0.0,0.0,5.9523,6.0011,6.0203,6.0536,0.0,0.0,0.0,0.0,0.0,0.0,0.0,6.4749,6.6416,6.7984,6.913,6.8909,6.8707,6.8823,6.889,6.8964,6.9257,0.0,6.8983,6.9268,6.8945,6.8437,6.7767,6.6999,6.6419,6.6409,6.6615,6.6586,6.6161,6.5754,6.5235,6.4493,6.3989,6.3414,6.2426,6.1434,6.0615,6.003,5.9332,5.8869,5.884,5.832,5.7772,8.4374,8.285,8.0372,7.9089,7.8829,7.9447,7.9585,7.9461,7.9723,8.0163,8.0699,8.0255,7.9583,7.8691,7.7345,0.0,7.8231,7.8707,7.9719,8.1393,8.2137,8.2847,8.349,8.42,8.4167,8.349,8.3456,8.2712,8.1359,8.0427,7.928,7.7832,7.4223,7.2547,7.3043,7.4173,7.526,7.6142,7.7762,7.8564,7.8564,7.883,7.9094,7.9288,7.867,7.7631,7.619,7.5353,7.3342,7.0071,6.9861,6.8707,6.6136,0.0,0.0,0.0,0.0,0.0,0.0,0.0,0.0,0.0,0.0,0.0,0.0,0.0,0.0,5.9784,6.0611,0.0,6.1574,6.3028,0.0,0.0,0.0,6.5386,6.5215,6.5786,6.6418,6.6956,0.0,0.0,7.0307,7.0973,7.1142,7.0463,7.0303,7.0303,7.0223,7.0002,6.9893,6.9846,6.9607,6.9367,6.8928,6.8453,6.782,6.7221,6.7057,6.6901,6.6638,6.648,6.6054,6.507,6.485,6.4463,6.3337,6.2816,6.2228,6.0785,6.0116,5.9828,5.9653,5.9335,5.8784,8.5401,8.4473,8.3271,8.2189,8.1325,8.1738,8.2342,8.2973,8.324,8.311,8.2705,8.2049,8.0951,7.9499,7.8906,7.9193,8.019,8.0306,8.1034,8.2171,8.2915,8.3321,8.3524,8.3693,8.3659,8.3456,8.2949,8.2475,8.2137,8.1916,8.129,8.0378,7.9262,7.7547,7.5439,7.6673,7.7404,7.7447,7.8607,7.9179,7.9179,7.9232,7.9035,7.8518,7.8555,7.7884,7.6405,7.5127,7.3892,7.2549,6.9771,6.8229,6.8267,6.6098,0.0,0.0,0.0,0.0,0.0,0.0,0.0,0.0,0.0,6.2775,6.0981,0.0,6.2605,0.0,6.2285,6.294,6.3945,6.4585,0.0,0.0,6.6758,6.7087,6.746,6.7789,6.8164,6.8702,6.9576,7.0663,7.1953,7.2113,7.2078,7.1895,7.1378,7.0995,7.0779,7.0687,7.0502,7.0176,6.9893,6.9607,6.9334,6.8847,6.8351,6.8,6.7593,6.7181,6.6953,6.6343,6.5808,6.5538,6.507,6.4574,6.3819,6.3649,6.3361,6.2515,6.1551,6.0557,5.9857,5.9303,5.8663,8.6139,8.544,8.4708,8.3877,8.3084,8.3172,8.3515,8.4048,8.4818,8.4708,8.393,8.3219,8.2285,8.1282,8.086,8.1129,8.1888,8.1993,8.2522,8.3389,8.3795,8.3998,8.3998,8.3998,8.3998,8.3964,8.3592,8.3219,8.2915,8.2915,8.2543,8.1799,8.1644,8.0645,7.8994,7.9175,7.9202,7.9046,7.9303,7.944,7.9596,7.9596,7.9278,7.864,7.8758,7.7965,7.6144,7.4998,7.3979,7.3003,7.0364,6.9021,6.9184,6.7528,6.6221,0.0,0.0,0.0,0.0,0.0,0.0,0.0,0.0,0.0,0.0,0.0,6.4926,6.4863,6.5522,6.6217,6.669,6.7769,6.8494,6.8665,6.8974,6.9191,6.9263,6.9467,6.9782,7.0318,7.0837,7.1518,7.2552,7.2621,7.2531,7.2394,7.2056,7.1639,7.1165,7.0961,7.0779,7.0549,7.0223,6.9846,6.943,6.914,6.8797,6.8301,6.7949,6.7593,6.7109,6.6607,6.6183,6.5754,6.5429,6.5016,6.4407,6.4045,6.3762,6.3448,6.2722,6.1727,6.0701,5.944,5.842,8.6754,8.5984,8.5315,8.471,8.4156,8.3939,8.3884,8.4027,8.5189,8.5303,8.4626,8.4031,8.3549,8.3235,8.272,8.2788,8.3181,8.3549,8.3993,8.4553,8.4688,8.4742,8.4606,8.4606,8.4606,8.4606,8.4606,8.4302,8.3659,8.3625,8.3253,8.2577,8.2543,8.2543,8.2457,8.1432,8.0819,8.0617,8.0062,7.9831,7.9987,7.9987,7.9685,7.911,7.8923,7.7807,7.5723,7.4911,7.3929,7.2688,7.142,7.0454,6.9918,6.9066,6.8371,0.0,6.7659,0.0,0.0,0.0,0.0,0.0,0.0,0.0,0.0,6.6331,6.7084,6.7721,6.913,6.983,6.9481,7.1351,7.203,7.0751,7.1156,7.1397,7.0862,7.107,7.1386,7.1756,7.2034,7.2385,7.288,7.279,7.2587,7.244,7.236,7.209,7.1402,7.1098,7.095,7.0971,7.059,7.0173,6.9772,6.9529,6.9188,6.855,6.8301,6.8,6.7285,6.7109,6.6764,6.613,6.5915,6.57,6.507,6.4518,6.4127,6.4015,6.3471,6.2657,6.1513,5.9954,5.8817,8.7223,8.6018,8.585,8.5069,8.3884,8.4048,8.4426,8.4887,8.5128,8.5181,8.4992,8.5006,8.4601,8.3955,8.3406,8.3297,8.3716,8.4375,8.4485,8.4319,8.5142,8.5215,8.464,8.4606,8.4606,8.4606,8.4606,8.4539,8.4403,8.4403,8.4031,8.3321,8.3287,8.3287,8.3287,0.0,0.0,0.0,8.1402,8.1335,8.102,8.1037,8.0395,7.916,7.7942,0.0,7.5213,7.4398,7.3992,7.3832,7.2478,0.0,0.0,0.0,0.0,0.0,0.0,0.0,0.0,0.0,0.0,0.0,7.0278,7.0024,6.7587,6.8194,6.891,6.9336,7.0443,7.1331,7.1721,7.2819,7.337,7.2957,7.3323,7.3273,7.2539,7.3048,7.342,7.2863,7.3039,7.3401,7.3683,7.3231,7.2632,7.2406,7.2394,7.209,7.1413,7.1267,7.1288,7.1379,7.099,7.0756,7.0644,7.0115,6.9607,6.9188,6.8797,6.8401,6.8,6.7593,6.7368,6.7026,6.6869,6.6554,6.5938,6.5561,6.5125,6.474,6.3954,6.2819,6.1148,6.0479,5.9981,8.7442,8.6432,8.6062,8.5254,0.0,8.4372,8.4897,8.5641,8.5482,8.5429,8.5429,8.5074,8.4656,8.4211,8.4177,8.4211,8.4211,8.4885,8.5012,8.4674,8.5206,8.5173,8.4606,8.4606,8.4606,8.4606,8.4606,8.4606,8.4606,8.4606,8.4437,8.4065,8.4065,8.4065,8.4031,8.3693,8.2949,8.1866,8.1711,8.134,8.0784,8.075,8.0259,7.9325,7.8206,0.0,0.0,0.0,0.0,0.0,0.0,0.0,0.0,7.2494,0.0,7.239,7.1744,7.1201,7.0981,7.1636,7.1912,7.1567,7.2912,7.2939,7.0926,7.0905,7.1346,7.2236,7.2854,7.3318,7.3645,7.4455,7.4688,7.416,7.3925,7.3611,7.3092,7.3123,7.3117,7.2809,7.2957,7.3172,7.3264,7.3102,7.2642,7.2146,7.2282,7.2124,7.1481,7.1312,7.13,7.1283,7.1084,7.0837,7.0567,7.0287,6.9846,6.9463,6.9221,6.8797,6.8301,6.8,6.7695,6.7439,6.7317,6.6962,6.6248,6.5985,6.5589,6.4514,6.4111,6.3574,6.2037,6.1322,6.0816,8.763,8.6708,8.6121,8.5398,8.4533,8.4635,8.5235,8.6113,8.6088,0.0,0.0,8.5114,8.4581,8.4285,8.4747,8.48,8.4587,8.5335,8.5388,8.4992,8.5264,8.509,8.464,8.4606,8.4606,8.4606,8.4606,8.4606,8.4606,8.4606,8.4606,8.4606,8.4606,8.4606,8.4573,8.3998,8.3321,8.2662,8.1918,8.1173,8.0462,8.0462,8.024,7.9741,7.8822,7.7877,7.678,7.5595,7.4922,7.483,7.4425,7.4375,7.4856,7.4885,7.4869,7.4869,7.4869,7.4593,7.405,7.4119,7.4257,7.4361,7.4843,7.4766,7.405,7.3429,7.3671,7.5016,7.511,7.5145,7.5283,7.5913,7.5962,7.5131,7.4366,7.3753,7.3416,7.299,7.2768,7.2571,7.2819,7.2793,7.264,7.2731,7.258,7.1882,7.192,7.2022,7.147,7.1357,7.1401,7.1253,7.1182,7.0909,7.0563,7.037,7.0115,6.9655,6.9478,6.9188,6.8649,6.8351,6.8151,6.7848,6.758,6.7087,6.6531,6.613,6.5565,6.4278,6.4364,6.4421,6.3395,6.2547,6.1805,8.7846,8.613,8.6242,8.5511,8.4298,8.4938,8.5439,8.5932,8.6704,8.6744,8.6079,8.5763,8.5249,8.45,8.4392,8.4319,8.4332,8.5688,8.5586,8.444,8.5939,8.5946,8.464,8.4606,8.4606,8.4606,8.4606,8.4606,8.4606,8.4606,8.4606,8.4606,8.4606,8.4606,8.4606,8.4505,8.4205,8.3668,8.2714,8.2003,8.1511,8.1477,8.1288,8.0736,7.9385,7.84,7.7811,7.7571,7.7251,7.6813,7.672,7.6455,7.5937,7.5317,7.4869,7.4869,7.4869,7.4834,7.4809,7.5395,7.6051,7.6637,7.6258,7.5602,7.48,7.4628,7.4938,7.5878,7.5913,7.6223,7.6765,7.6982,7.6937,7.672,7.5966,7.5146,7.4449,7.4253,7.3875,7.3335,7.3508,7.3516,7.3198,7.2638,7.2069,7.1712,7.1626,7.1447,7.1402,7.1626,7.1825,7.1846,7.1626,7.1486,7.1239,7.0837,7.0396,7.0129,6.9893,6.9607,6.9188,6.8928,6.8732,6.8748,6.7929,6.7454,6.758,6.6502,6.5663,6.5294,6.4934,6.4476,6.4234,6.3848,6.324,8.7352,8.6018,8.5717,8.5,8.4027,8.493,8.5688,8.6399,8.6847,8.6447,8.5376,8.5201,8.4945,8.464,8.4694,8.4694,8.4727,8.5565,8.5444,8.4761,8.5511,8.5478,8.4674,8.4606,8.4606,8.4606,8.4606,8.4606,8.4606,8.48,8.48,8.4606,8.4606,8.48,8.5029,8.4551,8.4026,8.3534,8.2938,8.2395,8.1899,8.149,8.1297,8.12,8.007,7.9492,7.9418,7.9005,7.8672,7.8419,7.8419,7.812,7.7396,7.7016,7.6592,7.6179,7.6144,7.6189,7.6144,7.6499,7.6878,7.7144,7.6913,7.6568,7.6179,7.5765,7.5913,7.6602,7.6361,7.643,7.7154,7.7223,7.7223,7.7223,7.64,7.5598,7.4876,7.4359,7.3886,7.3232,7.3145,7.3145,7.3095,7.2442,7.2019,7.181,7.1501,7.1312,7.1312,7.1492,7.1637,7.1637,7.1546,7.1375,7.1237,7.0968,7.0628,7.0223,7.0082,6.9846,6.9445,6.9055,6.8827,6.8911,6.8209,6.7509,6.7264,6.6741,6.5927,6.452,6.4747,6.4602,6.4346,6.3787,6.3158,8.7227,8.5959,8.5336,8.4656,8.4131,8.5052,8.5978,8.6873,8.6738,8.6095,8.5215,8.4979,8.4877,8.4877,8.5007,8.4958,8.5045,8.5425,8.5338,8.5045,8.5215,8.5022,8.464,8.4606,8.4606,8.4606,8.4606,8.4606,8.4606,8.4958,8.4958,8.4747,8.4606,8.4906,8.5377,8.459,8.396,8.3549,8.3193,8.2631,8.1992,8.1376,8.12,8.1407,8.0905,8.0691,8.0798,8.0327,7.9948,7.9776,7.9776,7.9431,7.8706,7.8499,7.812,7.7534,7.7327,7.7223,7.7223,7.7223,7.7223,7.7223,7.7223,7.7178,7.7189,7.6661,7.6602,7.7051,7.6706,7.6637,7.712,7.7223,7.7223,7.7144,7.6568,7.5731,7.4972,7.4257,7.3498,7.2885,7.2671,7.2705,7.2628,7.2288,7.1942,7.1766,7.1535,7.1312,7.1312,7.1312,7.1312,7.1312,7.1312,7.1255,7.1007,7.1041,7.0779,7.0363,7.027,7.0035,6.9604,6.8983,6.8705,6.8875,6.845,6.7668,6.6678,6.6566,6.5967,6.4384,6.4333,6.4488,6.403,6.3672,6.3007,8.8203,8.6264,8.5639,8.5224,8.4868,8.5485,8.6142,8.6771,8.6196,8.623,8.6602,8.596,8.5689,8.5587,8.4945,8.4694,8.4727,8.5404,8.539,8.4795,8.5404,8.5317,8.464,8.4606,8.4606,8.4606,8.4606,8.4606,8.464,8.4958,8.5097,8.5011,8.4747,8.48,8.5116,8.5048,8.4847,8.4639,8.3918,8.2889,8.1551,8.1379,8.149,8.1763,8.1694,8.1625,8.1638,8.1638,8.1259,8.0603,8.0534,8.0189,7.9465,7.8775,7.8396,7.8258,7.7603,7.7223,7.7223,7.7223,7.7223,7.7223,7.7223,7.7223,7.7223,7.7154,7.712,7.7144,7.7154,7.712,7.7178,7.7223,7.7223,7.7144,7.6602,7.5809,7.5041,7.4257,7.3498,7.2774,7.2747,7.2671,7.2628,7.2288,7.1888,7.1535,7.1401,7.1312,7.1312,7.1312,7.1312,7.1312,7.1312,7.1278,7.1199,7.1267,7.094,7.0494,7.0436,7.0203,6.9808,6.9618,6.9519,6.898,6.8423,6.7838,6.725,6.6565,6.5843,6.5188,6.4657,6.4191,6.4041,6.422,6.4007,8.7829,8.6221,8.6181,8.5748,8.5224,8.5431,8.5763,8.623,8.6399,8.6873,8.7482,8.7211,8.6636,8.579,8.5452,8.508,8.4674,8.4945,8.4945,8.4674,8.4979,8.4911,8.464,8.4606,8.4606,8.4606,8.4606,8.466,8.4906,8.5168,8.5514,8.5737,8.5377,8.5377,8.5703,8.5224,8.4709,8.4304,8.3596,8.2701,8.1771,8.1668,8.1715,8.181,8.1776,8.1776,8.1776,8.1776,8.1638,8.1328,8.1328,8.0948,8.0189,7.9879,7.9327,7.8465,7.7672,7.7223,7.7223,7.7223,7.7223,7.7223,7.7223,7.7223,7.7223,7.7223,7.7223,7.7223,7.7223,7.7223,7.7223,7.7223,7.7223,7.7189,7.6947,7.6464,7.5706,7.4903,7.4154,7.3429,7.2989,7.2671,7.2628,7.2288,7.1854,7.1546,7.1367,7.1312,7.1312,7.1312,7.1312,7.1312,7.1312,7.1109,7.0804,7.0635,7.0456,7.0198,6.9937,6.9775,6.9963,6.9462,6.9103,6.9235,6.8611,6.8107,6.7932,6.726,6.6579,6.6071,6.5834,6.5415,6.5271,6.5108,6.4508,8.792,8.6846,8.6845,8.6242,8.5288,8.5397,8.5594,8.579,8.6163,8.6907,8.7922,8.7786,8.711,8.6163,8.5892,8.5351,8.4674,8.4606,8.4606,8.4606,8.4606,8.4606,8.4606,8.4606,8.4606,8.464,8.4694,8.4958,8.5273,8.5411,8.5737,8.6043,8.5481,8.5429,8.5715,8.4927,8.422,8.3693,8.3156,8.2535,8.1914,8.1776,8.1776,8.1776,8.1776,8.1776,8.1776,8.1776,8.1776,8.1776,8.1776,8.1535,8.0983,8.0741,7.9982,7.8534,7.7672,7.7223,7.7223,7.7223,7.7223,7.7223,7.7223,7.7223,7.7223,7.7223,7.7223,7.7223,7.7223,7.7223,7.7223,7.7223,7.7223,7.7223,7.7223,7.6913,7.6189,7.5524,7.4878,7.3947,7.3326,7.2877,7.2613,7.2245,7.1898,7.16,7.1412,7.1312,7.1312,7.1312,7.1312,7.1312,7.1312,7.1109,7.0601,7.0364,7.014,6.985,6.9659,6.9678,6.9936,6.9304,6.8884,6.915,6.8473,6.8062,6.7922,6.7578,6.7485,6.7119,6.6817,6.6579,6.6112,6.5755,6.5416,8.9062,8.806,8.7676,8.6645,8.5342,8.5682,8.579,8.5655,8.5114,8.5993,8.7719,8.7313,8.6941,8.6839,8.6196,8.5384,8.4674,8.4674,8.464,8.464,8.464,8.4606,8.4606,8.4606,8.464,8.4606,8.4906,8.5325,8.5788,8.5635,8.5635,8.5856,8.4916,8.4574,8.4773,8.4121,8.3463,8.3038,8.288,8.2535,8.1914,8.1776,8.1776,8.1776,8.1776,8.1776,8.1776,8.1776,8.1776,8.1776,8.1776,8.1776,8.1672,8.0983,7.9913,7.8603,7.7627,7.7258,7.7258,7.7258,7.7223,7.7223,7.7223,7.7223,7.7223,7.7223,7.7223,7.7223,7.7223,7.7223,7.7223,7.7223,7.7223,7.7223,7.7223,7.6878,7.6223,7.5982,7.5326,7.4188,7.3671,7.3214,7.2442,7.2115,7.1942,7.1644,7.1457,7.1312,7.1312,7.1312,7.1312,7.1312,7.1312,7.1278,7.1176,7.0601,7.014,6.9794,6.9592,6.9625,6.9574,6.9497,6.937,6.923,6.915,6.8771,6.8095,6.7883,6.8068,6.7848,6.7495,6.7192,6.7245,6.6709,6.6418,8.8832,8.8415,8.826,8.7486,8.6371,8.6446,8.596,8.508,8.5283,8.6061,8.7211,8.7516,8.7617,8.7583,8.7313,8.6264,8.4776,8.5114,8.5114,8.4674,8.48,8.48,8.464,8.4958,8.4958,8.4747,8.5116,8.5532,8.589,8.5941,8.5802,8.5489,8.508,8.4701,8.425,8.3527,8.3059,8.288,8.2466,8.2052,8.1845,8.1776,8.1776,8.1776,8.1776,8.1776,8.1776,8.1776,8.1776,8.1776,8.1776,8.1776,8.1672,8.0603,7.9948,7.9672,7.8189,7.743,7.7844,7.7499,7.7223,7.7223,7.7223,7.7223,7.7223,7.7223,7.7223,7.7223,7.7223,7.7223,7.7223,7.7223,7.7223,7.7223,7.7223,7.712,7.6661,7.5937,7.5076,7.4499,7.3774,7.2904,7.2647,7.2331,7.2115,7.1898,7.1634,7.1457,7.1312,7.1312,7.1312,7.1312,7.1312,7.1312,7.1312,7.0669,7.0083,6.9691,6.9457,6.9671,6.9702,6.9883,6.9843,6.9683,6.9689,6.9382,6.8639,6.8871,6.8909,6.8909,6.8474,6.8295,6.8624,6.7922,6.763,8.879,8.879,8.879,8.8059,8.6974,8.6907,8.6196,8.5114,8.5554,8.6332,8.7245,8.7786,8.7989,8.8057,8.826,8.7279,8.5486,8.5689,8.5486,8.5012,8.5094,8.4906,8.4747,8.5116,8.5168,8.4906,8.5325,8.5737,8.6008,8.5953,8.5673,8.5225,8.4742,8.419,8.3604,8.2914,8.2535,8.2466,8.2052,8.181,8.1776,8.1776,8.1776,8.1776,8.1776,8.1776,8.1776,8.1776,8.1776,8.1776,8.1776,8.1776,8.1672,8.0569,7.9982,8.0051,7.8603,7.7672,7.7913,7.7534,7.7223,7.7223,7.7223,7.7223,7.7223,7.7223,7.7223,7.7223,7.7223,7.7223,7.7223,7.7223,7.7223,7.7223,7.7223,7.7223,7.7144,7.6282,7.5524,7.48,7.3602,7.2809,7.2671,7.2459,7.2245,7.2115,7.1864,7.1678,7.1457,7.1367,7.1356,7.1312,7.1312,7.1312,7.1312,7.0939,7.0398,7.0016,6.9803,6.9906,6.9895,7.0193,7.0296,7.0136,6.9929,6.9609,6.9581,6.9732,6.9798,6.9798,6.9552,6.9225,6.9207,6.9022,6.8715,8.9072,8.9004,8.9072,8.826,8.7008,8.6907,8.6467,8.5689,8.5655,8.6399,8.7482,8.7888,8.7922,8.818,8.862,8.8214,8.6961,8.6203,8.5864,8.5729,8.5298,8.4958,8.4694,8.5063,8.5221,8.5168,8.5635,8.6043,8.621,8.5708,8.5328,8.4915,8.3811,8.319,8.2914,8.2259,8.1845,8.1879,8.181,8.1776,8.1776,8.1776,8.1776,8.1776,8.1776,8.1776,8.1776,8.1776,8.1776,8.1776,8.1776,8.1776,8.1707,8.0983,8.0293,7.9776,7.8844,7.8051,7.7465,7.7327,7.7223,7.7223,7.7223,7.7223,7.7223,7.7223,7.7223,7.7223,7.7223,7.7223,7.7223,7.7223,7.7223,7.7223,7.7223,7.7223,7.7223,7.7189,7.6568,7.5007,7.3602,7.2816,7.2671,7.2501,7.2365,7.2382,7.2184,7.1966,7.178,7.1658,7.1501,7.1401,7.1312,7.1312,7.1312,7.1244,7.0804,7.0432,7.0364,7.0276,7.0176,7.0275,7.054,7.0482,7.0296,7.001,6.9775,6.9893,6.9846,6.9846,6.9846,6.9798,6.9599,6.9401,6.9368,8.8801,8.8429,8.8903,8.8226,8.6974,8.6907,8.6196,8.5046,8.4979,8.5554,8.6433,8.7008,8.7626,8.8197,8.8537,8.8477,8.8096,8.6992,8.6239,8.603,8.5595,8.5168,8.5097,8.5428,8.5635,8.5686,8.584,8.6043,8.621,8.6053,8.5501,8.4466,8.3914,8.3121,8.2224,8.1914,8.1776,8.1776,8.1776,8.1776,8.1776,8.1776,8.1776,8.1776,8.1776,8.1776,8.1776,8.1776,8.1776,8.1776,8.1776,8.1776,8.1672,8.1052,8.0776,8.0879,7.9362,7.8603,7.8672,7.7764,7.7258,7.7223,7.7223,7.7223,7.7223,7.7223,7.7223,7.7223,7.7223,7.7223,7.7223,7.7223,7.7223,7.7223,7.7223,7.7223,7.7154,7.6775,7.5775,7.4464,7.3705,7.3257,7.2809,7.2586,7.2673,7.2923,7.2553,7.2218,7.2454,7.1971,7.16,7.1512,7.1412,7.1312,7.1312,7.1312,7.1075,7.0838,7.077,7.0635,7.0501,7.0513,7.0748,7.0699,7.0549,7.0363,7.0176,7.0035,6.9988,6.9893,6.9846,6.9813,6.9765,6.968,6.9514,8.8497,8.7685,8.8395,8.782,8.6535,8.6501,8.596,8.5148,8.5046,8.5486,8.623,8.6704,8.7477,8.8239,8.8429,8.8558,8.8638,8.753,8.6776,8.6329,8.5752,8.5443,8.5437,8.589,8.6149,8.6131,8.6079,8.6144,8.6294,8.5984,8.5259,8.419,8.3742,8.3018,8.1914,8.1776,8.1776,8.1776,8.1776,8.1776,8.1776,8.1776,8.1776,8.1776,8.1776,8.1776,8.1776,8.1776,8.1776,8.1776,8.1776,8.1776,8.1741,8.1328,8.1155,8.0983,8.0155,7.9258,7.9051,7.8154,7.7499,7.7327,7.7223,7.7223,7.7223,7.7223,7.7223,7.7223,7.7223,7.7223,7.7223,7.7223,7.7223,7.7223,7.7223,7.7223,7.712,7.6568,7.5671,7.4568,7.399,7.3464,7.2912,7.2705,7.2801,7.3052,7.2768,7.2442,7.2638,7.2258,7.1922,7.1688,7.1512,7.1412,7.1312,7.1312,7.1312,7.1244,7.121,7.1007,7.0861,7.0906,7.1052,7.0916,7.0733,7.0595,7.041,7.0316,7.027,7.0129,6.9988,6.9955,6.9921,6.9556,6.9423,8.8192,8.7076,8.7651,8.7144,8.5926,8.5824,8.5723,8.5655,8.5621,8.5926,8.6535,8.6805,8.7409,8.8225,8.8382,8.8613,8.8692,8.8115,8.7275,8.6573,8.5993,8.5716,8.5739,8.6193,8.6403,8.637,8.6267,8.6278,8.626,8.5639,8.4811,8.4052,8.3328,8.2569,8.1914,8.1776,8.1776,8.1776,8.1776,8.1776,8.1776,8.1776,8.1776,8.1776,8.1776,8.1776,8.1776,8.1776,8.1776,8.1776,8.1776,8.1776,8.1776,8.1776,8.1431,8.0914,8.0672,7.9891,7.8959,7.8521,7.8152,7.7688,7.7426,7.7223,7.7313,7.7268,7.7292,7.7396,7.7292,7.7213,7.7282,7.7258,7.7213,7.7223,7.7223,7.7223,7.7154,7.6602,7.5913,7.5085,7.4326,7.3602,7.2946,7.2774,7.274,7.2877,7.2809,7.2647,7.2657,7.2485,7.2106,7.1864,7.1688,7.1546,7.1412,7.1312,7.1312,7.1312,7.1312,7.1244,7.1109,7.1199,7.1222,7.1052,7.0916,7.0779,7.0641,7.0595,7.0456,7.027,7.0223,7.019,7.001,6.9743,6.9677,8.7753,8.6974,8.711,8.6636,8.5824,8.579,8.5452,8.4979,8.4945,8.5114,8.5452,8.6433,8.7179,8.7882,8.8394,8.8989,8.9033,8.8622,8.7692,8.6781,8.6663,8.6131,8.5784,8.6053,8.6125,8.5942,8.6011,8.6093,8.626,8.557,8.4811,8.4018,8.3293,8.2535,8.1914,8.1776,8.1776,8.1776,8.1776,8.1776,8.1776,8.1776,8.1776,8.1776,8.1776,8.1776,8.1776,8.1776,8.1776,8.1776,8.1776,8.1776,8.1776,8.1776,8.1672,8.1431,8.0914,8.0651,8.0338,7.949,7.8928,7.8955,7.8093,7.7754,7.7676,7.7402,7.7544,7.7775,7.7637,7.7465,7.781,7.7568,7.7292,7.7223,7.7223,7.7223,7.7189,7.7051,7.6637,7.5878,7.5085,7.4292,7.3567,7.3127,7.2989,7.3265,7.3153,7.2981,7.3163,7.2897,7.2588,7.2184,7.1942,7.1688,7.1501,7.1401,7.1312,7.1312,7.1312,7.1345,7.1278,7.1233,7.1267,7.1222,7.1131,7.1007,7.0916,7.0825,7.0641,7.0502,7.0502,7.0502,7.0423,7.0209,7.0209,8.738,8.6433,8.6433,8.5993,8.5317,8.5283,8.5012,8.4674,8.4606,8.4606,8.4843,8.552,8.6365,8.7098,8.7541,8.8031,8.8467,8.814,8.7264,8.6352,8.6489,8.6282,8.6022,8.6375,8.6447,8.5993,8.5926,8.6043,8.6106,8.557,8.4777,8.4018,8.3293,8.2535,8.1845,8.1776,8.1776,8.1776,8.1776,8.1776,8.1776,8.1776,8.1776,8.1776,8.1776,8.1776,8.1776,8.1776,8.1776,8.1776,8.1776,8.1776,8.1776,8.1776,8.1776,8.1776,8.1515,8.1309,8.0772,8.0124,7.9651,7.9227,7.8532,7.8307,7.8109,7.7798,7.7802,7.8435,7.7772,7.7706,7.8085,7.7706,7.7292,7.7223,7.7223,7.7223,7.7223,7.7223,7.6878,7.6189,7.5386,7.4636,7.3912,7.3395,7.3429,7.3679,7.3809,7.3912,7.4076,7.3568,7.3172,7.2793,7.2535,7.2395,7.1937,7.1692,7.1569,7.1491,7.1695,7.1661,7.1379,7.1345,7.1345,7.13,7.1312,7.1267,7.1131,7.1007,7.0916,7.0825,7.0825,7.0733,7.0608,7.0654,7.0654,8.711,8.5892,8.5757,8.5249,8.4708,8.464,8.4674,8.4606,8.4606,8.4606,8.4674,8.4708,8.5511,8.6239,8.67,8.676,8.7281,8.7453,8.6766,8.6267,8.6196,8.6208,8.6125,8.6719,8.6723,8.6404,8.6029,8.6111,8.6072,8.557,8.488,8.4225,8.3466,8.2673,8.219,8.1983,8.1879,8.181,8.1776,8.1776,8.1776,8.1776,8.1776,8.1776,8.1776,8.1672,8.1638,8.1603,8.1569,8.1535,8.1638,8.1672,8.1707,8.1776,8.1789,8.1896,8.1968,8.1617,8.0831,8.077,8.0281,7.931,7.8916,7.8657,7.8574,7.8151,7.8189,7.9162,7.8044,7.7958,7.8361,7.7913,7.7603,7.7568,7.743,7.7361,7.7178,7.7178,7.6903,7.6292,7.5533,7.4774,7.4257,7.3947,7.3912,7.4154,7.4292,7.4464,7.4602,7.4343,7.3981,7.3722,7.3429,7.3205,7.261,7.2059,7.1869,7.178,7.2101,7.2158,7.1571,7.1424,7.1379,7.1379,7.1345,7.1312,7.1267,7.1176,7.1098,7.1098,7.1007,7.0916,7.0779,7.0916,7.0916,8.6941,8.6569,8.5384,8.4776,8.464,8.4606,8.4606,8.4606,8.4606,8.4606,8.4742,8.5215,8.5715,8.6185,8.6681,8.739,8.7658,8.7727,8.7607,8.704,8.6575,8.6284,8.6182,8.6557,8.6455,8.6166,8.5993,8.6043,8.6072,8.5604,8.5121,8.4846,8.4052,8.3397,8.2742,8.2569,8.2328,8.1914,8.1776,8.1776,8.1776,8.1776,8.1776,8.1776,8.1776,8.1466,8.0983,8.0879,8.0603,8.0293,8.0569,8.1168,8.1547,8.119,8.1343,8.1945,8.1815,8.1688,8.1845,8.107,8.0541,8.0359,7.9555,7.9074,7.8993,7.8364,7.8642,7.9371,7.8875,7.8465,7.9017,7.912,7.8637,7.8223,7.8051,7.7844,7.7361,7.7223,7.7075,7.6844,7.6292,7.5775,7.5568,7.4912,7.4774,7.474,7.4809,7.4912,7.5016,7.511,7.486,7.4635,7.4419,7.4125,7.3489,7.2927,7.2693,7.256,7.2858,7.2621,7.2067,7.1842,7.1887,7.165,7.1312,7.1312,7.1312,7.1267,7.1222,7.1222,7.1267,7.1131,7.1052,7.1176,7.1176,8.6704,8.6264,8.5114,8.4606,8.4606,8.4606,8.4606,8.4606,8.4606,8.4606,8.4708,8.5114,8.5322,8.5516,8.5996,8.6484,8.6885,8.7092,8.704,8.6729,8.644,8.6217,8.6215,8.6285,8.6234,8.5976,8.589,8.6043,8.6072,8.5639,8.519,8.5121,8.4432,8.3604,8.3018,8.2914,8.25,8.1948,8.1776,8.1776,8.1776,8.1776,8.1776,8.1776,8.1776,8.1431,8.0741,8.0638,8.0363,8.0051,8.0201,8.0801,8.1228,8.0674,8.0905,8.1833,8.1593,8.1226,8.1295,8.1135,8.0697,8.0574,7.9878,7.9661,7.9351,7.8741,7.9014,7.974,7.9366,7.8672,7.9396,7.95,7.9155,7.8603,7.843,7.8085,7.743,7.7223,7.7223,7.7085,7.6533,7.6189,7.5913,7.5627,7.5558,7.5499,7.6051,7.6154,7.6223,7.6213,7.5834,7.5583,7.5436,7.5048,7.4385,7.39,7.3656,7.3649,7.3833,7.33,7.2575,7.2542,7.2529,7.1988,7.1312,7.1312,7.1312,7.1312,7.1312,7.1267,7.1267,7.1312,7.1368,7.1605,7.1458,8.6467,8.5723,8.4945,8.4606,8.4606,8.4606,8.4606,8.4606,8.4606,8.4606,8.4606,8.4606,8.4742,8.4727,8.506,8.5289,8.5652,8.5942,8.6316,8.6382,8.6196,8.6162,8.6228,8.6263,8.6247,8.5992,8.5992,8.6093,8.6022,8.5742,8.5486,8.5244,8.4811,8.4087,8.3362,8.3052,8.2707,8.1948,8.1776,8.1776,8.1776,8.1776,8.1776,8.1776,8.1776,8.1293,8.0603,8.0524,8.0547,8.0076,8.0105,8.0647,8.1021,8.0498,8.0404,8.1988,8.1469,8.1204,8.1225,8.1124,8.1002,8.0292,8.0289,8.0289,8.0167,7.9828,8.0,8.0124,8.0032,7.9465,7.981,8.0051,7.9569,7.8879,7.8603,7.8154,7.7465,7.7223,7.7223,7.7154,7.6844,7.6568,7.6464,7.6292,7.6292,7.6317,7.6834,7.7223,7.7223,7.7109,7.6627,7.6464,7.6238,7.5859,7.5195,7.491,7.4665,7.4498,7.4673,7.4139,7.3333,7.3187,7.2937,7.1819,7.1312,7.1312,7.1312,7.1312,7.1312,7.1312,7.1515,7.1718,7.1887,7.2056,7.1921,8.6467,8.5723,8.4945,8.4606,8.4606,8.4606,8.4606,8.4606,8.4606,8.4606,8.4606,8.4606,8.4606,8.4694,8.4958,8.5377,8.5788,8.6043,8.6244,8.6294,8.6194,8.6244,8.6329,8.6244,8.6244,8.6244,8.6194,8.6144,8.6093,8.6006,8.5834,8.5767,8.5662,8.5038,8.4052,8.3707,8.2983,8.2017,8.1832,8.1866,8.181,8.1776,8.1776,8.1776,8.1776,8.1121,8.0317,8.0593,8.0633,7.9469,7.9643,8.0801,8.1774,8.1269,8.1426,8.2051,8.1789,8.1426,8.1657,8.1854,8.1933,8.1826,8.1684,8.1684,8.16,8.1272,8.1056,8.127,8.1342,8.119,8.1397,8.119,8.0603,7.981,7.9155,7.8672,7.7637,7.7223,7.7223,7.7189,7.7051,7.6947,7.6844,7.6775,7.6775,7.6696,7.6972,7.7223,7.7223,7.7223,7.7041,7.7016,7.7006,7.6558,7.6006,7.5869,7.5677,7.5244,7.5238,7.5014,7.4366,7.3935,7.3323,7.2451,7.1706,7.1413,7.1413,7.1379,7.1345,7.1379,7.1718,7.2157,7.2124,7.2124,7.2597,8.5892,8.5148,8.4776,8.4606,8.4606,8.4606,8.4606,8.4606,8.4606,8.4606,8.4606,8.4606,8.4606,8.4694,8.4958,8.5377,8.584,8.6194,8.6294,8.6294,8.6194,8.6194,8.6244,8.6144,8.6093,8.6144,8.6194,8.6144,8.5941,8.6008,8.6043,8.5889,8.5699,8.4973,8.4107,8.3535,8.288,8.2052,8.1991,8.1978,8.1845,8.1776,8.1776,8.1776,8.1741,8.119,8.0477,8.0513,8.0692,8.0247,8.0369,8.1407,8.2171,8.2319,8.2058,8.269,8.2117,8.1697,8.2103,8.2183,8.2148,8.2148,8.2219,8.2183,8.2103,8.1815,8.174,8.1672,8.1817,8.1776,8.1741,8.1776,8.1017,7.9913,7.95,7.8775,7.7706,7.7327,7.7223,7.7223,7.7154,7.712,7.7154,7.7154,7.7144,7.7223,7.7223,7.7223,7.7223,7.7223,7.7223,7.7223,7.7223,7.7016,7.6558,7.6533,7.6464,7.61,7.5805,7.5626,7.5344,7.4878,7.4241,7.3435,7.2711,7.2079,7.1582,7.1582,7.1515,7.1515,7.2067,7.2406,7.2191,7.2293,7.2947,8.5317,8.4606,8.4606,8.4606,8.4606,8.4606,8.4606,8.4606,8.4606,8.4606,8.4606,8.4606,8.4606,8.4694,8.5011,8.548,8.5992,8.6244,8.6294,8.6244,8.6144,8.6144,8.6144,8.6043,8.5941,8.5992,8.6093,8.6093,8.589,8.5992,8.5992,8.577,8.5186,8.4529,8.4003,8.3362,8.2535,8.2177,8.2102,8.2102,8.1901,8.1776,8.1776,8.1776,8.1776,8.1397,8.0638,8.0997,8.1053,8.1005,8.1252,8.1918,8.2786,8.2673,8.2651,8.2886,8.2158,8.1891,8.1804,8.2388,8.2495,8.2576,8.2683,8.2718,8.2633,8.2596,8.2121,8.1783,8.1794,8.1871,8.1858,8.1776,8.1017,7.9948,7.9431,7.8982,7.781,7.7223,7.7223,7.7223,7.7223,7.7223,7.7223,7.7223,7.7223,7.7223,7.7223,7.7223,7.7223,7.7223,7.7223,7.7223,7.7223,7.7223,7.7041,7.7006,7.6947,7.6765,7.6572,7.6403,7.6096,7.5754,7.5082,7.4445,7.3912,7.3323,7.261,7.1954,7.1987,7.2123,7.2542,7.2847,7.2972,7.3334,7.3898,8.5351,8.4606,8.4606,8.4606,8.4606,8.4606,8.4606,8.4606,8.4606,8.4606,8.4606,8.4606,8.464,8.4747,8.5221,8.5737,8.6093,8.6244,8.6294,8.6294,8.6194,8.6194,8.6244,8.6043,8.589,8.584,8.589,8.5788,8.5737,8.5992,8.6093,8.582,8.5336,8.4796,8.4141,8.3466,8.2535,8.1983,8.1935,8.1888,8.1866,8.1832,8.1728,8.1776,8.1741,8.15,8.0995,8.1436,8.1815,8.1394,8.1681,8.2278,8.2954,8.267,8.2466,8.2355,8.1944,8.1443,8.1363,8.2191,8.2949,8.3137,8.3718,8.4182,8.3952,8.3626,8.323,8.3033,8.2635,8.2164,8.1871,8.1776,8.0948,8.0189,7.9534,7.8775,7.7706,7.7223,7.7223,7.7223,7.7223,7.7223,7.7223,7.7223,7.7223,7.7223,7.7223,7.7223,7.7223,7.7223,7.7223,7.7223,7.7223,7.7223,7.7223,7.7223,7.7223,7.7223,7.7099,7.6975,7.6723,7.6347,7.6119,7.5504,7.5015,7.4457,7.3741,7.316,7.2717,7.2911,7.3458,7.3821,7.4093,7.4469,7.4762,8.4945,8.4606,8.4606,8.4606,8.4606,8.4606,8.4606,8.4606,8.4606,8.4606,8.464,8.48,8.4906,8.4958,8.548,8.5737,8.589,8.6144,8.6294,8.6244,8.6194,8.6194,8.6144,8.589,8.572,8.5686,8.5669,8.5669,8.5669,8.584,8.5992,8.5889,8.532,8.4938,8.4486,8.3914,8.3369,8.281,8.2403,8.2237,8.2271,8.2005,8.1668,8.181,8.1776,8.1569,8.1513,8.1641,8.2153,8.1863,8.2046,8.2241,8.2676,8.2601,8.2356,8.1971,8.1942,8.1677,8.1473,8.2418,8.2933,8.3412,8.3993,8.4503,8.4527,8.42,8.3733,8.3253,8.2761,8.2303,8.1918,8.1776,8.119,8.0431,7.9672,7.8879,7.8017,7.7499,7.7223,7.7223,7.7223,7.7223,7.7223,7.7223,7.7223,7.7223,7.7223,7.7223,7.7223,7.7223,7.7223,7.7223,7.7223,7.7223,7.7223,7.7223,7.7223,7.7223,7.7178,7.7099,7.7099,7.6871,7.6609,7.6403,7.5946,7.5396,7.4768,7.4429,7.409,7.4216,7.4456,7.4603,7.4785,7.4969,7.5264,8.4606,8.4606,8.4606,8.4606,8.4606,8.4606,8.4606,8.4606,8.4606,8.4606,8.466,8.4853,8.4958,8.5168,8.5532,8.5737,8.5686,8.6093,8.6244,8.6194,8.6144,8.6144,8.6144,8.584,8.5583,8.5514,8.5566,8.5514,8.5618,8.5737,8.5941,8.5958,8.5286,8.5076,8.4934,8.4363,8.3679,8.3056,8.2433,8.2216,8.225,8.1777,8.1627,8.1668,8.1728,8.1776,8.1776,8.1776,8.2024,8.2118,8.199,8.2083,8.2498,8.252,8.2227,8.1917,8.1901,8.1766,8.1747,8.2205,8.2839,8.336,8.3952,8.461,8.4569,8.42,8.3904,8.3472,8.2986,8.2533,8.2106,8.1918,8.1155,8.0465,7.9741,7.9017,7.8327,7.7706,7.7292,7.7223,7.7223,7.7223,7.7223,7.7223,7.7223,7.7223,7.7223,7.7223,7.7223,7.7223,7.7223,7.7223,7.7223,7.7223,7.7223,7.7223,7.7223,7.7223,7.7223,7.7178,7.7178,7.7178,7.703,7.6834,7.6637,7.6455,7.5942,7.566,7.5389,7.5125,7.4964,7.5194,7.5399,7.5549,7.5732,8.4606,8.4606,8.4606,8.4606,8.4606,8.4606,8.4606,8.4606,8.4606,8.464,8.466,8.4694,8.4906,8.5116,8.5377,8.5686,8.584,8.6144,8.6244,8.6244,8.6244,8.6244,8.6144,8.5992,8.5737,8.5566,8.5463,8.5463,8.5566,8.5686,8.5992,8.6141,8.5574,8.5279,8.5038,8.4644,8.3773,8.3114,8.2421,8.1809,8.162,8.1371,8.1379,8.1524,8.1668,8.181,8.1776,8.1707,8.1638,8.178,8.1651,8.1698,8.1956,8.228,8.2115,8.2037,8.2085,8.1945,8.1837,8.2086,8.2658,8.3235,8.391,8.4569,8.4527,8.4569,8.4284,8.3861,8.3385,8.2941,8.2442,8.2014,8.1436,8.0684,8.0029,7.9315,7.8545,7.781,7.743,7.7292,7.7223,7.7223,7.7223,7.7223,7.7223,7.7223,7.7223,7.7223,7.7223,7.7223,7.7223,7.7223,7.7223,7.7223,7.7223,7.7223,7.7223,7.7223,7.7223,7.7223,7.7178,7.7223,7.7223,7.7189,7.6982,7.7051,7.7006,7.6493,7.6001,7.5574,7.5549,7.5898,7.6128,7.6255,7.6325,8.4606,8.4606,8.4606,8.4606,8.4606,8.4606,8.4606,8.4606,8.4606,8.4747,8.4906,8.4906,8.4958,8.5116,8.5359,8.5566,8.5635,8.5772,8.5992,8.6144,8.6144,8.6144,8.6144,8.6008,8.584,8.5652,8.5446,8.5325,8.5514,8.5583,8.5788,8.5854,8.5815,8.5949,8.5658,8.5133,8.4383,8.3531,8.2751,8.1953,8.1474,8.1028,8.1054,8.1393,8.1442,8.1668,8.1694,8.1293,8.1155,8.1121,8.1121,8.1202,8.1446,8.1956,8.2152,8.2182,8.2406,8.2409,8.2225,8.2408,8.2701,8.3529,8.41,8.4403,8.4403,8.4486,8.4326,8.3989,8.3733,8.3341,8.2625,8.2533,8.23,8.1274,8.0398,7.9683,7.8981,7.8279,7.7672,7.7568,7.7361,7.7223,7.7223,7.7223,7.7223,7.7223,7.7223,7.7223,7.7223,7.7223,7.7223,7.7223,7.7223,7.7223,7.7223,7.7223,7.7223,7.7223,7.7223,7.7223,7.7223,7.7223,7.7223,7.7223,7.7223,7.7189,7.7085,7.6947,7.6627,7.6317,7.6455,7.6834,7.6961,7.6927,7.6861,8.4403,8.4573,8.437,8.4437,8.4606,8.4606,8.4606,8.4606,8.4606,8.4747,8.4958,8.4958,8.4958,8.5011,8.5255,8.5359,8.5377,8.5514,8.5772,8.584,8.589,8.5804,8.5802,8.563,8.5307,8.524,8.5104,8.495,8.507,8.5274,8.5635,8.589,8.6093,8.6159,8.6109,8.5754,8.5002,8.3875,8.3023,8.1884,8.1325,8.0882,8.0709,8.1151,8.1297,8.149,8.1564,8.1302,8.119,8.1052,8.0914,8.0857,8.1123,8.1505,8.2014,8.2418,8.275,8.2941,8.2979,8.3033,8.2995,8.3548,8.3833,8.3989,8.4116,8.4278,8.4158,8.4116,8.3947,8.3568,8.2861,8.3031,8.2661,8.1698,8.1192,8.0487,7.9751,7.9026,7.8383,7.7879,7.7706,7.7568,7.7258,7.7258,7.7258,7.7258,7.7223,7.7223,7.7223,7.7223,7.7223,7.7223,7.7223,7.7223,7.7223,7.7223,7.7223,7.7223,7.7223,7.7223,7.7223,7.7223,7.7223,7.7223,7.7223,7.7223,7.7189,7.7085,7.712,7.7109,7.7178,7.7144,7.7144,7.7075,7.7109,8.3964,8.4505,8.3862,8.3964,8.4606,8.4606,8.4606,8.4606,8.4606,8.4606,8.466,8.4626,8.466,8.4679,8.4909,8.5014,8.5202,8.5359,8.5446,8.5447,8.5293,8.5172,8.4948,8.4773,8.4552,8.3987,8.4044,8.4251,8.4302,8.4591,8.5087,8.5618,8.5737,8.5992,8.6194,8.5737,8.4626,8.3058,8.2597,8.1681,8.0716,8.0494,8.061,8.0808,8.1054,8.1297,8.1325,8.1276,8.1164,8.113,8.0798,8.0926,8.1528,8.1332,8.169,8.2407,8.2716,8.2886,8.2896,8.3297,8.335,8.3341,8.3516,8.3611,8.3576,8.3783,8.4032,8.4032,8.3989,8.3904,8.3646,8.3437,8.2831,8.2267,8.1753,8.1269,8.0532,7.9924,7.9268,7.8521,7.8338,7.812,7.7603,7.7258,7.7292,7.7292,7.7258,7.7223,7.7223,7.7223,7.7223,7.7223,7.7223,7.7223,7.7223,7.7223,7.7223,7.7223,7.7223,7.7223,7.7223,7.7223,7.7223,7.7223,7.7223,7.7223,7.7223,7.7223,7.7223,7.7223,7.7223,7.7178,7.7178,7.7223,7.7223,8.393,8.4539,8.3795,8.393,8.4573,8.4606,8.4606,8.4606,8.4606,8.4606,8.4505,8.4133,8.42,8.4389,8.4306,8.4498,8.4995,8.4819,8.4875,8.4711,8.4523,8.4267,8.4058,8.3918,8.3781,8.3628,8.3684,8.3415,8.3262,8.3636,8.3993,8.4472,8.5173,8.5788,8.584,8.5429,8.4419,8.3092,8.2427,8.1731,8.0378,8.0309,8.046,8.061,8.0808,8.1005,8.1117,8.105,8.0987,8.1,8.06,8.0892,8.133,8.1123,8.1713,8.2176,8.2488,8.2716,8.2841,8.3066,8.311,8.311,8.3164,8.3262,8.3306,8.3654,8.3904,8.3989,8.3947,8.3776,8.3429,8.3646,8.3261,8.2686,8.2206,8.1938,8.1349,8.0869,8.0224,7.9418,7.8992,7.8614,7.8165,7.781,7.7775,7.7637,7.7603,7.7327,7.7258,7.7223,7.7223,7.7223,7.7223,7.7223,7.7223,7.7223,7.7223,7.7223,7.7223,7.7223,7.7223,7.7223,7.7223,7.7223,7.7223,7.7223,7.7223,7.7223,7.7223,7.7223,7.7223,7.7223,7.7223,7.7223,7.7223,8.3795,8.4167,8.3727,8.3761,8.4234,8.4505,8.4606,8.4573,8.437,8.4234,8.4099,8.3693,8.3727,8.4031,8.4065,8.3847,8.4566,8.434,8.3881,8.3739,8.3482,8.3211,8.297,8.2931,8.2726,8.276,8.2747,8.2564,8.2446,8.2581,8.304,8.3619,8.4165,8.4438,8.4643,8.4591,8.4297,8.3073,8.2324,8.1697,8.0648,8.0259,8.0309,8.046,8.061,8.0675,8.0736,8.0706,8.0604,8.0617,8.0622,8.0763,8.1052,8.119,8.1663,8.192,8.2211,8.2488,8.2705,8.2614,8.2579,8.2579,8.2806,8.2986,8.312,8.3429,8.3646,8.3776,8.3819,8.3733,8.3559,8.3819,8.3568,8.2996,8.2756,8.2451,8.2247,8.1732,8.1135,8.0316,7.9775,7.9338,7.8866,7.8545,7.8372,7.82,7.7993,7.7603,7.7292,7.7258,7.7223,7.7223,7.7223,7.7223,7.7223,7.7223,7.7223,7.7223,7.7223,7.7223,7.7223,7.7223,7.7223,7.7223,7.7223,7.7223,7.7223,7.7223,7.7223,7.7223,7.7223,7.7223,7.7223,7.7223,7.7223,8.3456,8.349,8.3422,8.3422,8.3625,8.4167,8.4437,8.4471,8.3795,8.349,8.3422,8.3422,8.3422,8.3592,8.4133,8.3998,8.361,8.349,8.3035,8.2595,8.2477,8.2089,8.1868,8.173,8.1676,8.1437,8.1455,8.1714,8.1681,8.2038,8.2445,8.2683,8.3006,8.3211,8.3534,8.3822,8.365,8.2613,8.2121,8.1393,8.0445,8.0209,8.0259,8.0309,8.041,8.051,8.069,8.0834,8.1111,8.1132,8.0932,8.1246,8.1293,8.1052,8.1293,8.1629,8.2024,8.2292,8.2396,8.2303,8.2211,8.2257,8.2396,8.2625,8.2806,8.3031,8.3253,8.3429,8.3559,8.3733,8.3819,8.3783,8.374,8.3437,8.3297,8.3103,8.297,8.2527,8.192,8.1366,8.0881,8.0409,7.9924,7.9567,7.9005,7.8739,7.8463,7.7741,7.743,7.7258,7.7223,7.7223,7.7223,7.7223,7.7178,7.7258,7.7223,7.7223,7.7223,7.7223,7.7223,7.7223,7.7223,7.7223,7.7223,7.7223,7.7223,7.7223,7.7223,7.7223,7.7223,7.7223,7.7223,7.7223,7.7223,8.2543,8.3355,8.2374,8.2509,8.3389,8.3186,8.3321,8.3659,8.305,8.2712,8.2712,8.2712,8.2746,8.2746,8.2949,8.2915,8.2813,8.2644,8.2205,8.1866,8.1596,8.1326,8.1087,8.095,8.0795,8.0795,8.0814,8.0917,8.0834,8.1257,8.1596,8.1732,8.2122,8.2326,8.2597,8.297,8.2358,8.1985,8.1663,8.1088,8.0479,8.0209,8.0209,8.0259,8.0309,8.036,8.051,8.0857,8.1102,8.1063,8.1331,8.1672,8.1638,8.1569,8.172,8.1908,8.2071,8.2152,8.2199,8.2118,8.2071,8.2071,8.2164,8.2211,8.2396,8.2579,8.2851,8.326,8.3367,8.3464,8.385,8.3929,8.392,8.3904,8.3657,8.3508,8.334,8.2986,8.2381,8.1967,8.1528,8.1113,8.0662,8.0236,7.9718,7.9428,7.8968,7.8234,7.7706,7.7568,7.7258,7.7258,7.7568,7.7672,7.7361,7.7292,7.7258,7.7223,7.7223,7.7223,7.7223,7.7223,7.7223,7.7292,7.7361,7.7327,7.7223,7.7223,7.7223,7.7223,7.7223,7.7223,7.7223,7.7223,7.7223,8.234,8.2543,8.2306,8.2543,8.2847,8.2272,8.2238,8.2509,8.2171,8.1968,8.1968,8.1968,8.1968,8.2035,8.2272,8.2306,8.1968,8.1934,8.1562,8.1021,8.0885,8.0716,8.0512,8.0426,8.046,8.046,8.046,8.0428,8.0361,8.0513,8.0851,8.0885,8.1393,8.1494,8.1528,8.1512,8.1291,8.1156,8.1021,8.0784,8.0479,8.0209,8.0209,8.0209,8.0209,8.0209,8.0259,8.0709,8.0956,8.1054,8.149,8.1776,8.1776,8.1776,8.1776,8.1965,8.1965,8.1965,8.1965,8.1965,8.1965,8.2012,8.2012,8.2012,8.2152,8.235,8.2869,8.3351,8.3231,8.3295,8.3754,8.4133,8.4273,8.4335,8.4044,8.3789,8.356,8.325,8.2841,8.2418,8.2026,8.1598,8.1194,8.0813,8.0455,8.0167,7.981,7.927,7.8637,7.8154,7.7637,7.7292,7.781,7.8189,7.781,7.7534,7.7534,7.7465,7.7223,7.7223,7.7258,7.7247,7.7282,7.743,7.7568,7.7534,7.7534,7.7292,7.7223,7.7258,7.7292,7.7223,7.7223,7.7223,7.7223,8.2441,8.146,8.2746,8.2746,8.2171,8.146,8.1224,8.119,8.1224,8.119,8.119,8.1291,8.1325,8.1359,8.1799,8.1731,8.1393,8.1156,8.0953,8.0242,8.0344,8.0293,8.0293,8.0209,8.0259,8.0259,8.0209,8.0259,8.0209,8.0344,8.0378,8.0209,8.0344,8.0513,8.0581,8.0547,8.0547,8.0547,8.0716,8.075,8.0378,8.0209,8.0209,8.0209,8.0209,8.0209,8.036,8.0659,8.1005,8.1151,8.1442,8.1728,8.1776,8.1776,8.181,8.181,8.1823,8.1823,8.1823,8.1823,8.1823,8.1858,8.1845,8.1927,8.2069,8.2106,8.2593,8.3309,8.3306,8.3836,8.4367,8.4297,8.4252,8.4533,8.4603,8.4242,8.3881,8.3466,8.2935,8.2662,8.2523,8.2209,8.2187,8.184,8.1228,8.0916,8.0362,7.9982,7.9569,7.8913,7.8465,7.7844,7.8258,7.8706,7.8396,7.812,7.7982,7.781,7.7603,7.7499,7.7672,7.7603,7.7385,7.7672,7.7913,7.7913,7.7879,7.7603,7.7351,7.7454,7.742,7.7247,7.7223,7.7268,7.7446,8.1122,8.1325,8.1663,8.1393,8.075,8.0547,8.0479,8.0445,8.0445,8.0479,8.0547,8.0953,8.0953,8.0682,8.1224,8.1156,8.0682,8.0581,8.0378,8.0242,8.0209,8.0209,8.0209,8.0209,8.0209,8.0209,8.0209,8.0209,8.0259,8.0259,8.0209,8.0175,8.0259,8.0259,8.0209,8.0209,8.0209,8.0209,8.0344,8.0513,8.0276,8.0209,8.0209,8.0209,8.0209,8.0209,8.041,8.0709,8.0956,8.1102,8.1538,8.1728,8.1776,8.1776,8.1776,8.1776,8.1776,8.1776,8.1776,8.1776,8.1776,8.1983,8.2086,8.2086,8.2065,8.2021,8.2326,8.3044,8.3669,8.4306,8.4863,8.4597,8.4481,8.4866,8.5111,8.4691,8.4271,8.368,8.3043,8.2987,8.2996,8.3018,8.3031,8.2707,8.214,8.1481,8.0823,8.0396,8.0224,7.9776,7.9753,7.9304,7.912,7.9258,7.8913,7.8844,7.8775,7.8672,7.8499,7.8361,7.8189,7.843,7.8603,7.8292,7.8258,7.8465,7.8361,7.7741,7.7592,7.7775,7.7579,7.7382,7.7446,7.7535,7.7763,8.0614,8.0784,8.0818,8.0581,8.0242,8.0209,8.0209,8.0209,8.0209,8.0209,8.0242,8.0581,8.0547,8.0209,8.0648,8.0716,8.0242,8.0209,8.0242,8.0209,8.0209,8.0209,8.0209,8.0209,8.0209,8.0209,8.0209,8.0259,8.0309,8.041,8.041,8.0326,8.036,8.0309,8.0259,8.0209,8.0209,8.0209,8.0209,8.0209,8.0209,8.0209,8.0209,8.0209,8.0209,8.0259,8.051,8.0808,8.1005,8.12,8.1585,8.1728,8.1776,8.1776,8.1776,8.1776,8.1776,8.1776,8.1776,8.1776,8.1776,8.1983,8.2086,8.1983,8.1914,8.194,8.2704,8.3345,8.3474,8.4042,8.5636,8.5927,8.5951,8.6184,8.5869,8.5368,8.481,8.4123,8.3856,8.3784,8.3685,8.359,8.3555,8.3555,8.3058,8.292,8.2121,8.1569,8.1259,8.0754,8.0731,8.0628,8.0339,7.981,7.9327,7.9431,7.9638,7.9534,7.9362,7.9155,7.8982,7.9534,7.981,7.9258,7.9051,7.9327,7.9051,7.8361,7.8141,7.83,7.7886,7.7446,7.7579,7.7763,7.8159,8.0494,8.0242,8.0209,8.0209,8.0209,8.0209,8.0209,8.0209,8.0209,8.0209,8.0209,8.0242,8.0209,8.0209,8.0209,8.0209,8.0209,8.0209,8.0209,8.0209,8.0209,8.0209,8.0209,8.0209,8.0209,8.0209,8.0209,8.036,8.046,8.046,8.046,8.056,8.0526,8.0476,8.0309,8.0259,8.0259,8.0209,8.0209,8.0209,8.0209,8.0209,8.0209,8.0209,8.0209,8.036,8.056,8.0808,8.1054,8.1297,8.1538,8.1668,8.1681,8.1681,8.1763,8.1763,8.1776,8.1776,8.1776,8.1776,8.1776,8.181,8.1845,8.1879,8.1879,8.2237,8.2967,8.3421,8.3507,8.4332,8.5926,8.6707,8.6729,8.6834,8.6298,8.5914,8.5224,8.4569,8.4487,8.4426,8.435,8.4205,8.4156,8.4156,8.4052,8.3949,8.3638,8.3225,8.2707,8.203,8.171,8.1538,8.1249,8.065,8.0098,8.0086,8.0465,8.0282,8.011,7.9891,7.9844,8.0362,8.0465,7.9982,7.9879,8.0086,7.9707,7.9017,7.8912,7.8885,7.8044,7.7569,7.7763,7.8066,7.8622,8.009,8.0209,8.0209,8.0209,8.0209,8.0209,8.0209,8.0209,8.0209,8.0209,8.0209,8.0209,8.0209,8.0209,8.0209,8.0209,8.0209,8.0209,8.0209,8.0209,8.0209,8.0209,8.0209,8.0209,8.0209,8.0209,8.0259,8.0259,8.046,8.041,8.041,8.061,8.061,8.061,8.0526,8.046,8.041,8.0309,8.0209,8.0209,8.0209,8.0209,8.0209,8.0209,8.0209,8.0259,8.036,8.0526,8.0808,8.1054,8.1297,8.1476,8.1524,8.149,8.162,8.1715,8.1728,8.1776,8.1776,8.1776,8.1776,8.1845,8.1948,8.2155,8.219,8.2293,8.2962,8.3583,8.3949,8.466,8.5824,8.5874,8.5915,8.622,8.5998,8.5853,8.5458,8.5014,8.4758,8.4903,8.5047,8.4949,8.4949,8.488,8.4708,8.4501,8.4156,8.3742,8.3328,8.2976,8.2574,8.2298,8.2056,8.1965,8.1597,8.1168,8.1224,8.1054,8.0893,8.0731,8.0788,8.1155,8.1121,8.0684,8.0615,8.0754,8.027,7.981,7.9556,7.9311,7.8237,7.7736,7.7963,7.8427,7.9076]}]]